[[{"header":{"parameterUnit":"m.s-1","parameterCategory":1,"la1":30.6,"la2":29.2853,"lo1":-89.7004,"lo2":-87.6739,"dy":0.0162,"dx":0.0183,"nx":112,"ny":82,"refTime":"2026-04-04T12:00:00:Z","depth":0,"parameterNumber":2,"parameterNumberName":"U-component_of_WINDS"},"data":[0.0,0.0,0.0,0.0,0.0,0.0,0.0,0.0,0.0,0.0,0.0,0.0,0.0,0.0,0.0,0.0,0.0,0.0,0.0,0.0,0.0,0.0,0.0,0.0,0.0,0.0,0.0,0.0,0.0,0.0,0.0,0.0,0.0,0.0,0.0,0.0,0.0,0.0,0.0,0.0,0.0,0.0,0.0,0.0,0.0,0.0,0.0,0.0,0.0,0.0,0.0,0.0,0.0,0.0,0.0,0.0,0.0,0.0,0.0,0.0,0.0,0.0,0.0,0.0,0.0,0.0,0.0,0.0,0.0,0.0,0.0,0.0,0.0,0.0,0.0,0.0,0.0,0.0,0.0,0.0,0.0,0.0,0.0,0.0,0.0,0.0,0.0,0.0,0.0,0.0,-1.9292,-2.0873,-2.2786,-2.3656,-2.296,-2.2211,-2.1127,-1.9562,0.0,0.0,0.0,0.0,0.0,0.0,0.0,0.0,0.0,0.0,0.0,0.0,0.0,0.0,0.0,0.0,0.0,0.0,0.0,0.0,0.0,0.0,0.0,0.0,0.0,0.0,0.0,0.0,0.0,0.0,0.0,0.0,0.0,0.0,0.0,0.0,0.0,0.0,0.0,0.0,0.0,0.0,0.0,0.0,0.0,0.0,0.0,0.0,0.0,0.0,0.0,0.0,0.0,0.0,0.0,0.0,0.0,0.0,0.0,0.0,0.0,0.0,0.0,0.0,0.0,0.0,0.0,0.0,0.0,0.0,0.0,0.0,0.0,0.0,0.0,0.0,0.0,0.0,0.0,0.0,0.0,0.0,0.0,0.0,0.0,0.0,0.0,0.0,0.0,0.0,0.0,0.0,0.0,0.0,0.0,0.0,0.0,0.0,0.0,0.0,0.0,0.0,0.0,0.0,-2.0347,-2.2358,-2.3714,-2.4062,-2.2987,-2.2773,-2.185,-1.9853,0.0,0.0,0.0,0.0,0.0,0.0,0.0,0.0,0.0,0.0,0.0,0.0,0.0,0.0,0.0,0.0,0.0,0.0,0.0,0.0,0.0,0.0,0.0,0.0,0.0,0.0,0.0,0.0,0.0,0.0,0.0,0.0,0.0,0.0,0.0,0.0,0.0,0.0,0.0,0.0,0.0,0.0,0.0,0.0,0.0,0.0,0.0,0.0,0.0,0.0,0.0,0.0,0.0,0.0,0.0,0.0,0.0,0.0,0.0,0.0,0.0,0.0,0.0,0.0,0.0,0.0,0.0,0.0,0.0,0.0,0.0,0.0,0.0,0.0,0.0,0.0,0.0,0.0,0.0,0.0,0.0,0.0,0.0,0.0,0.0,0.0,0.0,0.0,0.0,0.0,0.0,0.0,0.0,0.0,0.0,0.0,0.0,0.0,0.0,0.0,0.0,0.0,0.0,-2.0615,-2.2138,-2.3268,-2.4262,-2.4396,-2.322,-2.2806,-2.1817,-1.992,-1.8543,0.0,0.0,0.0,0.0,0.0,0.0,0.0,0.0,0.0,0.0,0.0,0.0,0.0,0.0,0.0,0.0,0.0,0.0,0.0,0.0,0.0,0.0,0.0,0.0,0.0,0.0,0.0,0.0,0.0,0.0,0.0,0.0,0.0,0.0,0.0,0.0,0.0,0.0,0.0,0.0,0.0,0.0,0.0,0.0,0.0,0.0,0.0,0.0,0.0,0.0,0.0,0.0,0.0,0.0,0.0,0.0,0.0,0.0,0.0,0.0,0.0,0.0,0.0,0.0,0.0,0.0,0.0,0.0,0.0,0.0,0.0,0.0,0.0,0.0,0.0,0.0,0.0,0.0,0.0,0.0,0.0,0.0,0.0,0.0,0.0,0.0,0.0,0.0,0.0,0.0,0.0,0.0,0.0,0.0,0.0,0.0,0.0,0.0,0.0,0.0,0.0,0.0,-2.2472,-2.3647,-2.3941,-2.4673,-2.4569,-2.3327,-2.2605,-2.1456,-1.9706,-1.8463,0.0,0.0,0.0,0.0,0.0,0.0,0.0,0.0,0.0,0.0,0.0,0.0,0.0,0.0,0.0,0.0,0.0,0.0,0.0,0.0,0.0,0.0,0.0,0.0,0.0,0.0,0.0,0.0,0.0,0.0,0.0,0.0,0.0,0.0,0.0,0.0,0.0,0.0,0.0,0.0,0.0,0.0,0.0,0.0,0.0,0.0,0.0,0.0,0.0,0.0,0.0,0.0,0.0,0.0,0.0,0.0,0.0,0.0,0.0,0.0,0.0,0.0,0.0,0.0,0.0,0.0,0.0,0.0,0.0,0.0,0.0,0.0,0.0,0.0,0.0,0.0,0.0,0.0,0.0,0.0,0.0,0.0,0.0,0.0,0.0,0.0,0.0,0.0,0.0,0.0,0.0,0.0,0.0,0.0,0.0,0.0,0.0,0.0,0.0,0.0,0.0,0.0,-2.3207,-2.4249,-2.4506,-2.4877,-2.4526,-2.3054,-2.2144,-2.09,-1.9063,-1.7903,0.0,0.0,0.0,0.0,0.0,0.0,0.0,0.0,0.0,0.0,0.0,0.0,0.0,0.0,0.0,0.0,0.0,0.0,0.0,0.0,0.0,0.0,0.0,0.0,0.0,0.0,0.0,0.0,0.0,0.0,0.0,0.0,0.0,0.0,0.0,0.0,0.0,0.0,0.0,0.0,0.0,0.0,0.0,0.0,0.0,0.0,0.0,0.0,0.0,0.0,0.0,0.0,0.0,0.0,0.0,0.0,0.0,0.0,0.0,0.0,0.0,0.0,0.0,0.0,0.0,0.0,0.0,0.0,0.0,0.0,0.0,0.0,0.0,0.0,0.0,0.0,0.0,0.0,0.0,0.0,0.0,0.0,0.0,0.0,0.0,0.0,0.0,0.0,0.0,0.0,0.0,0.0,0.0,0.0,0.0,0.0,0.0,0.0,0.0,0.0,0.0,0.0,-2.3447,-2.4479,-2.4586,-2.4903,-2.4512,-2.3027,-2.1917,-2.0681,-1.9292,0.0,0.0,0.0,0.0,0.0,0.0,0.0,0.0,0.0,0.0,0.0,0.0,0.0,0.0,0.0,0.0,0.0,0.0,0.0,0.0,0.0,0.0,0.0,0.0,0.0,0.0,0.0,0.0,0.0,0.0,0.0,0.0,0.0,0.0,0.0,0.0,0.0,0.0,0.0,0.0,0.0,0.0,0.0,0.0,0.0,0.0,0.0,0.0,0.0,0.0,0.0,0.0,0.0,0.0,0.0,0.0,0.0,0.0,0.0,0.0,0.0,0.0,0.0,0.0,0.0,0.0,0.0,0.0,0.0,0.0,0.0,0.0,0.0,0.0,0.0,0.0,0.0,0.0,0.0,0.0,0.0,0.0,0.0,0.0,0.0,0.0,0.0,0.0,0.0,0.0,0.0,0.0,0.0,0.0,0.0,0.0,0.0,0.0,0.0,0.0,0.0,0.0,-2.175,-2.3541,-2.4599,-2.4599,-2.4823,-2.4342,-2.288,-2.1563,-2.0334,-1.9187,0.0,0.0,0.0,0.0,0.0,0.0,0.0,0.0,0.0,0.0,0.0,0.0,0.0,0.0,0.0,0.0,0.0,0.0,0.0,0.0,0.0,0.0,0.0,0.0,0.0,0.0,0.0,0.0,0.0,0.0,0.0,0.0,0.0,0.0,0.0,0.0,0.0,0.0,0.0,0.0,0.0,0.0,0.0,0.0,0.0,0.0,0.0,0.0,0.0,0.0,0.0,0.0,0.0,0.0,0.0,0.0,0.0,0.0,0.0,0.0,0.0,0.0,0.0,0.0,0.0,0.0,0.0,0.0,0.0,0.0,0.0,0.0,0.0,0.0,0.0,0.0,0.0,0.0,0.0,0.0,0.0,0.0,0.0,0.0,0.0,0.0,0.0,0.0,0.0,0.0,0.0,0.0,0.0,0.0,0.0,0.0,0.0,0.0,0.0,0.0,0.0,0.0,-2.1724,-2.3541,-2.4599,-2.4599,-2.4599,-2.3999,-2.2552,-2.1051,-1.9717,0.0,0.0,0.0,0.0,0.0,0.0,0.0,0.0,0.0,0.0,0.0,0.0,0.0,0.0,0.0,0.0,0.0,0.0,0.0,0.0,0.0,0.0,0.0,0.0,0.0,0.0,0.0,0.0,0.0,0.0,0.0,0.0,0.0,0.0,0.0,0.0,0.0,0.0,0.0,0.0,0.0,0.0,0.0,0.0,0.0,0.0,0.0,0.0,0.0,0.0,0.0,0.0,0.0,0.0,0.0,0.0,0.0,0.0,0.0,0.0,0.0,0.0,0.0,0.0,0.0,0.0,0.0,0.0,0.0,0.0,0.0,0.0,0.0,0.0,0.0,0.0,0.0,0.0,0.0,0.0,0.0,0.0,0.0,0.0,0.0,0.0,0.0,0.0,0.0,0.0,0.0,0.0,0.0,0.0,0.0,0.0,0.0,0.0,0.0,0.0,0.0,0.0,0.0,-2.1724,-2.3541,-2.4599,-2.4599,-2.4823,-2.4436,-2.3132,-2.1897,-2.0668,-1.9492,0.0,0.0,0.0,0.0,0.0,0.0,0.0,0.0,0.0,0.0,0.0,0.0,0.0,0.0,0.0,0.0,0.0,0.0,0.0,0.0,0.0,0.0,0.0,0.0,0.0,0.0,0.0,0.0,0.0,0.0,0.0,0.0,0.0,0.0,0.0,0.0,0.0,0.0,0.0,0.0,0.0,0.0,0.0,0.0,0.0,0.0,0.0,0.0,0.0,0.0,0.0,0.0,0.0,0.0,0.0,0.0,0.0,0.0,0.0,0.0,0.0,0.0,0.0,0.0,0.0,0.0,0.0,0.0,0.0,0.0,0.0,0.0,0.0,0.0,0.0,0.0,0.0,0.0,0.0,0.0,0.0,0.0,0.0,0.0,0.0,0.0,0.0,0.0,0.0,0.0,0.0,0.0,0.0,0.0,0.0,0.0,0.0,0.0,0.0,0.0,0.0,0.0,-2.171,-2.3541,-2.4639,-2.4796,-2.497,-2.4649,-2.3594,-2.2512,-2.1296,-1.9893,0.0,0.0,0.0,0.0,0.0,0.0,0.0,0.0,0.0,0.0,0.0,0.0,0.0,0.0,0.0,0.0,0.0,0.0,0.0,0.0,0.0,0.0,0.0,0.0,0.0,0.0,0.0,0.0,0.0,0.0,0.0,0.0,0.0,0.0,0.0,0.0,0.0,0.0,0.0,0.0,0.0,0.0,0.0,0.0,0.0,0.0,0.0,0.0,0.0,0.0,0.0,0.0,0.0,0.0,0.0,0.0,0.0,0.0,0.0,0.0,0.0,0.0,0.0,0.0,0.0,0.0,0.0,0.0,0.0,0.0,0.0,0.0,0.0,0.0,0.0,0.0,0.0,0.0,0.0,0.0,0.0,0.0,0.0,0.0,0.0,0.0,0.0,0.0,0.0,0.0,0.0,0.0,0.0,0.0,0.0,0.0,0.0,0.0,0.0,0.0,0.0,0.0,-2.1729,-2.3567,-2.4746,-2.5088,-2.5104,-2.477,-2.3964,-2.302,-2.1777,-2.0067,0.0,0.0,0.0,0.0,0.0,0.0,0.0,0.0,0.0,0.0,0.0,0.0,0.0,0.0,0.0,0.0,0.0,0.0,0.0,0.0,0.0,0.0,0.0,0.0,0.0,0.0,0.0,0.0,0.0,0.0,0.0,0.0,0.0,0.0,0.0,0.0,0.0,0.0,0.0,0.0,0.0,0.0,0.0,0.0,0.0,0.0,0.0,0.0,0.0,0.0,0.0,0.0,0.0,0.0,0.0,0.0,0.0,0.0,0.0,0.0,-1.7906,-1.7316,0.0,0.0,0.0,0.0,0.0,0.0,0.0,0.0,0.0,0.0,0.0,0.0,0.0,0.0,0.0,0.0,0.0,0.0,0.0,0.0,0.0,0.0,0.0,0.0,0.0,0.0,0.0,0.0,0.0,0.0,0.0,0.0,0.0,0.0,0.0,0.0,0.0,0.0,0.0,0.0,-2.177,-2.3741,-2.501,-2.5077,-2.5291,-2.5157,-2.4502,-2.3599,-2.2579,-2.1288,-1.9896,0.0,0.0,0.0,0.0,0.0,0.0,0.0,0.0,0.0,0.0,0.0,0.0,0.0,0.0,0.0,0.0,0.0,0.0,0.0,0.0,0.0,0.0,0.0,0.0,0.0,0.0,0.0,0.0,0.0,0.0,0.0,0.0,0.0,0.0,0.0,0.0,0.0,0.0,0.0,0.0,0.0,0.0,0.0,0.0,0.0,0.0,0.0,0.0,0.0,0.0,0.0,0.0,0.0,0.0,0.0,0.0,0.0,0.0,0.0,-1.766,-1.6985,0.0,0.0,0.0,0.0,0.0,0.0,0.0,0.0,0.0,0.0,0.0,0.0,0.0,0.0,0.0,0.0,0.0,0.0,0.0,0.0,0.0,0.0,0.0,0.0,0.0,0.0,0.0,0.0,0.0,0.0,0.0,0.0,0.0,0.0,0.0,0.0,0.0,0.0,0.0,0.0,-2.1951,-2.3754,-2.4917,-2.5064,-2.5211,-2.513,-2.4639,-2.4052,-2.318,-2.1877,-2.0521,0.0,0.0,0.0,0.0,0.0,0.0,0.0,0.0,0.0,0.0,0.0,0.0,0.0,0.0,0.0,0.0,0.0,0.0,0.0,0.0,0.0,0.0,0.0,0.0,0.0,0.0,0.0,0.0,0.0,0.0,0.0,0.0,0.0,0.0,0.0,0.0,0.0,0.0,0.0,0.0,0.0,0.0,0.0,0.0,0.0,0.0,0.0,0.0,0.0,0.0,0.0,0.0,0.0,-1.8437,-1.8508,-1.8708,-1.8708,-1.8291,-1.7603,-1.7442,-1.6637,-1.5396,-1.4449,0.0,0.0,0.0,0.0,0.0,0.0,0.0,0.0,0.0,0.0,0.0,0.0,0.0,0.0,0.0,0.0,0.0,0.0,0.0,0.0,0.0,0.0,-1.4285,-1.4126,-1.4408,-1.4466,-1.3769,0.0,0.0,0.0,0.0,0.0,0.0,0.0,0.0,0.0,0.0,0.0,-2.1857,-2.3445,-2.4507,-2.4781,-2.4808,-2.4678,-2.4391,-2.4101,-2.3353,-2.2041,-2.0809,-1.924,0.0,0.0,0.0,0.0,0.0,0.0,0.0,0.0,0.0,0.0,0.0,0.0,0.0,0.0,0.0,0.0,0.0,0.0,0.0,0.0,0.0,0.0,0.0,0.0,0.0,0.0,0.0,0.0,0.0,0.0,0.0,0.0,-2.0747,-2.0646,0.0,0.0,0.0,0.0,0.0,0.0,0.0,0.0,0.0,0.0,0.0,0.0,0.0,-1.7182,-1.7587,-1.7975,-1.8381,-1.8735,-1.8562,-1.8666,-1.9012,-1.9012,-1.8554,-1.7768,-1.7408,0.0,-1.4827,-1.3638,0.0,0.0,0.0,0.0,0.0,0.0,0.0,0.0,0.0,0.0,0.0,0.0,0.0,0.0,0.0,0.0,0.0,0.0,0.0,0.0,0.0,0.0,-1.3242,-1.3307,-1.3573,-1.3678,-1.3335,-1.4066,-1.4833,-1.4987,-1.5411,-1.5711,0.0,0.0,0.0,0.0,0.0,0.0,-2.0688,-2.2423,-2.3597,-2.3634,-2.3634,-2.3622,-2.3546,-2.3044,-2.2446,-2.1776,-2.065,-1.9134,-1.7114,-1.5583,0.0,0.0,0.0,0.0,0.0,0.0,0.0,0.0,0.0,0.0,0.0,0.0,0.0,0.0,0.0,0.0,0.0,0.0,0.0,0.0,0.0,0.0,0.0,0.0,0.0,0.0,0.0,0.0,0.0,-1.896,-1.9319,-1.9426,-1.9447,-1.9324,0.0,0.0,0.0,0.0,0.0,0.0,0.0,0.0,0.0,-1.6679,-1.6246,-1.6257,-1.6735,-1.7022,-1.7307,-1.7629,-1.7457,-1.7554,-1.7926,-1.7779,-1.7536,-1.7189,-1.6905,-1.6371,-1.5572,-1.4407,-1.3654,-1.318,0.0,0.0,0.0,0.0,-1.2366,-1.2671,-1.3037,-1.2983,-1.2774,-1.2644,0.0,0.0,0.0,0.0,0.0,0.0,0.0,-1.1934,-1.2352,-1.2956,-1.3492,-1.3641,-1.3844,-1.3946,-1.3771,-1.4106,-1.4394,-1.4292,-1.4597,-1.4852,-1.4727,-1.47,0.0,0.0,0.0,-1.7789,-1.8914,-2.0314,-2.1221,-2.1221,-2.1221,-2.1221,-2.1221,-2.0986,-2.0583,-2.0108,-1.92,-1.7963,-1.6334,-1.4752,-1.3239,0.0,0.0,0.0,0.0,0.0,0.0,0.0,0.0,0.0,0.0,0.0,0.0,0.0,0.0,0.0,0.0,0.0,0.0,0.0,0.0,0.0,0.0,0.0,0.0,0.0,0.0,0.0,0.0,-1.772,-1.8131,-1.8331,-1.8354,-1.8278,0.0,0.0,0.0,0.0,0.0,0.0,-1.7715,-1.7017,-1.6559,-1.6459,-1.5937,-1.5872,-1.6361,-1.6517,-1.6707,-1.6865,-1.6716,-1.6836,-1.7087,-1.6971,-1.6872,-1.6865,-1.675,-1.6666,-1.6463,-1.5486,-1.4821,-1.4353,-1.3749,-1.3512,-1.354,-1.3397,-1.3492,-1.379,-1.4086,-1.4079,-1.3926,-1.3661,-1.3166,-1.2596,-1.2145,0.0,0.0,0.0,0.0,-1.2725,-1.318,-1.3682,-1.4156,-1.4272,-1.4448,-1.4536,-1.4391,-1.4343,-1.421,-1.3775,-1.4014,-1.4223,-1.398,-1.3938,0.0,-1.4743,-1.5456,-1.6266,-1.7366,-1.8412,-1.9065,-1.9065,-1.9065,-1.9065,-1.9065,-1.9065,-1.8873,-1.8411,-1.7759,-1.6833,-1.5462,-1.4,-1.2649,-1.1458,0.0,0.0,0.0,0.0,0.0,0.0,0.0,0.0,0.0,0.0,0.0,0.0,0.0,0.0,0.0,0.0,0.0,0.0,0.0,0.0,0.0,0.0,0.0,0.0,0.0,0.0,0.0,0.0,0.0,-1.7776,-1.8095,0.0,0.0,0.0,0.0,-1.8429,-1.8832,-1.8761,-1.8016,-1.7833,-1.7498,-1.6956,-1.691,-1.6971,-1.7134,-1.729,-1.7372,-1.7385,-1.7229,-1.7243,-1.7399,-1.7392,-1.7385,-1.7385,-1.7378,-1.729,-1.7087,-1.6327,-1.575,-1.5282,-1.4679,-1.4441,-1.4428,-1.4285,-1.4421,-1.4687,-1.5181,-1.514,-1.4875,-1.4667,-1.3973,-1.3085,-1.2779,-1.2632,0.0,0.0,-1.3214,-1.3592,-1.3982,-1.4506,-1.4962,-1.4969,-1.5147,-1.5276,-1.4991,-1.4969,-1.4753,-1.4104,-1.4238,-1.4383,-1.4146,0.0,-1.4164,-1.4397,-1.4952,-1.5606,-1.6284,-1.7243,-1.7882,-1.7882,-1.7882,-1.7882,-1.7882,-1.7882,-1.7715,-1.7319,-1.6884,-1.6061,-1.4705,-1.3911,-1.2839,-1.1521,-1.0792,0.0,0.0,0.0,0.0,0.0,0.0,0.0,0.0,0.0,0.0,0.0,0.0,0.0,0.0,0.0,0.0,0.0,0.0,0.0,0.0,0.0,0.0,0.0,0.0,0.0,0.0,0.0,0.0,-1.6354,-1.6752,0.0,-1.6681,-1.66,-1.6678,-1.7068,-1.7496,-1.7705,-1.7608,-1.7621,-1.7671,-1.7709,-1.7718,-1.7772,-1.7914,-1.7772,-1.7806,-1.8002,-1.7738,-1.7758,-1.8002,-1.7894,-1.7846,-1.7846,-1.7595,-1.748,-1.7406,-1.7093,-1.6619,-1.6083,-1.5676,-1.5459,-1.5357,-1.5215,-1.5289,-1.5493,-1.575,-1.5771,-1.5628,-1.5282,-1.4719,-1.4143,-1.3939,-1.381,-1.377,-1.3919,-1.4143,-1.4414,-1.4713,-1.5018,-1.5255,-1.5255,-1.5337,-1.5303,-1.4909,-1.4746,-1.4581,-1.4242,-1.4278,-1.4245,-1.3844,-1.3549,-1.3436,-1.3495,-1.3771,-1.409,-1.4523,-1.5145,-1.5569,-1.5569,-1.5569,-1.5569,-1.5569,-1.5464,-1.5308,-1.5034,-1.4721,-1.4242,-1.359,-1.3211,-1.2571,-1.171,-1.107,-1.0493,0.0,0.0,0.0,0.0,0.0,0.0,0.0,0.0,0.0,0.0,0.0,0.0,0.0,0.0,0.0,0.0,0.0,0.0,0.0,0.0,0.0,0.0,0.0,0.0,0.0,-1.5052,-1.5791,-1.5988,-1.6408,-1.6605,-1.6402,-1.6384,-1.6435,-1.6741,-1.708,-1.7365,-1.7561,-1.767,-1.7826,-1.8091,-1.8091,-1.8158,-1.8321,-1.8165,-1.8165,-1.8321,-1.8111,-1.8124,-1.8321,-1.8213,-1.8165,-1.8158,-1.7913,-1.7825,-1.7805,-1.7704,-1.7378,-1.6937,-1.6537,-1.6371,-1.6262,-1.6008,-1.5995,-1.6139,-1.6191,-1.6198,-1.611,-1.5811,-1.5445,-1.5099,-1.4997,-1.4862,-1.4774,-1.4869,-1.4917,-1.5039,-1.5282,-1.5445,-1.5547,-1.5499,-1.5527,-1.5438,-1.4984,-1.4733,-1.4543,-1.4401,-1.4292,-1.4109,-1.372,-1.3417,-1.3207,-1.3159,-1.3234,-1.3417,-1.3626,-1.4048,-1.4299,-1.4299,-1.4299,-1.4299,-1.4299,-1.4156,-1.4007,-1.3808,-1.3512,-1.3214,-1.3009,-1.2766,-1.2354,-1.1807,-1.1117,-1.0515,-1.0053,0.0,0.0,0.0,0.0,0.0,0.0,0.0,0.0,0.0,0.0,0.0,0.0,0.0,0.0,0.0,0.0,0.0,0.0,0.0,0.0,0.0,0.0,0.0,-1.4687,-1.5683,-1.6456,-1.6806,-1.7175,-1.7446,-1.7446,-1.7317,-1.7351,-1.7595,-1.7806,-1.7936,-1.7936,-1.7936,-1.799,-1.8091,-1.8091,-1.8165,-1.8335,-1.842,-1.8477,-1.8355,-1.8335,-1.8335,-1.8355,-1.8355,-1.8335,-1.8335,-1.8335,-1.8335,-1.8321,-1.8158,-1.8002,-1.7826,-1.7229,-1.6998,-1.6958,-1.6659,-1.6551,-1.6551,-1.6551,-1.6456,-1.6334,-1.6334,-1.6123,-1.5922,-1.5915,-1.5764,-1.56,-1.56,-1.5593,-1.5593,-1.5593,-1.5744,-1.5867,-1.5676,-1.575,-1.5779,-1.5282,-1.495,-1.4654,-1.455,-1.4285,-1.4041,-1.3842,-1.3714,-1.362,-1.3464,-1.3566,0.0,-1.3808,-1.4129,-1.4312,-1.4312,-1.4312,-1.4312,-1.4306,-1.4163,-1.4007,-1.3802,-1.341,-1.3139,-1.2989,-1.2657,-1.2291,-1.18,-1.0968,-1.0371,-1.0004,0.0,0.0,0.0,0.0,0.0,0.0,0.0,0.0,0.0,0.0,0.0,0.0,0.0,0.0,0.0,0.0,0.0,0.0,0.0,0.0,0.0,-1.459,-1.5208,-1.5554,-1.6456,-1.7222,-1.7575,-1.786,-1.807,-1.807,-1.8036,-1.8091,-1.8267,-1.8321,-1.8355,-1.8355,-1.8145,-1.8091,-1.8247,-1.8145,-1.8267,-1.864,-1.8674,-1.8782,-1.8952,-1.885,-1.8864,-1.8952,-1.8952,-1.8905,-1.8796,-1.8694,-1.8586,-1.8407,-1.8321,-1.8233,-1.8145,-1.765,-1.7399,-1.729,-1.7202,-1.7175,-1.7175,-1.7175,-1.7005,-1.6795,-1.6795,-1.6592,-1.632,-1.6218,-1.6076,-1.5934,-1.5825,-1.5716,-1.5593,-1.5593,-1.5744,-1.5867,-1.5676,-1.575,-1.5779,-1.5282,-1.495,-1.4681,-1.464,-1.4523,-1.438,-1.4333,-1.4482,-1.455,-1.4349,-1.4363,-1.4403,-1.4444,-1.4525,-1.4572,-1.4572,-1.4572,-1.4532,-1.4462,-1.4217,-1.396,-1.366,-1.3268,-1.2941,-1.2637,-1.2549,-1.2291,-1.18,-1.1375,-1.0941,0.0,0.0,0.0,0.0,0.0,0.0,0.0,0.0,0.0,0.0,0.0,0.0,0.0,0.0,0.0,0.0,0.0,0.0,0.0,0.0,0.0,0.0,-1.5438,-1.6144,-1.6677,-1.7277,-1.7792,-1.8023,-1.8375,-1.8599,-1.8599,-1.8654,-1.8728,-1.8816,-1.8816,-1.8762,-1.864,-1.8355,-1.8233,-1.8321,-1.8233,-1.8375,-1.882,-1.8884,-1.9027,-1.9203,-1.9115,-1.9115,-1.9203,-1.9203,-1.9149,-1.9081,-1.8993,-1.8864,-1.8708,-1.8565,-1.8464,-1.8355,0.0,0.0,0.0,0.0,-1.7419,-1.7419,-1.7419,-1.7311,-1.7154,-1.7087,-1.691,-1.6666,-1.6395,-1.6117,-1.5852,-1.5683,-1.5425,-1.5242,-1.5418,-1.5608,-1.5778,-1.5811,-1.5934,-1.594,-1.5595,-1.5181,-1.4909,-1.4848,-1.4767,0.0,-1.478,-1.4889,-1.4916,-1.4714,-1.4694,-1.4694,-1.4694,-1.4694,-1.4694,-1.4694,-1.4694,-1.4633,-1.4523,-1.4299,0.0,0.0,0.0,-1.2928,-1.2515,-1.2501,0.0,0.0,0.0,0.0,0.0,-1.1226,0.0,0.0,-1.0358,-1.0419,0.0,0.0,0.0,0.0,0.0,0.0,0.0,0.0,0.0,0.0,0.0,0.0,0.0,0.0,0.0,0.0,-1.631,-1.7047,-1.7868,-1.8091,-1.8267,-1.8375,-1.8742,-1.8993,-1.9006,-1.9128,-1.9203,-1.9203,-1.9203,-1.9081,-1.8854,-1.8511,0.0,0.0,0.0,-1.8498,-1.8816,-1.9094,-1.9237,-1.9257,-1.9257,-1.9257,-1.9257,-1.9257,-1.9237,-1.9217,-1.9217,-1.9149,-1.9006,-1.8871,-1.8708,-1.8511,-1.8077,-1.797,-1.7936,-1.7602,-1.7494,-1.7494,-1.748,0.0,0.0,-1.729,-1.7148,-1.6951,-1.6517,-1.6069,-1.56,-1.5343,-1.5031,-1.4809,-1.5133,-1.5432,-1.5688,-1.6015,-1.6212,-1.6252,-1.5996,-1.5602,-1.5262,-1.5119,-1.5078,-1.5112,-1.5208,-1.5126,-1.4991,-1.4796,-1.4769,-1.4762,-1.4748,-1.4741,-1.4741,-1.4741,-1.4741,0.0,-1.4577,-1.4434,-1.4211,-1.3842,-1.3417,-1.2963,-1.2542,-1.2528,-1.2542,-1.2576,-1.2454,-1.2406,-1.244,-1.2322,-1.2261,-1.2261,-1.1435,-1.1164,0.0,0.0,0.0,0.0,0.0,0.0,0.0,0.0,0.0,0.0,0.0,0.0,0.0,0.0,0.0,-1.6286,-1.6932,-1.7595,-1.8158,-1.8674,-1.8952,-1.8864,-1.8938,-1.904,-1.9149,-1.9183,-1.9203,-1.9203,-1.9203,-1.9128,-1.8959,-1.8654,-1.8552,-1.8674,-1.8552,-1.8687,-1.9115,-1.9291,-1.9447,-1.9576,-1.9576,0.0,-1.9576,-1.9576,-1.9501,-1.9379,-1.9379,-1.9305,-1.9169,-1.9128,-1.8959,-1.8694,-1.8355,-1.8233,-1.8213,-1.8023,-1.7968,-1.7948,-1.7826,-1.7704,-1.7548,-1.7514,-1.7406,-1.7277,-1.6951,-1.6537,0.0,-1.586,-1.5466,-1.514,-1.5316,-1.5588,-1.5908,-1.6042,-1.6286,-1.6402,-1.6103,-1.5922,-1.5731,-1.554,-1.5411,-1.5371,-1.5479,-1.5479,-1.5411,-1.5303,-1.5282,-1.5235,-1.5113,-1.5099,-1.5099,-1.5099,-1.5099,-1.5038,-1.4896,-1.474,-1.4475,-1.4055,-1.3424,-1.2948,-1.2659,-1.2645,-1.28,-1.3077,-1.3057,-1.3125,-1.337,-1.322,-1.3207,-1.3308,-1.2556,-1.2284,0.0,0.0,0.0,0.0,0.0,0.0,0.0,0.0,0.0,0.0,0.0,-1.5594,-1.5818,0.0,-1.6734,-1.7039,-1.7473,-1.8023,-1.8477,-1.8918,-1.9183,-1.9094,-1.9237,-1.9325,-1.9325,-1.9447,-1.9501,-1.9434,-1.9434,-1.9359,-1.9217,-1.8993,-1.8905,-1.8972,-1.8905,-1.9006,-1.9305,-1.9468,-1.959,-1.9725,-1.9725,-1.9725,-1.9725,-1.9725,-1.9624,-1.9556,-1.9556,-1.9468,-1.9305,-1.9237,-1.9081,-1.8871,-1.8708,-1.8511,-1.8301,-1.8233,-1.8158,-1.8077,-1.8002,-1.788,-1.7738,-1.7615,-1.7541,-1.7467,-1.7093,-1.6666,-1.6246,-1.599,-1.5581,-1.5235,-1.5466,-1.5744,-1.6071,-1.6246,-1.6469,-1.654,-1.6449,-1.6239,-1.6062,-1.5988,-1.5852,-1.5771,-1.5845,-1.5859,-1.5757,-1.5459,-1.5411,-1.5357,-1.5201,-1.5181,-1.5181,-1.5181,-1.5181,-1.5173,-1.503,-1.4692,-1.4394,-1.4132,-1.358,-1.3227,-1.3071,-1.3098,-1.3247,-1.3397,-1.3471,-1.362,-1.3851,-1.3695,-1.3702,-1.3844,-1.3539,-1.3363,0.0,0.0,0.0,0.0,0.0,0.0,0.0,-1.5486,-1.5602,-1.6139,-1.6442,-1.672,-1.6878,-1.7209,-1.7494,-1.7683,-1.8057,-1.8409,-1.883,-1.9169,-1.9359,-1.9345,-1.9522,-1.9644,-1.9569,-1.9746,-1.9882,-1.9773,-1.9739,-1.961,-1.9481,-1.9359,-1.9291,-1.9291,-1.9291,-1.9345,-1.9468,-1.959,-1.9725,-1.9725,-1.9725,-1.9725,-1.9725,-1.9725,-1.9725,-1.9725,-1.9725,-1.961,-1.9501,-1.9359,-1.9203,-1.9081,-1.904,-1.8796,-1.8443,-1.8332,-1.8287,-1.8179,-1.8145,-1.8057,-1.7935,-1.7737,-1.7683,-1.7595,-1.7236,-1.6815,-1.6422,-1.6201,-1.5799,-1.5472,-1.5729,-1.6035,-1.6279,-1.6544,-1.6727,-1.677,-1.6709,-1.6513,-1.6381,-1.632,-1.6212,-1.6117,-1.609,-1.6083,-1.5947,-1.5554,-1.5499,-1.5445,-1.5289,-1.5269,-1.5269,-1.5269,-1.5269,-1.5215,-1.5072,-1.4672,-1.4367,-1.4211,-1.3946,-1.3693,-1.358,-1.3695,-1.3727,-1.3754,-1.3869,-1.4061,-1.4289,-1.4089,-1.4095,-1.4295,-1.434,-1.4224,-1.3146,-1.3969,-1.5133,-1.5771,-1.6347,-1.6795,0.0,-1.6958,-1.7039,-1.7325,-1.7684,-1.786,-1.7758,-1.7989,-1.8199,-1.8233,-1.8599,-1.8993,-1.9305,-1.9732,-1.9942,-1.982,-1.9773,-1.9752,-1.9997,-1.9929,-1.9875,-1.9854,-1.9793,-1.9664,-1.9644,-1.9624,-1.9671,-1.9671,-1.9671,-1.9624,-1.9644,-1.9664,-1.9725,-1.9725,-1.9725,-1.9725,-1.9725,-1.9725,-1.9725,-1.9725,-1.9725,-1.9732,-1.982,-1.9725,-1.9522,-1.9359,-1.9237,-1.9081,-1.8884,-1.8599,-1.8498,-1.8464,-1.8335,-1.8287,-1.8247,-1.8091,-1.8036,-1.7982,-1.767,-1.7351,-1.706,-1.6897,-1.653,-1.6252,-1.65,-1.6594,-1.6669,-1.689,-1.7039,-1.7073,-1.6757,-1.6669,-1.6574,-1.6361,-1.6293,-1.6239,-1.6103,-1.6083,-1.6015,-1.5881,-1.5854,-1.575,-1.556,-1.5539,-1.5539,-1.5539,-1.5539,-1.5479,-1.5371,-1.5072,-1.4828,-1.4626,-1.4509,-1.4346,-1.4204,-1.4217,-1.4285,-1.4414,-1.4428,-1.4577,-1.4915,-1.4713,-1.4719,-1.4915,-1.4746,-1.4529,-1.4292,-1.501,-1.5934,-1.6935,-1.7636,-1.8213,-1.8443,-1.8498,-1.8586,-1.8884,-1.904,-1.9061,-1.8816,-1.8816,-1.8816,-1.8728,-1.8938,-1.9217,-1.9522,-1.9875,-2.0051,-1.9888,-1.959,-1.9522,-1.982,-1.9916,-1.9875,-1.9875,-1.9908,-1.9922,-1.9922,-1.9922,-1.9922,-1.9922,-1.9922,-1.9922,-1.9922,-1.9841,-1.9848,-1.9848,-1.9759,-1.9725,-1.9725,-1.9725,-1.9725,-1.9725,-1.9725,-1.9759,-1.9752,-1.9739,-1.9569,-1.9367,-1.9359,-1.9203,-1.8972,-1.8742,-1.8599,-1.8474,-1.8464,-1.8389,-1.8301,-1.8247,-1.8158,-1.807,-1.7948,-1.7704,-1.7446,-1.7385,-1.7107,-1.687,-1.7087,-1.7073,-1.7046,-1.7202,-1.7283,-1.727,-1.7053,-1.6944,-1.6822,-1.6554,-1.6429,-1.6286,-1.6225,-1.6144,-1.6062,-1.5995,-1.5956,-1.5854,-1.5607,-1.5593,-1.5593,-1.5593,-1.5512,-1.5479,-1.5418,-1.4859,-1.4382,-1.4,-1.386,-1.3706,-1.3655,-1.3649,-1.3674,-1.3732,-1.3459,-1.3285,-1.3196,-1.3018,-1.3018,-1.3196,-1.3096,-1.3006,-1.5242,-1.59,-1.672,-1.7881,-1.8674,-1.9305,-1.961,-1.9678,-1.9746,-1.9963,-1.9929,-1.98,-1.9535,-1.9359,-1.9257,-1.9237,-1.9393,-1.9624,-1.999,-2.0187,-2.0261,-2.0031,-1.9644,-1.9447,-1.959,-1.9657,-1.9732,-1.9916,-2.001,-2.0098,-2.0098,-2.0098,-2.0098,-2.0098,-2.0098,-2.0098,-2.0098,-1.9942,-1.9875,-1.9875,-1.9732,-1.9725,-1.9725,-1.9725,-1.9739,-1.9773,-1.9739,-1.9739,-1.9773,-1.9739,-1.959,-1.9481,-1.9447,-1.9271,-1.9027,-1.8884,-1.8728,-1.8599,-1.8599,-1.8531,-1.8423,-1.8389,-1.8301,-1.8199,-1.8111,-1.7948,-1.7758,-1.7663,-1.7521,-1.7298,-1.7291,-1.7055,-1.6808,-1.6751,-1.6614,-1.6455,-1.6269,-1.6154,-1.6032,-1.5846,-1.5648,-1.5488,-1.5404,-1.5308,-1.5225,-1.5236,-1.514,-1.5234,-1.5673,-1.5764,-1.5764,-1.5764,-1.5622,-1.5533,-1.5533,-1.468,-1.3827,-1.3022,-1.2841,-1.2743,-1.2737,-1.2743,-1.2743,-1.2737,-1.2132,-1.1429,-1.071,-1.0629,-1.0629,-1.071,-1.071,-1.071,-1.5643,-1.6592,-1.7595,-1.8518,-1.9351,-1.9922,-2.0227,-2.0295,-2.0246,-2.0315,-2.0085,-1.9882,-1.9739,-1.9522,-1.9522,-1.98,-2.0098,-2.0404,-2.0702,-2.0878,-2.0804,-2.0363,-2.0051,-1.9746,-1.9468,-1.9305,-1.94,-1.9902,-2.001,-2.0098,-2.0098,-2.0098,-2.0098,-2.0098,-2.0098,-2.0098,-2.0098,-1.9942,-1.9875,-1.9875,-1.9732,-1.9725,-1.9725,-1.9725,-1.9793,-1.9916,-1.9773,-1.9793,-1.9854,-1.9773,-1.9725,-1.9644,-1.9481,-1.9345,-1.9183,-1.904,-1.8884,-1.8762,-1.8762,-1.88,-1.8728,-1.8565,-1.8511,-1.8464,-1.8179,-1.8091,-1.8036,-1.7956,-1.7758,-1.7499,-1.7102,-1.6475,-1.5815,-1.5213,-1.4628,-1.4124,-1.3879,-1.3824,-1.3753,-1.3518,-1.3469,-1.3387,-1.3147,-1.3104,-1.306,-1.2995,-1.2973,-1.3716,-1.5821,-1.6069,-1.6069,-1.6069,-1.5983,-1.5888,-1.5888,-1.4724,-1.3322,-1.175,-1.1663,-1.1663,-1.1648,-1.1663,-1.1663,-1.1648,-1.0629,-0.9318,-0.7713,-0.7709,-0.7709,-0.7713,-0.7713,-0.7713,-1.6415,-1.7433,-1.8375,-1.9271,-2.0139,-2.0804,-2.1014,-2.1211,-2.1285,-2.098,-2.0594,-2.0241,-1.9997,-1.9908,-1.9942,-2.0139,-2.0505,-2.0804,-2.0912,-2.0967,-2.0878,-2.0505,-2.0031,-1.9657,-1.9447,-1.9291,-1.9345,-1.9712,-1.9963,-2.0153,-2.0241,-2.0349,-2.0397,-2.0397,-2.0397,-2.0397,-2.0397,-2.0153,-2.0031,-2.001,-1.9786,-1.9725,-1.9725,-1.9725,-1.9739,-1.9732,-1.9258,-1.8819,-1.843,-1.7898,-1.7459,-1.7008,-1.6945,-1.681,-1.6686,-1.655,-1.6367,-1.6541,-1.8181,-1.882,-1.8762,-1.8708,-1.862,-1.8454,-1.8409,-1.8247,-1.8077,-1.8078,-1.7846,-1.7403,-1.6612,-1.526,-1.3906,-1.2942,-1.1691,-1.0574,-1.04,-1.0376,-1.0339,-1.0167,-1.0094,-0.998,-0.9919,-0.9758,-0.9653,-0.9661,-1.1513,-1.3173,-1.3878,-1.3978,-1.3978,-1.3978,-1.3865,-1.3789,-1.3789,-1.2341,-1.0901,-0.9626,-0.9196,-0.9151,-0.9529,-0.9196,-0.92,-0.9529,-0.812,-0.6805,-0.5632,-0.5632,-0.5632,-0.5632,-0.5632,-0.5632,-1.7209,-1.8247,-1.9203,-1.9997,-2.0756,-2.1333,-2.1496,-2.1672,-2.1652,-2.1089,-2.0526,-2.0064,-1.982,-1.9732,-1.982,-2.0187,-2.0716,-2.1109,-2.1231,-2.1245,-2.1123,-2.076,-2.0349,-1.9942,-1.9624,-1.9393,-1.9345,-1.9488,-1.9732,-1.9976,-2.0178,-2.0374,-2.0476,-2.0476,-2.0476,-2.0476,-2.0476,-2.0241,-2.0064,-2.001,-1.982,-1.9827,-1.982,-1.9766,-1.9793,-1.9732,-1.8758,-1.769,-1.6582,-1.5684,-1.4628,-1.3579,-1.3531,-1.3431,-1.3337,-1.3202,-1.3117,-1.3436,-1.6425,-1.742,-1.742,-1.742,-1.7357,-1.7217,-1.7167,-1.7042,-1.6865,-1.6815,-1.6638,-1.6096,-1.4847,-1.3242,-1.1672,-1.0357,-0.8811,-0.7589,-0.7473,-0.744,-0.7408,-0.7287,-0.7241,-0.7153,-0.713,-0.6989,-0.6846,-0.6833,-0.8644,-1.0297,-1.1063,-1.1159,-1.1159,-1.1159,-1.1052,-1.1015,-1.1015,-0.9617,-0.825,-0.6966,-0.658,-0.653,-0.6867,-0.655,-0.6564,-0.6902,-0.5488,-0.4195,-0.2938,-0.2938,-0.2933,-0.2973,-0.2973,-0.2973,-1.7968,-1.9047,-2.0085,-2.0668,-2.1143,-2.1509,-2.1652,-2.1686,-2.1462,-2.0682,-1.986,-1.9345,-1.9203,-1.904,-1.9203,-1.9963,-2.0716,-2.1319,-2.1638,-2.1672,-2.1564,-2.1265,-2.098,-2.056,-1.9976,-1.9624,-1.9319,-1.9131,-1.9239,-1.9516,-1.9892,-2.0187,-2.0278,-2.0278,-2.0278,-2.0278,-2.0278,-2.0004,-1.9838,-1.9683,-1.9683,-1.9751,-1.9892,-1.9737,-1.9683,-1.9602,-1.8112,-1.6332,-1.442,-1.3112,-1.1359,-0.9582,-0.9571,-0.9494,-0.9433,-0.9373,-0.9323,-0.9734,-1.3256,-1.4607,-1.4724,-1.4724,-1.4724,-1.4713,-1.4591,-1.4479,-1.4356,-1.4188,-1.4066,-1.3586,-1.1857,-1.0448,-0.9111,-0.7384,-0.6004,-0.5073,-0.4973,-0.4932,-0.4893,-0.4851,-0.4843,-0.4829,-0.4734,-0.464,-0.4547,-0.4555,-0.4549,-0.5344,-0.755,-0.7841,-0.7841,-0.7841,-0.7841,-0.7841,-0.7841,-0.6841,-0.5585,-0.4026,-0.388,-0.388,-0.3926,-0.3915,-0.3885,-0.3929,-0.2887,-0.1549,0.0,0.0,0.0,0.0,0.0,0.0,-1.9027,-2.0051,-2.0933,-2.1211,-2.1597,-2.1916,-2.1848,-2.1828,-2.155,-2.058,-1.961,-1.8884,-1.8728,-1.8586,-1.8816,-1.9766,-2.0648,-2.1319,-2.1638,-2.1672,-2.1705,-2.1564,-2.1285,-2.0946,-2.058,-1.9976,-1.9205,-1.8222,-1.8111,-1.8021,-1.7895,-1.7661,-1.7535,-1.7535,-1.7535,-1.7535,-1.7535,-1.7321,-1.7125,-1.6906,-1.6906,-1.6871,-1.6813,-1.6784,-1.6767,-1.6645,-1.4832,-1.3217,-1.1678,-0.9876,-0.8253,-0.6874,-0.6819,-0.6823,-0.6774,-0.6672,-0.6594,-0.6699,-0.7694,-0.9211,-1.0844,-1.0844,-1.0844,-1.0844,-1.0766,-1.071,-1.0589,-1.0512,-1.0391,-0.9999,-0.8668,-0.707,-0.5486,-0.4163,-0.2579,-0.1357,-0.1354,-0.1344,-0.1335,-0.1279,-0.1278,-0.1275,-0.1264,-0.126,-0.1199,-0.1231,-0.1228,-0.2294,-0.5244,-0.564,-0.564,-0.564,-0.564,-0.564,-0.564,-0.4636,-0.3682,-0.2874,-0.2422,-0.2372,-0.2773,-0.2444,-0.2405,-0.2813,-0.1756,-0.0827,0.0,0.0,0.0,0.0,0.0,0.0,-1.9664,-2.056,-2.1353,-2.1509,-2.1774,-2.195,-2.174,-2.1475,-2.1001,-1.9963,-1.8905,-1.8089,-1.7728,-1.7419,-1.746,-1.8211,-1.8905,-1.9421,-1.9648,-1.9729,-1.9742,-1.968,-1.9468,-1.9198,-1.8987,-1.8552,-1.7574,-1.5896,-1.6015,-1.5894,-1.5316,-1.4331,-1.3806,-1.3806,-1.3806,-1.3729,-1.362,-1.3561,-1.3457,-1.3365,-1.3303,-1.3333,-1.3345,-1.3238,-1.3215,-1.3153,-1.1391,-0.972,-0.8112,-0.6439,-0.476,-0.3333,-0.3246,-0.3279,-0.3256,-0.3182,-0.3117,-0.3117,-0.3117,-0.4055,-0.5576,-0.7217,-0.7747,-0.7747,-0.7747,-0.7679,-0.7552,-0.7552,-0.7457,-0.7081,-0.5912,-0.4644,-0.3391,-0.2172,-0.0937,0.0,0.0,0.0,0.0,0.0,0.0,0.0,0.0,0.0,0.0,0.0,0.0,-0.0671,-0.2454,-0.2686,-0.2672,-0.2672,-0.2672,-0.2672,-0.2672,-0.212,-0.1665,-0.1363,-0.106,-0.101,-0.1313,-0.1074,-0.103,-0.1339,-0.073,-0.0313,0.0,0.0,0.0,0.0,0.0,0.0,-2.0139,-2.0878,-2.1497,-2.1672,-2.1815,-2.1815,-2.1441,-2.0814,-2.0119,-1.9061,-1.7989,-1.7049,-1.6507,-1.5863,-1.5476,-1.5717,-1.5992,-1.6196,-1.6293,-1.6371,-1.6402,-1.6293,-1.6173,-1.6008,-1.5827,-1.5757,-1.4826,-1.2726,-1.2885,-1.285,-1.2278,-1.0649,-0.9762,-0.9762,-0.9762,-0.9666,-0.9481,-0.9545,-0.9566,-0.9555,-0.9493,-0.9539,-0.971,-0.9527,-0.9494,-0.9432,-0.8017,-0.6339,-0.455,-0.3241,-0.1642,0.0,0.0,0.0,0.0,0.0,0.0,0.0,0.0,0.0,-0.053,-0.3823,-0.4879,-0.4879,-0.4879,-0.4797,-0.4766,-0.4766,-0.4712,-0.4427,-0.3405,-0.2708,-0.2075,-0.101,-0.039,0.0,0.0,0.0,0.0,0.0,0.0,0.0,0.0,0.0,0.0,0.0,0.0,0.0,0.0,0.0,0.0,0.0,0.0,0.0,0.0,0.0,0.0,0.0,0.0,0.0,0.0,0.0,0.0,0.0,0.0,0.0,0.0,0.0,0.0,0.0,0.0,0.0,-2.0967,-2.1496,-2.1971,-2.1862,-2.195,-2.1862,-2.1068,-2.0329,-1.9488,-1.8301,-1.7127,-1.6117,-1.5488,-1.403,-1.2967,-1.3046,-1.2266,-1.1735,-1.1943,-1.1977,-1.2011,-1.1991,-1.1848,-1.178,-1.1712,-1.1595,-1.09,-0.9441,-0.7703,-0.7364,-0.8853,-0.7649,-0.6888,-0.6888,-0.6888,-0.6883,-0.6876,-0.6876,-0.6831,-0.68,-0.6737,-0.6696,-0.6676,-0.6607,-0.6603,-0.6541,-0.5181,-0.4127,-0.3202,-0.1909,-0.0797,0.0,0.0,0.0,0.0,0.0,0.0,0.0,0.0,0.0,-0.0118,-0.0766,-0.1,-0.1,-0.1,-0.0936,-0.0931,-0.0931,-0.092,-0.0909,-0.0682,-0.0565,-0.0393,-0.0224,-0.0056,0.0,0.0,0.0,0.0,0.0,0.0,0.0,0.0,0.0,0.0,0.0,0.0,0.0,0.0,0.0,0.0,0.0,0.0,0.0,0.0,0.0,0.0,0.0,0.0,0.0,0.0,0.0,0.0,0.0,0.0,0.0,0.0,0.0,0.0,0.0,0.0,0.0,-1.9691,-1.975,-1.9791,-1.9584,-1.9542,-1.9273,-1.853,-1.772,-1.6846,-1.5948,-1.4974,-1.3976,-1.2922,-1.156,-1.0413,-0.9812,-0.8915,-0.8351,-0.8445,-0.8479,-0.8488,-0.8459,-0.8416,-0.8374,-0.8398,-0.839,-0.7859,-0.6452,-0.4922,-0.4537,-0.5446,-0.3873,-0.2966,-0.2966,-0.2966,-0.2966,-0.2966,-0.2966,-0.2944,-0.2901,-0.2901,-0.2878,-0.2838,-0.2838,-0.2831,-0.282,-0.2146,-0.1714,-0.1402,-0.0735,-0.0305,0.0,0.0,0.0,0.0,0.0,0.0,0.0,0.0,0.0,0.0,0.0,0.0,0.0,0.0,0.0,0.0,0.0,0.0,0.0,0.0,0.0,0.0,0.0,0.0,0.0,0.0,0.0,0.0,0.0,0.0,0.0,0.0,0.0,0.0,0.0,0.0,0.0,0.0,0.0,0.0,0.0,0.0,0.0,0.0,0.0,0.0,0.0,0.0,0.0,0.0,0.0,0.0,0.0,0.0,0.0,0.0,0.0,0.0,0.0,0.0,0.0,-1.7529,-1.6873,-1.6227,-1.6093,-1.5887,-1.5563,-1.4903,-1.4079,-1.3276,-1.267,-1.1943,-1.1037,-0.979,-0.8611,-0.7504,-0.6488,-0.5514,-0.4921,-0.4907,-0.489,-0.4915,-0.4901,-0.4888,-0.4909,-0.4968,-0.5018,-0.4612,-0.3461,-0.2816,-0.2514,-0.2412,-0.0908,0.0,0.0,0.0,0.0,0.0,0.0,0.0,0.0,0.0,0.0,0.0,0.0,0.0,0.0,0.0,0.0,0.0,0.0,0.0,0.0,0.0,0.0,0.0,0.0,0.0,0.0,0.0,0.0,0.0,0.0,0.0,0.0,0.0,0.0,0.0,0.0,0.0,0.0,0.0,0.0,0.0,0.0,0.0,0.0,0.0,0.0,0.0,0.0,0.0,0.0,0.0,0.0,0.0,0.0,0.0,0.0,0.0,0.0,0.0,0.0,0.0,0.0,0.0,0.0,0.0,0.0,0.0,0.0,0.0,0.0,0.0,0.0,0.0,0.0,0.0,0.0,0.0,0.0,0.0,0.0,-1.4919,-1.3242,-1.178,-1.1543,-1.15,-1.1299,-1.0524,-0.9869,-0.9236,-0.8647,-0.8016,-0.739,-0.6647,-0.5169,-0.3887,-0.3129,-0.1671,-0.0595,-0.0543,-0.0602,-0.0602,-0.0549,-0.0551,-0.056,-0.058,-0.0597,-0.0539,-0.0404,-0.0335,-0.0265,-0.0261,-0.013,0.0,0.0,0.0,0.0,0.0,0.0,0.0,0.0,0.0,0.0,0.0,0.0,0.0,0.0,0.0,0.0,0.0,0.0,0.0,0.0,0.0,0.0,0.0,0.0,0.0,0.0,0.0,0.0,0.0,0.0,0.0,0.0,0.0,0.0,0.0,0.0,0.0,0.0,0.0,0.0,0.0,0.0,0.0,0.0,0.0,0.0,0.0,0.0,0.0,0.0,0.0,0.0,0.0,0.0,0.0,0.0,0.0,0.0,0.0,0.0,0.0,0.0,0.0,0.0,0.0,0.0,0.0,0.0,0.0,0.0,0.0,0.0,0.0,0.0,0.0,0.0,0.0,0.0,0.0,0.0,-1.1238,-0.9708,-0.8479,-0.8311,-0.8187,-0.7938,-0.742,-0.694,-0.6494,-0.6146,-0.5812,-0.5341,-0.4476,-0.3468,-0.2508,-0.1639,-0.0663,0.0,0.0,0.0,0.0,0.0,0.0,0.0,0.0,0.0,0.0,0.0,0.0,0.0,0.0,0.0,0.0,0.0,0.0,0.0,0.0,0.0,0.0,0.0,0.0,0.0,0.0,0.0,0.0,0.0,0.0,0.0,0.0,0.0,0.0,0.0,0.0,0.0,0.0,0.0,0.0,0.0,0.0,0.0,0.0,0.0,0.0,0.0,0.0,0.0,0.0,0.0,0.0,0.0,0.0,0.0,0.0,0.0,0.0,0.0,0.0,0.0,0.0,0.0,0.0,0.0,0.0,0.0,0.0,0.0,0.0,0.0,0.0,0.0,0.0,0.0,0.0,0.0,0.0,0.0,0.0,0.0,0.0,0.0,0.0,0.0,0.0,0.0,0.0,0.0,0.0,0.0,0.0,0.0,0.0,0.0,-0.7406,-0.5888,-0.4668,-0.4598,-0.4495,-0.4304,-0.4014,-0.376,-0.3563,-0.3434,-0.3324,-0.3007,-0.2308,-0.1889,-0.1379,-0.0663,-0.0265,0.0,0.0,0.0,0.0,0.0,0.0,0.0,0.0,0.0,0.0,0.0,0.0,0.0,0.0,0.0,0.0,0.0,0.0,0.0,0.0,0.0,0.0,0.0,0.0,0.0,0.0,0.0,0.0,0.0,0.0,0.0,0.0,0.0,0.0,0.0,0.0,0.0,0.0,0.0,0.0,0.0,0.0,0.0,0.0,0.0,0.0,0.0,0.0,0.0,0.0,0.0,0.0,0.0,0.0,0.0,0.0,0.0,0.0,0.0,0.0,0.0,0.0,0.0,0.0,0.0,0.0,0.0,0.0,0.0,0.0,0.0,0.0,0.0,0.0,0.0,0.0,0.0,0.0,0.0,0.0,0.0,0.0,0.0,0.0,0.0,0.0,0.0,0.0,0.0,0.0,0.0,0.0,0.0,0.0,0.0,-0.3611,-0.1681,-0.0069,-0.0065,-0.0062,-0.0059,-0.0056,-0.0052,-0.0049,-0.0048,-0.0048,-0.0048,-0.0048,-0.0048,0.0,0.0,0.0,0.0,0.0,0.0,0.0,0.0,0.0,0.0,0.0,0.0,0.0,0.0,0.0,0.0,0.0,0.0,0.0,0.0,0.0,0.0,0.0,0.0,0.0,0.0,0.0,0.0,0.0,0.0,0.0,0.0,0.0,0.0,0.0,0.0,0.0,0.0,0.0,0.0,0.0,0.0,0.0,0.0,0.0,0.0,0.0,0.0,0.0,0.0,0.0,0.0,0.0,0.0,0.0,0.0,0.0,0.0,0.0,0.0,0.0,0.0,0.0,0.0,0.0,0.0,0.0,0.0,0.0,0.0,0.0,0.0,0.0,0.0,0.0,0.0,0.0,0.0,0.0,0.0,0.0,0.0,0.0,0.0,0.0,0.0,0.0,0.0,0.0,0.0,0.0,0.0,0.0,0.0,0.0,0.0,0.0,0.0,-0.2,-0.0885,0.0,0.0,0.0,0.0,0.0,0.0,0.0,0.0,0.0,0.0,0.0,0.0,0.0,0.0,0.0,0.0,0.0,0.0,0.0,0.0,0.0,0.0,0.0,0.0,0.0,0.0,0.0,0.0,0.0,0.0,0.0,0.0,0.0,0.0,0.0,0.0,0.0,0.0,0.0,0.0,0.0,0.0,0.0,0.0,0.0,0.0,0.0,0.0,0.0,0.0,0.0,0.0,0.0,0.0,0.0,0.0,0.0,0.0,0.0,0.0,0.0,0.0,0.0,0.0,0.0,0.0,0.0,0.0,0.0,0.0,0.0,0.0,0.0,0.0,0.0,0.0,0.0,0.0,0.0,0.0,0.0,0.0,0.0,0.0,0.0,0.0,0.0,0.0,0.0,0.0,0.0,0.0,0.0,0.0,0.0,0.0,0.0,0.0,0.0,0.0,0.0,0.0,0.0,0.0,0.0,0.0,0.0,0.0,0.0,0.0,-0.0796,-0.0298,0.0,0.0,0.0,0.0,0.0,0.0,0.0,0.0,0.0,0.0,0.0,0.0,0.0,0.0,0.0,0.0,0.0,0.0,0.0,0.0,0.0,0.0,0.0,0.0,0.0,0.0,0.0,0.0,0.0,0.0,0.0,0.0,0.0,0.0,0.0,0.0,0.0,0.0,0.0,0.0,0.0,0.0,0.0,0.0,0.0,0.0,0.0,0.0,0.0,0.0,0.0,0.0,0.0,0.0,0.0,0.0,0.0,0.0,0.0,0.0,0.0,0.0,0.0,0.0,0.0,0.0,0.0,0.0,0.0,0.0,0.0,0.0,0.0,0.0,0.0,0.0,0.0,0.0,0.0,0.0,0.0,0.0,0.0,0.0,0.0,0.0,0.0,0.0,0.0,0.0,0.0,0.0,0.0,0.0,0.0,0.0,0.0,0.0,0.0,0.0,0.0,0.0,0.0,0.0,0.0,0.0,0.0,0.0,0.0,0.0,0.0,0.0,0.0,0.0,0.0,0.0,0.0,0.0,0.0,0.0,0.0,0.0,0.0,0.0,0.0,0.0,0.0,0.0,0.0,0.0,0.0,0.0,0.0,0.0,0.0,0.0,0.0,0.0,0.0,0.0,0.0,0.0,0.0,0.0,0.0,0.0,0.0,0.0,0.0,0.0,0.0,0.0,0.0,0.0,0.0,0.0,0.0,0.0,0.0,0.0,0.0,0.0,0.0,0.0,0.0,0.0,0.0,0.0,0.0,0.0,0.0,0.0,0.0,0.0,0.0,0.0,0.0,0.0,0.0,0.0,0.0,0.0,0.0,0.0,0.0,0.0,0.0,0.0,0.0,0.0,0.0,0.0,0.0,0.0,0.0,0.0,0.0,0.0,0.0,0.0,0.0,0.0,0.0,0.0,0.0,0.0,0.0,0.0,0.0,0.0,0.0,0.0,0.0,0.0,0.0,0.0,0.0,0.0,0.0,0.0,0.0,0.0,0.0,0.0,0.0,0.0,0.0,0.0,0.0,0.0,0.0,0.0,0.0,0.0,0.0,0.0,0.0,0.0,0.0,0.0,0.0,0.0,0.0,0.0,0.0,0.0,0.0,0.0,0.0,0.0,0.0,0.0,0.0,0.0,0.0,0.0,0.0,0.0,0.0,0.0,0.0,0.0,0.0,0.0,0.0,0.0,0.0,0.0,0.0,0.0,0.0,0.0,0.0,0.0,0.0,0.0,0.0,0.0,0.0,0.0,0.0,0.0,0.0,0.0,0.0,0.0,0.0,0.0,0.0,0.0,0.0,0.0,0.0,0.0,0.0,0.0,0.0,0.0,0.0,0.0,0.0,0.0,0.0,0.0,0.0,0.0,0.0,0.0,0.0,0.0,0.0,0.0,0.0,0.0,0.0,0.0,0.0,0.0,0.0,0.0,0.0,0.0,0.0,0.0,0.0,0.0,0.0,0.0,0.0,0.0,0.0,0.0,0.0,0.0,0.0,0.0,0.0,0.0,0.0,0.0,0.0,0.0,0.0,0.0,0.0,0.0,0.0,0.0,0.0,0.0,0.0,0.0,0.0,0.0,0.0,0.0,0.0,0.0,0.0,0.0,0.0,0.0,0.0,0.0,0.0,0.0,0.0,0.0,0.0,0.0,0.0,0.0,0.0,0.0,0.0,0.0,0.0,0.0,0.0,0.0,0.0,0.0,0.0,0.0,0.0,0.0,0.0,0.0,0.0,0.0,0.0,0.0,0.0,0.0,0.0,0.0,0.0,0.0,0.0,0.0,0.0,0.0,0.0,0.0,0.0,0.0,0.0,0.0,0.0,0.0,0.0,0.0,0.0,0.0,0.0,0.0,0.0,0.0,0.0,0.0,0.0,0.0,0.0,0.0,0.0,0.0,0.0,0.0,0.0,0.0,0.0,0.0,0.0,0.0,0.0,0.0,0.0,0.0,0.0,0.0,0.0,0.0,0.0,0.0,0.0,0.0,0.0,0.0,0.0,0.0,0.0,0.0,0.0,0.0,0.0,0.0,0.0,0.0,0.0,0.0,0.0,0.0,0.0,0.0,0.0,0.0,0.0,0.0,0.0,0.0,0.0,0.0,0.0,0.0,0.0,0.0,0.0,0.0,0.0,0.0,0.0,0.0,0.0,0.0,0.0,0.0,0.0,0.0,0.0,0.0,0.0,0.0,0.0,0.0,0.0,0.0,0.0,0.0,0.0,0.0,0.0,0.0,0.0,0.0,0.0,0.0,0.0,0.0,0.0,0.0,0.0,0.0,0.0,0.0,0.0,0.0,0.0,0.0,0.0,0.0,0.0,0.0,0.0,0.0,0.0,0.0,0.0,0.0,0.0,0.0,0.0,0.0,0.0,0.0,0.0,0.0,0.0,0.0,0.0,0.0,0.0,0.0,0.0,0.0,0.0,0.0,0.0,0.0,0.0,0.0,0.0,0.0,0.0,0.0,0.0,0.0,0.0,0.0,0.0,0.0,0.0,0.0,0.0,0.0,0.0,0.0,0.0,0.0,0.0,0.0,0.0,0.0,0.0,0.0,0.0,0.0,0.0,0.0,0.0,0.0,0.0,0.0,0.0,0.0,0.0,0.0,0.0,0.0,0.0,0.0,0.0,0.0,0.0,0.0,0.0,0.0,0.0,0.0,0.0,0.0,0.0,0.0,0.0,0.0,0.0,0.0,0.0,0.0,0.0,0.0,0.0,0.0,0.0,0.0,0.0,0.0,0.0,0.0,0.0,0.0,0.0,0.0,0.0,0.0,0.0,0.0,0.0,0.0,0.0,0.0,0.0,0.0,0.0,0.0,0.0,0.0,0.0,0.0,0.0,0.0,0.0,0.0,0.0,0.0,0.0,0.0,0.0,0.0,0.0,0.0,0.0,0.0,0.0,0.0,0.0,0.0,0.0,0.0,0.0,0.0,0.0,0.0,0.0,0.0,0.0,0.0,0.0,0.0,0.0,0.0,0.0,0.0,0.0,0.0,0.0,0.0,0.0,0.0,0.0,0.0,0.0,0.0,0.0,0.0,0.0,0.0,0.0,0.0,0.0,0.0,0.0,0.0,0.0,0.0,0.0,0.0,0.0,0.0,0.0,0.0,0.0,0.0,0.0,0.0,0.0,0.0,0.0,0.0,0.0,0.0,0.0,0.0,0.0,0.0,0.0,0.0,0.0,0.0,0.0,0.0,0.0,0.0,0.0,0.0,0.0,0.0,0.0,0.0,0.0,0.0,0.0,0.0,0.0,0.0,0.0,0.0,0.0,0.0,0.0,0.0,0.0,0.0,0.0,0.0,0.0,0.0,0.0,0.0,0.0,0.0,0.0,0.0,0.0,0.0,0.0,0.0,0.0,0.0,0.0,0.0,0.0,0.0,0.0,0.0,0.0,0.0,0.0,0.0,0.0,0.0,0.0,0.0,0.0,0.0,0.0,0.0,0.0,0.0,0.0,0.0,0.0,0.0,0.0,0.0,0.0,0.0,0.0,0.0,0.0,0.0,0.0,0.0,0.0,0.0,0.0,0.0,0.0,0.0,0.0,0.0,0.0,0.0,0.0,0.0,0.0,0.0,0.0,0.0,0.0,0.0,0.0,0.0,0.0,0.0,0.0,0.0,0.0,0.0,0.0,0.0,0.0,0.0,0.0,0.0,0.0,0.0,0.0,0.0,0.0,0.0,0.0,0.0,0.0,0.0,0.0,0.0,0.0,0.0,0.0,0.0,0.0,0.0,0.0,0.0,0.0,0.0,0.0,0.0,0.0,0.0,0.0,0.0,0.0,0.0,0.0,0.0,0.0,0.0,0.0,0.0,0.0,0.0,0.0,0.0,0.0,0.0,0.0,0.0,0.0,0.0,0.0,0.0,0.0,0.0,0.0,0.0,0.0,0.0,0.0,0.0,0.0,0.0,0.0,0.0,0.0,0.0,0.0,0.0,0.0,0.0,0.0,0.0,0.0,0.0,0.0,0.0,0.0,0.0,0.0,0.0,0.0,0.0,0.0,0.0,0.0,0.0,0.0,0.0,0.0,0.0,0.0,0.0,0.0,0.0,0.0,0.0,0.0,0.0,0.0,0.0,0.0,0.0,0.0,0.0,0.0,0.0,0.0,0.0,0.0,0.0,0.0,0.0,0.0,0.0,0.0,0.0,0.0,0.0,0.0,0.0,0.0,0.0,0.0,0.0,0.0,0.0,0.0,0.0,0.0,0.0,0.0,0.0,0.0,0.0,0.0,0.0,0.0,0.0,0.0,0.0,0.0,0.0,0.0,0.0,0.0,0.0,0.0,0.0,0.0,0.0,0.0,0.0,0.0,0.0,0.0,0.0,0.0,0.0,0.0,0.0,0.0,0.0,0.0,0.0,0.0,0.0,0.0,0.0,0.0,0.0,0.0,0.0,0.0,0.0,0.0,0.0,0.0,0.0,0.0,0.0,0.0,0.0,0.0,0.0,0.0,0.0,0.0,0.0,0.0,0.0,0.0,0.0,0.0,0.0,0.0,0.0,0.0,0.0,0.0,0.0,0.0,0.0,0.0,0.0,0.0,0.0,0.0,0.0,0.0,0.0,0.0,0.0,0.0,0.0,0.0,0.0,0.0,0.0,0.0,0.0,0.0,0.0,0.0,0.0,0.0,0.0,0.0,0.0,0.0,0.0,0.0,0.0,0.0,0.0,0.0,0.0,0.0,0.0,0.0,0.0,0.0,0.0,0.0,0.0,0.0,0.0,0.0,0.0,0.0,0.0,0.0,0.0,0.0,0.0,0.0,0.0,0.0,0.0,0.0,0.0,0.0,0.0,0.0,0.0,0.0,0.0,0.0,0.0,0.0,0.0,0.0,0.0,0.0,0.0,0.0,0.0,0.0,0.0,0.0,0.0,0.0,0.0,0.0,0.0,0.0,0.0,0.0,0.0,0.0,0.0,0.0,0.0,0.0,0.0,0.0,0.0,0.0,0.0,0.0,0.0,0.0,0.0,0.0,0.0,0.0,0.0,0.0,0.0,0.0,0.0,0.0,0.0,0.0,0.0,0.0,0.0,0.0,0.0,0.0,0.0,0.0,0.0,0.0,0.0,0.0,0.0,0.0,0.0,0.0,0.0,0.0,0.0,0.0,0.0,0.0,0.0,0.0,0.0,0.0,0.0,0.0,0.0,0.0,0.0,0.0,0.0,0.0,0.0,0.0,0.0,0.0,0.0,0.0,0.0,0.0,0.0,0.0,0.0,0.0,0.0,0.0,0.0,0.0,0.0,0.0,0.0,0.0,0.0,0.0,0.0,0.0,0.0,0.0,0.0,0.0,0.0,0.0,0.0,0.0,0.0,0.0,0.0,0.0,0.0,0.0,0.0,0.0,0.0,0.0,0.0,0.0,0.0,0.0,0.0,0.0,0.0,0.0,0.0,0.0,0.0,0.0,0.0,0.0,0.0,0.0,0.0,0.0,0.0,0.0,0.0,0.0,0.0,0.0,0.0,0.0,0.0,0.0,0.0,0.0,0.0,0.0,0.0,0.0,0.0,0.0,0.0,0.0,0.0,0.0,0.0,0.0,0.0,0.0,0.0,0.0,0.0,0.0,0.0,0.0,0.0,0.0,0.0,0.0,0.0,0.0,0.0,0.0,0.0,0.0,0.0,0.0,0.0,0.0,0.0,0.0,0.0,0.0,0.0,0.0,0.0,0.0,0.0,0.0,0.0,0.0,0.0,0.0,0.0,0.0,0.0,0.0,0.0,0.0,0.0,0.0,0.0,0.0,0.0,0.0,0.0,0.0,0.0,0.0,0.0,0.0,0.0,0.0,0.0,0.0,0.0,0.0,0.0,0.0,0.0,0.0,0.0,0.0,0.0,0.0,0.0,0.0,0.0,0.0,0.0,0.0,0.0,0.0,0.0,0.0,0.0,0.0,0.0,0.0,0.0,0.0,0.0,0.0,0.0,0.0,0.0,0.0,0.0,0.0,0.0,0.0,0.0,0.0,0.0,0.0,0.0,0.0,0.0,0.0,0.0,0.0,0.0,0.0,0.0,0.0,0.0,0.0,0.0,0.0,0.0,0.0,0.0,0.0,0.0,0.0,0.0,0.0,0.0,0.0,0.0,0.0,0.0,0.0,0.0,0.0,0.0,0.0,0.0,0.0,0.0,0.0,0.0,0.0,0.0,0.0,0.0,0.0,0.0,0.0,0.0,0.0,0.0,0.0,0.0,0.0,0.0,0.0,0.0,0.0,0.0,0.0,0.0,0.0,0.0,0.0,0.0,0.0,0.0,0.0,0.0,0.0,0.0,0.0,0.0,0.0,0.0,0.0,0.0,0.0,0.0,0.0,0.0,0.0,0.0,0.0,0.0,0.0,0.0,0.0,0.0,0.0,0.0,0.0,0.0,0.0,0.0,0.0,0.0,0.0,0.0,0.0,0.0,0.0,0.0,0.0,0.0,0.0,0.0,0.0,0.0,0.0,0.0,0.0,0.0,0.0,0.0,0.0,0.0,0.0,0.0,0.0,0.0,0.0,0.0,0.0,0.0,0.0,0.0,0.0,0.0,0.0,0.0,0.0,0.0,0.0,0.0,0.0,0.0,0.0,0.0,0.0,0.0,0.0,0.0,0.0,0.0,0.0,0.0,0.0,0.0,0.0,0.0,0.0,0.0,0.0,0.0,0.0,0.0,0.0,0.0,0.0,0.0,0.0,0.0,0.0,0.0,0.0,0.0,0.0,0.0,0.0,0.0,0.0,0.0,0.0,0.0,0.0,0.0,0.0,0.0,0.0,0.0,0.0,0.0,0.0,0.0,0.0,0.0,0.0,0.0,0.0,0.0,0.0,0.0,0.0,0.0,0.0,0.0,0.0,0.0,0.0,0.0,0.0,0.0,0.0,0.0,0.0,0.0,0.0,0.0,0.0,0.0,0.0,0.0,0.0,0.0,0.0,0.0,0.0,0.0,0.0,0.0,0.0,0.0,0.0,0.0,0.0,0.0,0.0,0.0,0.0,0.0,0.0,0.0,0.0,0.0,0.0,0.0,0.0,0.0,0.0,0.0,0.0,0.0,0.0,0.0,0.0,0.0,0.0,0.0,0.0,0.0,0.0,0.0,0.0,0.0,0.0,0.0,0.0,0.0,0.0,0.0,0.0,0.0,0.0,0.0,0.0,0.0,0.0,0.0,0.0,0.0,0.0,0.0,0.0,0.0,0.0,0.0,0.0,0.0,0.0,0.0,0.0,0.0,0.0,0.0,0.0,0.0,0.0,0.0,0.0,0.0,0.0,0.0,0.0,0.0,0.0,0.0,0.0,0.0,0.0,0.0,0.0,0.0,0.0,0.0,0.0,0.0,0.0,0.0,0.0,0.0,0.0,0.0,0.0,0.0,0.0,0.0,0.0,0.0,0.0,0.0,0.0,0.0,0.0,0.0,0.0,0.0,0.0,0.0,0.0,0.0,0.0,0.0,0.0,0.0,0.0,0.0,0.0,0.0,0.0,0.0,0.0,0.0,0.0,0.0,0.0,0.0,0.0,0.0,0.0,0.0,0.0,0.0,0.0,0.0,0.0,0.0,0.0,0.0,0.0,0.0,0.0,0.0,0.0,0.0,0.0,0.0,0.0,0.0,0.0,0.0,0.0,0.0,0.0,0.0,0.0,0.0,0.0,0.0,0.0,0.0,0.0,0.0,0.0,0.0,0.0,0.0,0.0,0.0,0.0,0.0,0.0,0.0,0.0,0.0,0.0,0.0,0.0,0.0,0.0,0.0,0.0,0.0,0.0,0.0,0.0,0.0,0.0,0.0,0.0,0.0,0.0,0.0,0.0,0.0,0.0,0.0,0.0,0.0,0.0,0.0,0.0,0.0,0.0,0.0,0.0,0.0,0.0,0.0,0.0,0.0,0.0,0.0,0.0,0.0,0.0,0.0,0.0,0.0,0.0,0.0,0.0,0.0,0.0,0.0,0.0,0.0,0.0,0.0,0.0,0.0,0.0,0.0,0.0,0.0,0.0,0.0,0.0,0.0,0.0,0.0,0.0,0.0,0.0,0.0,0.0,0.0,0.0,0.0,0.0,0.0,0.0,0.0,0.0,0.0,0.0,0.0,0.0,0.0,0.0,0.0,0.0,0.0,0.0,0.0,0.0,0.0,0.0,0.0,0.0,0.0,0.0,0.0,0.0,0.0,0.0,0.0,0.0,0.0,0.0,0.0,0.0,0.0,0.0,0.0,0.0,0.0,0.0,0.0,0.0,0.0,0.0,0.0,0.0,0.0,0.0,0.0,0.0,0.0,0.0,0.0,0.0,0.0,0.0,0.0,0.0,0.0,0.0,0.0,0.0,0.0,0.0,0.0,0.0,0.0,0.0,0.0,0.0,0.0,0.0,0.0,0.0,0.0,0.0,0.0,0.0,0.0,0.0,0.0,0.0,0.0,0.0,0.0,0.0,0.0,0.0,0.0,0.0,0.0,0.0,0.0,0.0,0.0,0.0,0.0,0.0,0.0,0.0,0.0,0.0,0.0,0.0,0.0,0.0,0.0,0.0,0.0,0.0,0.0,0.0,0.0,0.0,0.0,0.0,0.0,0.0,0.0,0.0,0.0,0.0,0.0,0.0,0.0,0.0,0.0,0.0,0.0,0.0,0.0,0.0,0.0,0.0,0.0,0.0,0.0,0.0,0.0,0.0,0.0,0.0,0.0,0.0,0.0,0.0,0.0,0.0,0.0,0.0,0.0,0.0,0.0,0.0,0.0,0.0,0.0,0.0,0.0,0.0,0.0,0.0,0.0,0.0,0.0,0.0,0.0,0.0,0.0,0.0,0.0,0.0,0.0,0.0,0.0,0.0,0.0,0.0,0.0,0.0,0.0,0.0,0.0,0.0,0.0,0.0,0.0,0.0,0.0,0.0,0.0,0.0,0.0,0.0,0.0,0.0,0.0,0.0,0.0,0.0,0.0,0.0,0.0,0.0,0.0,0.0,0.0,0.0,0.0,0.0,0.0,0.0,0.0,0.0,0.0,0.0,0.0,0.0,0.0,0.0,0.0,0.0,0.0,0.0,0.0,0.0,0.0,0.0,0.0,0.0,0.0,0.0,0.0,0.0,0.0,0.0,0.0,0.0,0.0,0.0,0.0,0.0,0.0,0.0,0.0,0.0,0.0,0.0,0.0,0.0,0.0,0.0,0.0,0.0,0.0,0.0,0.0,0.0,0.0,0.0,0.0,0.0,0.0,0.0,0.0,0.0,0.0,0.0,0.0,0.0,0.0,0.0,0.0,0.0,0.0,0.0,0.0,0.0,0.0,0.0,0.0,0.0,0.0,0.0,0.0,0.0,0.0,0.0,0.0,0.0,0.0,0.0,0.0,0.0,0.0,0.0,0.0,0.0,0.0,0.0,0.0,0.0,0.0,0.0,0.0,0.0,0.0,0.0,0.0,0.0,0.0,0.0,0.0,0.0,0.0,0.0,0.0,0.0,0.0,0.0,0.0,0.0,0.0,0.0,0.0,0.0,0.0,0.0,0.0,0.0,0.0,0.0,0.0,0.0,0.0,0.0,0.0,0.0,0.0,0.0,0.0,0.0,0.0,0.0,0.0,0.0,0.0,0.0,0.0,0.0,0.0,0.0,0.0,0.0,0.0,0.0,0.0,0.0,0.0,0.0,0.0,0.0,0.0,0.0,0.0,0.0,0.0,0.0,0.0,0.0,0.0,0.0,0.0,0.0,0.0,0.0,0.0,0.0,0.0,0.0,0.0,0.0,0.0,0.0,0.0,0.0,0.0,0.0,0.0,0.0,0.0,0.0,0.0,0.0,0.0,0.0,0.0,0.0,0.0,0.0,0.0,0.0,0.0,0.0,0.0,0.0,0.0,0.0,0.0,0.0,0.0,0.0,0.0,0.0,0.0,0.0,0.0,0.0,0.0,0.0,0.0,0.0,0.0,0.0,0.0,0.0,0.0,0.0,0.0,0.0,0.0,0.0,0.0,0.0,0.0,0.0,0.0,0.0,0.0,0.0,0.0,0.0,0.0,0.0,0.0,0.0,0.0,0.0,0.0,0.0,0.0,0.0,0.0,0.0,0.0,0.0,0.0,0.0,0.0,0.0,0.0,0.0,0.0,0.0,0.0,0.0,0.0,0.0,0.0,0.0,0.0,0.0,0.0,0.0,0.0,0.0,0.0,0.0,0.0,0.0,0.0,0.0,0.0,0.0,0.0,0.0,0.0,0.0,0.0,0.0,0.0,0.0,0.0,0.0,0.0,0.0,0.0,0.0,0.0,0.0,0.0,0.0,0.0,0.0,0.0,0.0,0.0,0.0,0.0,0.0,0.0,0.0,0.0,0.0,0.0,0.0,0.0,0.0,0.0,0.0,0.0,0.0,0.0,0.0,0.0,0.0,0.0,0.0,0.0,0.0,0.0,0.0,0.0,0.0,0.0,0.0,0.0,0.0,0.0,0.0,0.0,0.0,0.0,0.0,0.0,0.0,0.0,0.0,0.0,0.0,0.0,0.0,0.0,0.0,0.0,0.0,0.0,0.0,0.0,0.0,0.0,0.0,0.0,0.0,0.0,0.0,0.0,0.0,0.0,0.0,0.0,0.0,0.0,0.0,0.0,0.0,0.0,0.0,0.0,0.0,0.0,0.0,0.0,0.0,0.0,0.0,0.0,0.0,0.0,0.0,0.0,0.0,0.0,0.0,0.0,0.0,0.0,0.0,0.0,0.0,0.0,0.0,0.0,0.0,0.0,0.0,0.0,0.0,0.0,0.0,0.0,0.0,0.0,0.0,0.0,0.0,0.0,0.0,0.0,0.0,0.0,0.0,0.0,0.0,0.0,0.0,0.0,0.0,0.0,0.0,0.0,0.0,0.0,0.0,0.0,0.0,0.0,0.0,0.0,0.0,0.0,0.0,0.0,0.0,0.0,0.0,0.0,0.0,0.0,0.0,0.0,0.0,0.0,0.0,0.0,0.0,0.0,0.0,0.0,0.0,0.0,0.0,0.0,0.0,0.0,0.0,0.0,0.0,0.0,0.0,0.0,0.0,0.0,0.0,0.0,0.0,0.0,0.0,0.0,0.0,0.0,0.0,0.0,0.0,0.0,0.0,0.0,0.0,0.0,0.0,0.0,0.0,0.0,0.0,0.0,0.0,0.0,0.0,0.0,0.0,0.0,0.0,0.0,0.0,0.0,0.0,0.0,0.0,0.0,0.0,0.0,0.0,0.0,0.0,0.0,0.0,0.0,0.0,0.0,0.0,0.0,0.0,0.0,0.0,0.0,0.0,0.0,0.0,0.0,0.0,0.0,0.0,0.0,0.0,0.0,0.0,0.0,0.0,0.0,0.0,0.0,0.0,0.0,0.0,0.0,0.0,0.0,0.0,0.0,0.0,0.0,0.0,0.0,0.0,0.0,0.0,0.0,0.0,0.0,0.0,0.0,0.0,0.0,0.0,0.0,0.0,0.0,0.0,0.0,0.0,0.0,0.0,0.0,0.0,0.0,0.0,0.0,0.0,0.0,0.0,0.0,0.0,0.0,0.0,0.0,0.0,0.0,0.0,0.0,0.0,0.0,0.0,0.0,0.0,0.0,0.0,0.0,0.0,0.0,0.0,0.0,0.0,0.0,0.0,0.0,0.0,0.0,0.0,0.0,0.0,0.0,0.0,0.0,0.0,0.0,0.0,0.0,0.0,0.0,0.0,0.0,0.0,0.0,0.0,0.0,0.0,0.0,0.0,0.0,0.0,0.0,0.0,0.0,0.0,0.0,0.0,0.0,0.0,0.0,0.0,0.0,0.0,0.0,0.0,0.0,0.0,0.0,0.0,0.0,0.0,0.0,0.0,0.0,0.0,0.0,0.0,0.0,0.0,0.0,0.0,0.0,0.0,0.0,0.0,0.0,0.0,0.0,0.0,0.0,0.0,0.0,0.0,0.0,0.0,0.0,0.0,0.0,0.0,0.0,0.0,0.0,0.0,0.0,0.0,0.0,0.0,0.0,0.0,0.0,0.0,0.0,0.0,0.0,0.0,0.0,0.0,0.0,0.0,0.0,0.0,0.0,0.0,0.0,0.0,0.0,0.0,0.0,0.0,0.0,0.0,0.0,0.0,0.0,0.0,0.0,0.0,0.0,0.0,0.0,0.0,0.0,0.0,0.0,0.0,0.0,0.0,0.0,0.0,0.0,0.0,0.0,0.0,0.0,0.0,0.0,0.0,0.0,0.0,0.0,0.0,0.0,0.0,0.0,0.0,0.0,0.0,0.0,0.0,0.0,0.0,0.0,0.0,0.0,0.0,0.0,0.0,0.0,0.0,0.0,0.0,0.0,0.0,0.0,0.0,0.0,0.0,0.0,0.0,0.0,0.0,0.0,0.0,0.0,0.0,0.0,0.0,0.0,0.0,0.0,0.0,0.0,0.0,0.0,0.0,0.0,0.0,0.0,0.0,0.0,0.0,0.0,0.0,0.0,0.0,0.0,0.0,0.0,0.0,0.0,0.0,0.0,0.0,0.0,0.0,0.0,0.0,0.0,0.0,0.0,0.0,0.0,0.0,0.0,0.0,0.0,0.0,0.0,0.0,0.0,0.0,0.0,0.0,0.0,0.0,0.0,0.0,0.0,0.0,0.0,0.0,0.0,0.0,0.0,0.0,0.0,0.0,0.0,0.0,0.0,0.0,0.0,0.0,0.0,0.0,0.0,0.0,0.0,0.0,0.0,0.0,0.0,0.0,0.0,0.0,0.0,0.0,0.0,0.0,0.0,0.0,0.0,0.0,0.0,0.0,0.0,0.0,0.0,0.0,0.0,0.0,0.0,0.0,0.0,0.0,0.0,0.0,0.0,0.0,0.0,0.0,0.0,0.0,0.0,0.0,0.0,0.0,0.0,0.0,0.0,0.0,0.0,0.0,0.0,0.0,0.0,0.0,0.0,0.0,0.0,0.0,0.0,0.0,0.0,0.0,0.0,0.0,0.0,0.0,0.0,0.0,0.0,0.0,0.0,0.0,0.0,0.0,0.0,0.0,0.0,0.0,0.0,0.0,0.0,0.0,0.0,0.0,0.0,0.0,0.0,0.0,0.0,0.0,0.0,0.0,0.0,0.0,0.0,0.0,0.0,0.0,0.0,0.0,0.0,0.0,0.0,0.0,0.0,0.0,0.0,0.0,0.0,0.0,0.0,0.0,0.0,0.0,0.0,0.0,0.0,0.0,0.0,0.0,0.0,0.0,0.0,0.0,0.0,0.0,0.0,0.0,0.0,0.0,0.0,0.0,0.0,0.0,0.0,0.0,0.0,0.0,0.0,0.0,0.0,0.0,0.0,0.0,0.0,0.0,0.0,0.0,0.0,0.0,0.0,0.0,0.0,0.0,0.0,0.0,0.0,0.0,0.0,0.0,0.0,0.0,0.0,0.0,0.0,0.0,0.0,0.0,0.0,0.0,0.0,0.0,0.0,0.0,0.0,0.0,0.0,0.0,0.0,0.0,0.0,0.0,0.0,0.0,0.0,0.0,0.0,0.0,0.0,0.0,0.0,0.0,0.0,0.0,0.0,0.0,0.0,0.0,0.0,0.0,0.0,0.0,0.0,0.0,0.0,0.0,0.0,0.0,0.0,0.0,0.0,0.0,0.0,0.0,0.0,0.0,0.0,0.0,0.0,0.0,0.0,0.0,0.0,0.0,0.0,0.0,0.0,0.0,0.0,0.0,0.0,0.0,0.0,0.0,0.0,0.0,0.0,0.0,0.0,0.0,0.0,0.0,0.0,0.0,0.0,0.0,0.0,0.0,0.0,0.0,0.0,0.0,0.0,0.0,0.0,0.0,0.0,0.0,0.0,0.0,0.0,0.0,0.0,0.0,0.0,0.0,0.0,0.0,0.0,0.0,0.0,0.0,0.0,0.0,0.0,0.0,0.0,0.0,0.0,0.0,0.0,0.0,0.0,0.0,0.0,0.0,0.0,0.0,0.0,0.0,0.0,0.0,0.0,0.0,0.0,0.0,0.0,0.0,0.0,0.0,0.0,0.0,0.0,0.0,0.0,0.0,0.0,0.0,0.0,0.0,0.0,0.0,0.0,0.0,0.0,0.0,0.0,0.0,0.0,0.0,0.0,0.0,0.0,0.0,0.0,0.0,0.0,0.0,0.0,0.0,0.0,0.0,0.0,0.0,0.0,0.0,0.0,0.0,0.0,0.0,0.0,0.0,0.0,0.0,0.0,0.0,0.0,0.0,0.0,0.0,0.0,0.0,0.0,0.0,0.0,0.0,0.0,0.0,0.0,0.0,0.0,0.0,0.0,0.0,0.0,0.0,0.0,0.0,0.0,0.0,0.0,0.0,0.0,0.0,0.0,0.0,0.0,0.0,0.0,0.0,0.0,0.0,0.0,0.0,0.0,0.0,0.0,0.0,0.0,0.0,0.0,0.0,0.0,0.0,0.0,0.0,0.0,0.0,0.0,0.0,0.0,0.0,0.0,0.0,0.0,0.0,0.0,0.0,0.0,0.0,0.0,0.0,0.0,0.0,0.0,0.0,0.0,0.0,0.0,0.0,0.0,0.0,0.0,0.0,0.0,0.0,0.0,0.0,0.0,0.0,0.0,0.0,0.0,0.0,0.0,0.0,0.0,0.0,0.0,0.0,0.0,0.0,0.0,0.0,0.0,0.0,0.0,0.0,0.0,0.0,0.0,0.0,0.0,0.0,0.0,0.0,0.0,0.0,0.0,0.0,0.0,0.0,0.0,0.0,0.0,0.0,0.0,0.0,0.0,0.0,0.0,0.0,0.0,0.0,0.0,0.0,0.0,0.0,0.0,0.0,0.0,0.0,0.0,0.0,0.0,0.0,0.0,0.0,0.0,0.0,0.0,0.0,0.0,0.0,0.0,0.0,0.0,0.0,0.0,0.0,0.0,0.0,0.0,0.0,0.0,0.0,0.0,0.0,0.0,0.0,0.0,0.0,0.0,0.0,0.0,0.0,0.0,0.0,0.0,0.0,0.0,0.0,0.0,0.0,0.0,0.0,0.0,0.0,0.0,0.0,0.0,0.0,0.0,0.0,0.0,0.0,0.0,0.0,0.0,0.0,0.0,0.0,0.0,0.0,0.0,0.0,0.0,0.0,0.0,0.0,0.0,0.0,0.0,0.0,0.0,0.0,0.0,0.0,0.0,0.0,0.0,0.0,0.0,0.0,0.0,0.0,0.0,0.0,0.0,0.0,0.0,0.0,0.0,0.0,0.0,0.0,0.0,0.0,0.0,0.0,0.0,0.0,0.0,0.0,0.0,0.0,0.0,0.0,0.0,0.0,0.0,0.0,0.0,0.0,0.0,0.0,0.0,0.0,0.0,0.0,0.0,0.0,0.0,0.0,0.0,0.0,0.0,0.0,0.0,0.0,0.0,0.0,0.0,0.0,0.0,0.0,0.0,0.0,0.0,0.0,0.0,0.0,0.0,0.0,0.0,0.0,0.0,0.0,0.0,0.0,0.0,0.0,0.0,0.0,0.0,0.0,0.0,0.0,0.0,0.0,0.0,0.0,0.0,0.0,0.0,0.0,0.0,0.0,0.0,0.0,0.0,0.0,0.0,0.0,0.0,0.0,0.0,0.0,0.0,0.0,0.0,0.0,0.0,0.0,0.0,0.0,0.0,0.0,0.0,0.0,0.0,0.0,0.0,0.0,0.0,0.0,0.0,0.0,0.0,0.0,0.0,0.0,0.0,0.0,0.0,0.0,0.0,0.0,0.0,0.0,0.0,0.0,0.0,0.0,0.0,0.0,0.0,0.0,0.0,0.0,0.0,0.0,0.0,0.0,0.0,0.0,0.0,0.0,0.0,0.0,0.0,0.0,0.0,0.0,0.0,0.0,0.0,0.0,0.0,0.0,0.0,0.0,0.0,0.0,0.0,0.0,0.0,0.0,0.0,0.0,0.0,0.0,0.0,0.0,0.0,0.0,0.0,0.0,0.0,0.0,0.0,0.0,0.0,0.0,0.0,0.0,0.0,0.0,0.0,0.0,0.0,0.0,0.0,0.0,0.0,0.0,0.0,0.0,0.0,0.0,0.0,0.0,0.0,0.0,0.0,0.0,0.0,0.0,0.0,0.0,0.0,0.0,0.0,0.0,0.0,0.0,0.0,0.0,0.0,0.0,0.0,0.0,0.0,0.0,0.0,0.0,0.0,0.0,0.0,0.0,0.0,0.0,0.0,0.0,0.0,0.0,0.0,0.0,0.0,0.0,0.0,0.0,0.0,0.0,0.0,0.0,0.0,0.0,0.0,0.0,0.0,0.0,0.0,0.0,0.0,0.0,0.0,0.0,0.0,0.0,0.0,0.0,0.0,0.0,0.0,0.0,0.0,0.0,0.0,0.0,0.0,0.0,0.0,0.0,0.0,0.0,0.0,0.0,0.0,0.0,0.0,0.0,0.0,0.0,0.0,0.0,0.0,0.0,0.0,0.0,0.0,0.0,0.0,0.0,0.0,0.0,0.0,0.0,0.0,0.0,0.0,0.0,0.0,0.0,0.0,0.0,0.0,0.0,0.0,0.0,0.0,0.0,0.0,0.0,0.0,0.0,0.0,0.0,0.0,0.0,0.0,0.0,0.0,0.0,0.0,0.0,0.0,0.0,0.0,0.0,0.0,0.0,0.0,0.0,0.0,0.0,0.0,0.0,0.0,0.0,0.0,0.0,0.0,0.0,0.0,0.0,0.0,0.0,0.0,0.0,0.0,0.0,0.0,0.0,0.0,0.0,0.0,0.0,0.0,0.0,0.0,0.0,0.0,0.0,0.0,0.0,0.0,0.0,0.0,0.0,0.0,0.0,0.0,0.0,0.0,0.0,0.0,0.0,0.0,0.0,0.0,0.0,0.0,0.0,0.0,0.0,0.0,0.0,0.0,0.0,0.0,0.0,0.0,0.0,0.0,0.0,0.0,0.0,0.0,0.0,0.0,0.0,0.0,0.0,0.0,0.0,0.0,0.0,0.0,0.0,0.0,0.0,0.0,0.0,0.0,0.0,0.0,0.0,0.0,0.0,0.0,0.0,0.0,0.0,0.0,0.0,0.0,0.0,0.0,0.0,0.0,0.0,0.0,0.0,0.0,0.0,0.0,0.0,0.0,0.0,0.0,0.0,0.0,0.0,0.0,0.0,0.0,0.0,0.0,0.0,0.0,0.0,0.0,0.0,0.0,0.0,0.0,0.0,0.0,0.0,0.0,0.0,0.0,0.0,0.0,0.0,0.0,0.0,0.0,0.0,0.0,0.0,0.0,0.0,0.0,0.0,0.0,0.0,0.0,0.0,0.0,0.0,0.0,0.0,0.0,0.0,0.0,0.0,0.0,0.0,0.0,0.0,0.0,0.0,0.0,0.0,0.0,0.0,0.0,0.0,0.0,0.0,0.0,0.0,0.0,0.0,0.0,0.0,0.0,0.0,0.0,0.0,0.0,0.0,0.0,0.0,0.0,0.0,0.0,0.0,0.0,0.0,0.0,0.0,0.0,0.0,0.0,0.0,0.0,0.0,0.0,0.0,0.0,0.0,0.0,0.0,0.0,0.0,0.0,0.0,0.0,0.0,0.0,0.0,0.0,0.0,0.0,0.0,0.0,0.0,0.0,0.0,0.0,0.0,0.0,0.0,0.0,0.0,0.0,0.0,0.0,0.0,0.0,0.0,0.0,0.0,0.0,0.0,0.0,0.0,0.0,0.0,0.0,0.0,0.0,0.0,0.0,0.0,0.0,0.0,0.0,0.0,0.0,0.0,0.0,0.0,0.0,0.0,0.0,0.0,0.0,0.0,0.0,0.0,0.0,0.0,0.0,0.0,0.0,0.0,0.0,0.0,0.0,0.0,0.0,0.0,0.0,0.0,0.0,0.0,0.0,0.0,0.0,0.0,0.0,0.0,0.0,0.0,0.0,0.0,0.0,0.0,0.0,0.0,0.0,0.0,0.0,0.0,0.0,0.0,0.0,0.0,0.0,0.0,0.0,0.0,0.0,0.0,0.0,0.0,0.0,0.0,0.0,0.0,0.0,0.0,0.0,0.0,0.0,0.0,0.0,0.0,0.0,0.0,0.0,0.0,0.0,0.0,0.0,0.0,0.0,0.0,0.0,0.0,0.0,0.0,0.0,0.0,0.0,0.0,0.0,0.0,0.0,0.0,0.0,0.0,0.0,0.0,0.0,0.0,0.0,0.0,0.0,0.0,0.0,0.0,0.0,0.0,0.0,0.0,0.0,0.0,0.0,0.0,0.0,0.0,0.0,0.0,0.0,0.0,0.0,0.0,0.0,0.0,0.0,0.0,0.0,0.0,0.0,0.0,0.0,0.0,0.0,0.0,0.0,0.0,0.0,0.0,0.0,0.0,0.0,0.0,0.0,0.0,0.0,0.0,0.0]},{"header":{"parameterUnit":"m.s-1","parameterCategory":1,"la1":30.6,"la2":29.2853,"lo1":-89.7004,"lo2":-87.6739,"dy":0.0162,"dx":0.0183,"nx":112,"ny":82,"refTime":"2026-04-04T12:00:00:Z","depth":0,"parameterNumber":3,"parameterNumberName":"V-component_of_WINDS"},"data":[0.0,0.0,0.0,0.0,0.0,0.0,0.0,0.0,0.0,0.0,0.0,0.0,0.0,0.0,0.0,0.0,0.0,0.0,0.0,0.0,0.0,0.0,0.0,0.0,0.0,0.0,0.0,0.0,0.0,0.0,0.0,0.0,0.0,0.0,0.0,0.0,0.0,0.0,0.0,0.0,0.0,0.0,0.0,0.0,0.0,0.0,0.0,0.0,0.0,0.0,0.0,0.0,0.0,0.0,0.0,0.0,0.0,0.0,0.0,0.0,0.0,0.0,0.0,0.0,0.0,0.0,0.0,0.0,0.0,0.0,0.0,0.0,0.0,0.0,0.0,0.0,0.0,0.0,0.0,0.0,0.0,0.0,0.0,0.0,0.0,0.0,0.0,0.0,0.0,0.0,5.3004,5.7251,6.2499,6.4884,6.2976,6.0921,5.7948,5.3654,0.0,0.0,0.0,0.0,0.0,0.0,0.0,0.0,0.0,0.0,0.0,0.0,0.0,0.0,0.0,0.0,0.0,0.0,0.0,0.0,0.0,0.0,0.0,0.0,0.0,0.0,0.0,0.0,0.0,0.0,0.0,0.0,0.0,0.0,0.0,0.0,0.0,0.0,0.0,0.0,0.0,0.0,0.0,0.0,0.0,0.0,0.0,0.0,0.0,0.0,0.0,0.0,0.0,0.0,0.0,0.0,0.0,0.0,0.0,0.0,0.0,0.0,0.0,0.0,0.0,0.0,0.0,0.0,0.0,0.0,0.0,0.0,0.0,0.0,0.0,0.0,0.0,0.0,0.0,0.0,0.0,0.0,0.0,0.0,0.0,0.0,0.0,0.0,0.0,0.0,0.0,0.0,0.0,0.0,0.0,0.0,0.0,0.0,0.0,0.0,0.0,0.0,0.0,0.0,5.5904,6.1325,6.5154,6.6109,6.305,6.2462,5.993,5.4546,0.0,0.0,0.0,0.0,0.0,0.0,0.0,0.0,0.0,0.0,0.0,0.0,0.0,0.0,0.0,0.0,0.0,0.0,0.0,0.0,0.0,0.0,0.0,0.0,0.0,0.0,0.0,0.0,0.0,0.0,0.0,0.0,0.0,0.0,0.0,0.0,0.0,0.0,0.0,0.0,0.0,0.0,0.0,0.0,0.0,0.0,0.0,0.0,0.0,0.0,0.0,0.0,0.0,0.0,0.0,0.0,0.0,0.0,0.0,0.0,0.0,0.0,0.0,0.0,0.0,0.0,0.0,0.0,0.0,0.0,0.0,0.0,0.0,0.0,0.0,0.0,0.0,0.0,0.0,0.0,0.0,0.0,0.0,0.0,0.0,0.0,0.0,0.0,0.0,0.0,0.0,0.0,0.0,0.0,0.0,0.0,0.0,0.0,0.0,0.0,0.0,0.0,0.0,5.6638,6.0823,6.382,6.6659,6.7026,6.3796,6.2658,5.9942,5.473,5.1032,0.0,0.0,0.0,0.0,0.0,0.0,0.0,0.0,0.0,0.0,0.0,0.0,0.0,0.0,0.0,0.0,0.0,0.0,0.0,0.0,0.0,0.0,0.0,0.0,0.0,0.0,0.0,0.0,0.0,0.0,0.0,0.0,0.0,0.0,0.0,0.0,0.0,0.0,0.0,0.0,0.0,0.0,0.0,0.0,0.0,0.0,0.0,0.0,0.0,0.0,0.0,0.0,0.0,0.0,0.0,0.0,0.0,0.0,0.0,0.0,0.0,0.0,0.0,0.0,0.0,0.0,0.0,0.0,0.0,0.0,0.0,0.0,0.0,0.0,0.0,0.0,0.0,0.0,0.0,0.0,0.0,0.0,0.0,0.0,0.0,0.0,0.0,0.0,0.0,0.0,0.0,0.0,0.0,0.0,0.0,0.0,0.0,0.0,0.0,0.0,0.0,0.0,6.1741,6.4971,6.5778,6.7674,6.7504,6.409,6.2108,5.8951,5.4142,5.0812,0.0,0.0,0.0,0.0,0.0,0.0,0.0,0.0,0.0,0.0,0.0,0.0,0.0,0.0,0.0,0.0,0.0,0.0,0.0,0.0,0.0,0.0,0.0,0.0,0.0,0.0,0.0,0.0,0.0,0.0,0.0,0.0,0.0,0.0,0.0,0.0,0.0,0.0,0.0,0.0,0.0,0.0,0.0,0.0,0.0,0.0,0.0,0.0,0.0,0.0,0.0,0.0,0.0,0.0,0.0,0.0,0.0,0.0,0.0,0.0,0.0,0.0,0.0,0.0,0.0,0.0,0.0,0.0,0.0,0.0,0.0,0.0,0.0,0.0,0.0,0.0,0.0,0.0,0.0,0.0,0.0,0.0,0.0,0.0,0.0,0.0,0.0,0.0,0.0,0.0,0.0,0.0,0.0,0.0,0.0,0.0,0.0,0.0,0.0,0.0,0.0,0.0,6.3759,6.6623,6.7444,6.8348,6.727,6.3233,6.0737,5.7324,5.2464,4.9104,0.0,0.0,0.0,0.0,0.0,0.0,0.0,0.0,0.0,0.0,0.0,0.0,0.0,0.0,0.0,0.0,0.0,0.0,0.0,0.0,0.0,0.0,0.0,0.0,0.0,0.0,0.0,0.0,0.0,0.0,0.0,0.0,0.0,0.0,0.0,0.0,0.0,0.0,0.0,0.0,0.0,0.0,0.0,0.0,0.0,0.0,0.0,0.0,0.0,0.0,0.0,0.0,0.0,0.0,0.0,0.0,0.0,0.0,0.0,0.0,0.0,0.0,0.0,0.0,0.0,0.0,0.0,0.0,0.0,0.0,0.0,0.0,0.0,0.0,0.0,0.0,0.0,0.0,0.0,0.0,0.0,0.0,0.0,0.0,0.0,0.0,0.0,0.0,0.0,0.0,0.0,0.0,0.0,0.0,0.0,0.0,0.0,0.0,0.0,0.0,0.0,0.0,6.442,6.737,6.7664,6.8421,6.7233,6.316,6.0114,5.6822,5.3004,0.0,0.0,0.0,0.0,0.0,0.0,0.0,0.0,0.0,0.0,0.0,0.0,0.0,0.0,0.0,0.0,0.0,0.0,0.0,0.0,0.0,0.0,0.0,0.0,0.0,0.0,0.0,0.0,0.0,0.0,0.0,0.0,0.0,0.0,0.0,0.0,0.0,0.0,0.0,0.0,0.0,0.0,0.0,0.0,0.0,0.0,0.0,0.0,0.0,0.0,0.0,0.0,0.0,0.0,0.0,0.0,0.0,0.0,0.0,0.0,0.0,0.0,0.0,0.0,0.0,0.0,0.0,0.0,0.0,0.0,0.0,0.0,0.0,0.0,0.0,0.0,0.0,0.0,0.0,0.0,0.0,0.0,0.0,0.0,0.0,0.0,0.0,0.0,0.0,0.0,0.0,0.0,0.0,0.0,0.0,0.0,0.0,0.0,0.0,0.0,0.0,0.0,5.9758,6.4677,6.77,6.77,6.8201,6.688,6.2756,5.9245,5.5868,5.2627,0.0,0.0,0.0,0.0,0.0,0.0,0.0,0.0,0.0,0.0,0.0,0.0,0.0,0.0,0.0,0.0,0.0,0.0,0.0,0.0,0.0,0.0,0.0,0.0,0.0,0.0,0.0,0.0,0.0,0.0,0.0,0.0,0.0,0.0,0.0,0.0,0.0,0.0,0.0,0.0,0.0,0.0,0.0,0.0,0.0,0.0,0.0,0.0,0.0,0.0,0.0,0.0,0.0,0.0,0.0,0.0,0.0,0.0,0.0,0.0,0.0,0.0,0.0,0.0,0.0,0.0,0.0,0.0,0.0,0.0,0.0,0.0,0.0,0.0,0.0,0.0,0.0,0.0,0.0,0.0,0.0,0.0,0.0,0.0,0.0,0.0,0.0,0.0,0.0,0.0,0.0,0.0,0.0,0.0,0.0,0.0,0.0,0.0,0.0,0.0,0.0,0.0,5.9685,6.4677,6.77,6.77,6.77,6.6048,6.1961,5.7935,5.4263,0.0,0.0,0.0,0.0,0.0,0.0,0.0,0.0,0.0,0.0,0.0,0.0,0.0,0.0,0.0,0.0,0.0,0.0,0.0,0.0,0.0,0.0,0.0,0.0,0.0,0.0,0.0,0.0,0.0,0.0,0.0,0.0,0.0,0.0,0.0,0.0,0.0,0.0,0.0,0.0,0.0,0.0,0.0,0.0,0.0,0.0,0.0,0.0,0.0,0.0,0.0,0.0,0.0,0.0,0.0,0.0,0.0,0.0,0.0,0.0,0.0,0.0,0.0,0.0,0.0,0.0,0.0,0.0,0.0,0.0,0.0,0.0,0.0,0.0,0.0,0.0,0.0,0.0,0.0,0.0,0.0,0.0,0.0,0.0,0.0,0.0,0.0,0.0,0.0,0.0,0.0,0.0,0.0,0.0,0.0,0.0,0.0,0.0,0.0,0.0,0.0,0.0,0.0,5.9685,6.4677,6.77,6.77,6.8201,6.7136,6.3662,6.0162,5.6785,5.3555,0.0,0.0,0.0,0.0,0.0,0.0,0.0,0.0,0.0,0.0,0.0,0.0,0.0,0.0,0.0,0.0,0.0,0.0,0.0,0.0,0.0,0.0,0.0,0.0,0.0,0.0,0.0,0.0,0.0,0.0,0.0,0.0,0.0,0.0,0.0,0.0,0.0,0.0,0.0,0.0,0.0,0.0,0.0,0.0,0.0,0.0,0.0,0.0,0.0,0.0,0.0,0.0,0.0,0.0,0.0,0.0,0.0,0.0,0.0,0.0,0.0,0.0,0.0,0.0,0.0,0.0,0.0,0.0,0.0,0.0,0.0,0.0,0.0,0.0,0.0,0.0,0.0,0.0,0.0,0.0,0.0,0.0,0.0,0.0,0.0,0.0,0.0,0.0,0.0,0.0,0.0,0.0,0.0,0.0,0.0,0.0,0.0,0.0,0.0,0.0,0.0,0.0,5.9648,6.4677,6.7811,6.8128,6.8605,6.7724,6.4824,6.1851,5.851,5.4656,0.0,0.0,0.0,0.0,0.0,0.0,0.0,0.0,0.0,0.0,0.0,0.0,0.0,0.0,0.0,0.0,0.0,0.0,0.0,0.0,0.0,0.0,0.0,0.0,0.0,0.0,0.0,0.0,0.0,0.0,0.0,0.0,0.0,0.0,0.0,0.0,0.0,0.0,0.0,0.0,0.0,0.0,0.0,0.0,0.0,0.0,0.0,0.0,0.0,0.0,0.0,0.0,0.0,0.0,0.0,0.0,0.0,0.0,0.0,0.0,0.0,0.0,0.0,0.0,0.0,0.0,0.0,0.0,0.0,0.0,0.0,0.0,0.0,0.0,0.0,0.0,0.0,0.0,0.0,0.0,0.0,0.0,0.0,0.0,0.0,0.0,0.0,0.0,0.0,0.0,0.0,0.0,0.0,0.0,0.0,0.0,0.0,0.0,0.0,0.0,0.0,0.0,5.96,6.4751,6.8104,6.8811,6.8972,6.8054,6.5729,6.3246,5.9832,5.5133,0.0,0.0,0.0,0.0,0.0,0.0,0.0,0.0,0.0,0.0,0.0,0.0,0.0,0.0,0.0,0.0,0.0,0.0,0.0,0.0,0.0,0.0,0.0,0.0,0.0,0.0,0.0,0.0,0.0,0.0,0.0,0.0,0.0,0.0,0.0,0.0,0.0,0.0,0.0,0.0,0.0,0.0,0.0,0.0,0.0,0.0,0.0,0.0,0.0,0.0,0.0,0.0,0.0,0.0,0.0,0.0,0.0,0.0,0.0,0.0,5.7225,5.5445,0.0,0.0,0.0,0.0,0.0,0.0,0.0,0.0,0.0,0.0,0.0,0.0,0.0,0.0,0.0,0.0,0.0,0.0,0.0,0.0,0.0,0.0,0.0,0.0,0.0,0.0,0.0,0.0,0.0,0.0,0.0,0.0,0.0,0.0,0.0,0.0,0.0,0.0,0.0,0.0,5.971,6.5228,6.8715,6.8898,6.9486,6.9119,6.732,6.4947,6.2034,5.8389,5.4572,0.0,0.0,0.0,0.0,0.0,0.0,0.0,0.0,0.0,0.0,0.0,0.0,0.0,0.0,0.0,0.0,0.0,0.0,0.0,0.0,0.0,0.0,0.0,0.0,0.0,0.0,0.0,0.0,0.0,0.0,0.0,0.0,0.0,0.0,0.0,0.0,0.0,0.0,0.0,0.0,0.0,0.0,0.0,0.0,0.0,0.0,0.0,0.0,0.0,0.0,0.0,0.0,0.0,0.0,0.0,0.0,0.0,0.0,0.0,6.288,6.0351,0.0,0.0,0.0,0.0,0.0,0.0,0.0,0.0,0.0,0.0,0.0,0.0,0.0,0.0,0.0,0.0,0.0,0.0,0.0,0.0,0.0,0.0,0.0,0.0,0.0,0.0,0.0,0.0,0.0,0.0,0.0,0.0,0.0,0.0,0.0,0.0,0.0,0.0,0.0,0.0,6.0309,6.5264,6.8458,6.8862,6.9265,6.9045,6.7811,6.6195,6.3686,6.0003,5.6381,0.0,0.0,0.0,0.0,0.0,0.0,0.0,0.0,0.0,0.0,0.0,0.0,0.0,0.0,0.0,0.0,0.0,0.0,0.0,0.0,0.0,0.0,0.0,0.0,0.0,0.0,0.0,0.0,0.0,0.0,0.0,0.0,0.0,0.0,0.0,0.0,0.0,0.0,0.0,0.0,0.0,0.0,0.0,0.0,0.0,0.0,0.0,0.0,0.0,0.0,0.0,0.0,0.0,7.4993,7.5458,7.6455,7.6455,7.6556,7.6437,7.0612,6.7511,6.6523,6.5855,0.0,0.0,0.0,0.0,0.0,0.0,0.0,0.0,0.0,0.0,0.0,0.0,0.0,0.0,0.0,0.0,0.0,0.0,0.0,0.0,0.0,0.0,6.6491,6.5925,6.7063,6.6451,5.9642,0.0,0.0,0.0,0.0,0.0,0.0,0.0,0.0,0.0,0.0,0.0,6.1298,6.575,6.873,6.9379,6.9452,6.9208,6.8522,6.7589,6.5492,6.1813,5.8561,5.5096,0.0,0.0,0.0,0.0,0.0,0.0,0.0,0.0,0.0,0.0,0.0,0.0,0.0,0.0,0.0,0.0,0.0,0.0,0.0,0.0,0.0,0.0,0.0,0.0,0.0,0.0,0.0,0.0,0.0,0.0,0.0,0.0,6.3616,6.3074,0.0,0.0,0.0,0.0,0.0,0.0,0.0,0.0,0.0,0.0,0.0,0.0,0.0,7.5932,7.7722,7.9437,8.1027,8.2589,8.1827,8.2284,8.3808,8.3808,8.391,8.4041,8.3238,0.0,7.3081,7.2478,0.0,0.0,0.0,0.0,0.0,0.0,0.0,0.0,0.0,0.0,0.0,0.0,0.0,0.0,0.0,0.0,0.0,0.0,0.0,0.0,0.0,0.0,7.2551,7.3135,7.4595,7.5172,7.2614,6.8373,6.4247,6.1682,5.9723,5.738,0.0,0.0,0.0,0.0,0.0,0.0,6.2855,6.8123,7.1561,7.1672,7.1672,7.1635,7.1537,7.014,6.8445,6.6526,6.3319,6.0114,5.6977,5.4455,0.0,0.0,0.0,0.0,0.0,0.0,0.0,0.0,0.0,0.0,0.0,0.0,0.0,0.0,0.0,0.0,0.0,0.0,0.0,0.0,0.0,0.0,0.0,0.0,0.0,0.0,0.0,0.0,0.0,6.6531,6.8215,6.8307,6.8666,6.8376,0.0,0.0,0.0,0.0,0.0,0.0,0.0,0.0,0.0,7.7842,8.0526,8.3152,8.5845,8.7062,8.8519,9.0168,8.9286,8.9784,9.1423,9.0934,9.0743,9.0809,9.0386,8.8061,8.4276,8.0677,7.7438,7.4507,0.0,0.0,0.0,0.0,7.0129,7.186,7.3937,7.3868,7.2675,7.1706,0.0,0.0,0.0,0.0,0.0,0.0,0.0,6.7468,7.0052,7.3476,7.6515,7.7361,7.8515,7.9092,7.7854,7.5649,7.257,6.7967,6.5503,6.2919,5.893,5.4861,0.0,0.0,0.0,6.1909,6.5691,7.0409,7.34,7.34,7.34,7.34,7.34,7.2736,7.1633,6.9981,6.7234,6.4498,6.1905,5.9165,5.6637,0.0,0.0,0.0,0.0,0.0,0.0,0.0,0.0,0.0,0.0,0.0,0.0,0.0,0.0,0.0,0.0,0.0,0.0,0.0,0.0,0.0,0.0,0.0,0.0,0.0,0.0,0.0,0.0,7.0905,7.3057,7.3692,7.4129,7.3825,0.0,0.0,0.0,0.0,0.0,0.0,7.7894,7.9208,8.1618,8.5421,8.7585,9.0017,9.2787,9.3672,9.4749,9.5951,9.5104,9.548,9.6903,9.6249,9.5989,9.5951,9.5297,9.4518,9.3364,8.7825,8.4055,8.14,7.7977,7.663,7.6546,7.5738,7.6515,7.8207,8.0139,8.01,7.8977,7.7476,7.4668,7.1437,6.9097,0.0,0.0,0.0,0.0,7.2168,7.4507,7.7592,8.0285,8.0939,8.1939,8.2439,8.1354,8.1085,7.9323,7.3207,7.0455,6.7821,6.3719,5.9482,0.0,5.9409,6.1848,6.4786,6.8537,7.2664,7.5239,7.5239,7.5239,7.5239,7.5239,7.5239,7.4482,7.2826,7.0573,6.8308,6.5986,6.3314,6.0648,5.81,0.0,0.0,0.0,0.0,0.0,0.0,0.0,0.0,0.0,0.0,0.0,0.0,0.0,0.0,0.0,0.0,0.0,0.0,0.0,0.0,0.0,0.0,0.0,0.0,0.0,0.0,0.0,0.0,0.0,7.8561,7.997,0.0,0.0,0.0,0.0,8.1857,8.3648,8.5065,8.6144,8.7897,8.9755,9.1767,9.4396,9.6249,9.7173,9.8057,9.8519,9.8596,9.7711,9.7788,9.8673,9.8634,9.8596,9.8596,9.8557,9.8057,9.6903,9.2595,8.9325,8.6671,8.3247,8.19,8.1823,8.1016,8.1785,8.3563,8.6094,8.5863,8.4362,8.3447,7.9246,7.4207,7.2476,7.1867,0.0,0.0,7.4938,7.733,7.9046,8.2008,8.4585,8.4624,8.5901,8.6632,8.5016,8.4624,8.2877,7.6801,7.4113,7.1696,6.8197,0.0,6.2597,6.3465,6.5743,6.8278,7.0888,7.4876,7.7455,7.7455,7.7455,7.7455,7.7455,7.7455,7.6731,7.5019,7.3315,7.1339,6.8997,6.7248,6.4914,6.1786,6.0054,0.0,0.0,0.0,0.0,0.0,0.0,0.0,0.0,0.0,0.0,0.0,0.0,0.0,0.0,0.0,0.0,0.0,0.0,0.0,0.0,0.0,0.0,0.0,0.0,0.0,0.0,0.0,0.0,8.5123,8.7194,0.0,8.6571,8.615,8.6811,8.8844,9.1069,9.2978,9.4427,9.5656,9.7116,9.8856,9.9846,10.0789,10.1597,10.0789,10.0981,10.2097,10.0596,10.0712,10.2097,10.1481,10.1212,10.1212,10.0106,9.9452,9.9029,9.6942,9.4249,9.121,8.8902,8.7671,8.7094,8.6286,8.6709,8.7863,8.9325,8.944,8.8632,8.6671,8.3478,8.0208,7.9054,7.8323,7.8092,7.8938,8.0208,8.1747,8.3439,8.517,8.6517,8.6517,8.6978,8.6786,8.4555,8.3632,8.2431,7.9754,7.8715,7.7332,7.4466,7.158,6.9733,7.004,7.126,7.2909,7.4934,7.7916,7.9864,7.9864,7.9864,7.9864,7.9864,7.9327,7.8522,7.7341,7.5731,7.3914,7.201,7.0849,6.8663,6.5366,6.2583,5.9511,0.0,0.0,0.0,0.0,0.0,0.0,0.0,0.0,0.0,0.0,0.0,0.0,0.0,0.0,0.0,0.0,0.0,0.0,0.0,0.0,0.0,0.0,0.0,0.0,0.0,8.5363,8.9556,9.0671,9.3056,9.4172,9.3018,9.2624,9.321,9.4941,9.6865,9.8481,9.9596,10.0212,10.1096,10.2597,10.2597,10.2981,10.3905,10.302,10.302,10.3905,10.2712,10.2789,10.3905,10.3289,10.302,10.2981,10.1914,10.1414,10.1299,10.0404,9.8557,9.6057,9.3787,9.2547,9.1932,9.0787,9.071,9.124,9.1825,9.1864,9.1364,8.9671,8.7594,8.5632,8.5055,8.4286,8.3785,8.4324,8.4871,8.5563,8.6671,8.7594,8.8171,8.7902,8.8055,8.7555,8.4978,8.3555,8.2477,8.167,8.1054,8.0015,7.8061,7.6092,7.4661,7.4392,7.5053,7.6092,7.7522,7.9669,8.1093,8.1093,8.1093,8.1093,8.1093,8.0285,7.9438,7.8561,7.663,7.4938,7.3546,7.2399,7.029,6.7173,6.3249,5.9825,5.7011,0.0,0.0,0.0,0.0,0.0,0.0,0.0,0.0,0.0,0.0,0.0,0.0,0.0,0.0,0.0,0.0,0.0,0.0,0.0,0.0,0.0,0.0,0.0,8.3563,8.894,9.3326,9.5009,9.7403,9.8942,9.8942,9.8211,9.8404,10.0106,10.0981,10.1394,10.1394,10.1394,10.1702,10.2597,10.2597,10.302,10.3982,10.48,10.4789,10.4097,10.3982,10.3982,10.4097,10.4097,10.3982,10.3982,10.3982,10.3982,10.3905,10.2981,10.2097,10.1096,9.7711,9.6403,9.6172,9.448,9.3864,9.3864,9.3864,9.3326,9.2633,9.2633,9.1441,9.0009,8.997,8.9402,8.8756,8.8756,8.8718,8.8718,8.8718,8.9286,8.9701,8.8902,8.9325,8.9201,8.6671,8.4786,8.337,8.2516,8.1016,7.9631,7.8754,7.8023,7.7246,7.6361,7.6938,0.0,7.8561,8.0131,8.117,8.117,8.117,8.117,8.1131,8.0323,7.9438,7.8523,7.6053,7.4276,7.343,7.1783,6.9706,6.7135,6.2204,5.8819,5.7099,0.0,0.0,0.0,0.0,0.0,0.0,0.0,0.0,0.0,0.0,0.0,0.0,0.0,0.0,0.0,0.0,0.0,0.0,0.0,0.0,0.0,8.2747,8.6247,8.7932,9.3326,9.7673,9.9356,10.1289,10.2481,10.2481,10.2289,10.2597,10.3597,10.3905,10.4097,10.4097,10.2904,10.2597,10.3482,10.2904,10.3597,10.5713,10.5905,10.6521,10.7482,10.6905,10.6982,10.7482,10.7482,10.7213,10.6597,10.602,10.5405,10.4723,10.3905,10.3405,10.2904,10.0096,9.8673,9.8057,9.7557,9.7403,9.7403,9.7403,9.6442,9.5249,9.5249,9.4095,9.2556,9.1979,9.1171,9.0364,8.9748,8.9133,8.8718,8.8718,8.9286,8.9701,8.8902,8.9325,8.9201,8.6671,8.4786,8.3524,8.3293,8.2362,8.1554,8.1285,8.2131,8.2516,8.1639,8.1716,8.1947,8.2178,8.2639,8.2909,8.2909,8.2909,8.2678,8.2016,8.0631,7.9169,7.7715,7.5245,7.3161,7.1668,7.1168,6.9706,6.7135,6.4512,6.205,0.0,0.0,0.0,0.0,0.0,0.0,0.0,0.0,0.0,0.0,0.0,0.0,0.0,0.0,0.0,0.0,0.0,0.0,0.0,0.0,0.0,0.0,8.7833,9.1556,9.4278,9.798,10.0904,10.2212,10.4212,10.5482,10.5482,10.579,10.6213,10.6713,10.6713,10.6405,10.5713,10.4097,10.3405,10.3905,10.3405,10.4212,10.6395,10.7098,10.7905,10.8906,10.8406,10.8406,10.8906,10.8906,10.8598,10.8213,10.7713,10.6982,10.6097,10.529,10.4713,10.4097,0.0,0.0,0.0,0.0,9.8788,9.8788,9.8788,9.8173,9.7288,9.6903,9.5903,9.4518,9.2979,9.1402,8.9902,8.8662,8.7478,8.6717,8.744,8.8517,8.9479,8.9671,9.0364,9.0402,8.8162,8.6094,8.4555,8.4209,8.3747,0.0,8.3824,8.4439,8.4593,8.3717,8.3601,8.3601,8.3601,8.3601,8.3601,8.3601,8.3601,8.3255,8.2362,8.1093,0.0,0.0,0.0,7.3084,7.0975,7.0898,0.0,0.0,0.0,0.0,0.0,6.3666,0.0,0.0,5.8742,5.9088,0.0,0.0,0.0,0.0,0.0,0.0,0.0,0.0,0.0,0.0,0.0,0.0,0.0,0.0,0.0,0.0,9.2796,9.699,10.101,10.2597,10.3597,10.4212,10.629,10.7713,10.779,10.8482,10.8906,10.8906,10.8906,10.8213,10.6587,10.4982,0.0,0.0,0.0,10.4905,10.6713,10.829,10.9098,10.9213,10.9213,10.9213,10.9213,10.9213,10.9098,10.8983,10.8983,10.8598,10.779,10.7021,10.6097,10.4982,10.252,10.1587,10.1394,9.9827,9.9211,9.9211,9.9135,0.0,0.0,9.8057,9.725,9.6134,9.3672,9.1133,8.8756,8.7017,8.5247,8.4255,8.5824,8.7517,8.9257,9.0825,9.1941,9.2172,9.0432,8.8201,8.6278,8.547,8.5239,8.5431,8.6247,8.5786,8.5016,8.4178,8.4024,8.3986,8.3909,8.387,8.387,8.387,8.387,0.0,8.267,8.1862,8.0592,7.8754,7.6092,7.3514,7.1129,7.1052,7.1129,7.1321,7.0629,7.036,7.0552,6.9661,6.9314,6.9314,6.5057,6.3518,0.0,0.0,0.0,0.0,0.0,0.0,0.0,0.0,0.0,0.0,0.0,0.0,0.0,0.0,0.0,9.2364,9.6336,10.0106,10.2981,10.5905,10.7482,10.6982,10.7405,10.7982,10.8598,10.879,10.8906,10.8906,10.8906,10.8482,10.7521,10.579,10.5213,10.5905,10.5213,10.5982,10.8406,10.9406,11.0291,11.1021,11.1021,0.0,11.1021,11.1021,11.0598,10.9906,10.9906,10.9483,10.8713,10.8482,10.7521,10.602,10.4097,10.3405,10.3289,10.2212,10.1904,10.1789,10.1096,10.0404,9.9837,9.9644,9.9029,9.798,9.6134,9.3787,0.0,8.9663,8.7432,8.5863,8.6863,8.8402,8.9932,9.0979,9.2364,9.3018,9.1325,9.0009,8.8932,8.8132,8.7401,8.7171,8.8064,8.8064,8.7679,8.6786,8.6671,8.6401,8.5709,8.5632,8.5632,8.5632,8.5632,8.5286,8.4478,8.3593,8.2093,7.9708,7.5892,7.3199,7.2021,7.1944,7.2591,7.393,7.3815,7.4437,7.5822,7.4976,7.4899,7.5476,7.1206,6.9667,0.0,0.0,0.0,0.0,0.0,0.0,0.0,0.0,0.0,0.0,0.0,8.844,8.971,0.0,9.4903,9.6634,9.9413,10.2212,10.4789,10.729,10.879,10.829,10.9098,10.9598,10.9598,11.0291,11.0598,11.0214,11.0214,10.979,10.8983,10.7713,10.7213,10.7598,10.7213,10.779,10.9483,11.0406,11.1098,11.1511,11.1511,11.1511,11.1511,11.1511,11.1291,11.0906,11.0906,11.0406,10.9483,10.9098,10.8213,10.7021,10.6097,10.4982,10.3789,10.3405,10.2981,10.252,10.2097,10.1404,10.0596,10.0221,9.9798,9.9058,9.6942,9.4518,9.2133,9.0393,8.8085,8.6401,8.7709,8.9286,9.0855,9.2133,9.3403,9.4104,9.3287,9.2095,9.1095,9.0671,8.9902,8.944,8.9863,8.994,8.9363,8.7671,8.7401,8.7094,8.6209,8.6094,8.6094,8.6094,8.6094,8.5778,8.497,8.3324,8.1631,7.9892,7.7015,7.5014,7.413,7.4522,7.513,7.5976,7.6399,7.7246,7.8554,7.7669,7.7707,7.8515,7.6784,7.5784,0.0,0.0,0.0,0.0,0.0,0.0,0.0,8.7825,8.8201,9.124,9.3249,9.4826,9.6028,9.7596,9.9211,10.0606,10.2404,10.4405,10.679,10.8713,10.979,10.9713,11.0714,11.1406,11.0983,11.1983,11.2395,11.178,11.1588,11.1214,11.0483,10.979,10.9406,10.9406,10.9406,10.9713,11.0406,11.1098,11.1511,11.1511,11.1511,11.1511,11.1511,11.1511,11.1511,11.1511,11.1511,11.1214,11.0598,10.979,10.8906,10.8213,10.7982,10.6597,10.4597,10.4299,10.3712,10.3097,10.2904,10.2404,10.1712,10.0914,10.0606,10.0106,9.775,9.5365,9.3133,9.1586,8.9316,8.7748,8.9487,9.0941,9.2326,9.3826,9.4864,9.5412,9.5066,9.395,9.2903,9.2556,9.1941,9.1402,9.1248,9.121,9.0441,8.8209,8.7902,8.7594,8.6709,8.6594,8.6594,8.6594,8.6594,8.6286,8.5478,8.3208,8.1477,8.0592,7.9092,7.7907,7.7015,7.7669,7.8099,7.8253,7.8907,7.9746,8.0777,7.99,7.9939,8.0816,8.1323,8.0669,7.4315,7.8969,8.5824,8.944,9.271,9.5249,0.0,9.6172,9.6634,9.8567,10.0289,10.1289,10.0712,10.202,10.3212,10.3405,10.5482,10.7713,10.9483,11.1906,11.3099,11.2406,11.178,11.2022,11.3407,11.3022,11.2714,11.2599,11.1895,11.1522,11.1406,11.1291,11.1203,11.1203,11.1203,11.1291,11.1406,11.1522,11.1511,11.1511,11.1511,11.1511,11.1511,11.1511,11.1511,11.1511,11.1511,11.1906,11.2406,11.1511,11.0714,10.979,10.9098,10.8213,10.7098,10.5482,10.4905,10.4713,10.3982,10.3712,10.3482,10.2597,10.2289,10.1981,10.0212,9.8404,9.6749,9.5826,9.3749,9.2172,9.3873,9.4412,9.4835,9.5788,9.6634,9.6826,9.5335,9.4835,9.4296,9.2787,9.2402,9.2095,9.1325,9.121,9.0825,8.9778,8.9624,8.9325,8.8526,8.841,8.841,8.841,8.841,8.8064,8.7171,8.5478,8.4093,8.3216,8.2285,8.1362,8.0554,8.0631,8.1016,8.1747,8.1823,8.267,8.4316,8.3439,8.3478,8.4316,8.3632,8.2401,8.1054,8.4854,9.0364,9.574,10.0019,10.3289,10.4597,10.4905,10.5405,10.7098,10.7982,10.8098,10.6713,10.6713,10.6713,10.6213,10.7405,10.8983,11.0714,11.2714,11.3714,11.2791,11.1098,11.0714,11.2406,11.2588,11.2714,11.2714,11.2906,11.2983,11.2983,11.2983,11.2983,11.2983,11.2983,11.2983,11.2983,11.2522,11.2203,11.2203,11.1703,11.1511,11.1511,11.1511,11.1511,11.1511,11.1511,11.1703,11.2022,11.1588,11.0983,11.0186,10.979,10.8906,10.7598,10.629,10.5482,10.5107,10.4713,10.4289,10.3789,10.3482,10.2981,10.2481,10.1789,10.0404,9.8942,9.8596,9.7019,9.5672,9.6903,9.6826,9.6673,9.7557,9.8019,9.7942,9.6711,9.6095,9.5403,9.4181,9.3172,9.2364,9.2018,9.1556,9.1095,9.071,9.0201,8.9624,8.8795,8.8718,8.8718,8.8718,8.8256,8.7786,8.744,8.5912,8.4805,8.4512,8.3664,8.3017,8.2708,8.267,8.2824,8.3171,8.3215,8.3876,8.5116,8.4274,8.4274,8.5116,8.4776,8.4196,8.644,9.0171,9.4826,10.1087,10.5905,10.9483,11.1214,11.1598,11.1983,11.3214,11.3022,11.2291,11.0791,10.979,10.9213,10.9098,10.9983,11.1291,11.3011,11.4484,11.4907,11.3599,11.1406,11.0291,11.1098,11.1483,11.1906,11.2588,11.3483,11.3984,11.3984,11.3984,11.3984,11.3984,11.3984,11.3984,11.3984,11.3099,11.2714,11.2714,11.1906,11.1511,11.1511,11.1511,11.1588,11.178,11.1588,11.1588,11.178,11.1588,11.1098,11.0483,11.0291,10.929,10.7905,10.7098,10.6213,10.5482,10.5482,10.5097,10.4482,10.4289,10.3789,10.3212,10.2712,10.1789,10.0712,10.0491,9.9365,9.8413,9.9326,9.8931,9.8458,9.9102,9.9283,9.8993,9.7876,9.7182,9.645,9.5332,9.4138,9.3174,9.2674,9.2096,9.1595,9.1355,9.0777,9.0128,8.9457,8.9402,8.9402,8.9402,8.8594,8.8094,8.8094,8.6854,8.6084,8.617,8.5604,8.5264,8.5225,8.5264,8.5264,8.5225,8.5313,8.5726,8.6448,8.5789,8.5789,8.6448,8.6448,8.6448,8.8432,9.4095,9.9788,10.502,10.9395,11.2983,11.4714,11.5099,11.5187,11.5215,11.3907,11.2395,11.1588,11.0714,11.0714,11.2291,11.3984,11.5715,11.7407,11.8407,11.7984,11.5484,11.3714,11.1983,11.0406,10.9483,11.0021,11.2511,11.3483,11.3984,11.3984,11.3984,11.3984,11.3984,11.3984,11.3984,11.3984,11.3099,11.2714,11.2714,11.1906,11.1511,11.1511,11.1511,11.1895,11.2588,11.178,11.1895,11.2599,11.178,11.1511,11.1406,11.0483,10.9713,10.879,10.7982,10.7098,10.6405,10.6405,10.628,10.6213,10.529,10.4982,10.4713,10.3097,10.2597,10.2289,10.151,10.0712,10.0202,10.1182,10.0811,10.0205,10.0298,10.0503,10.0102,9.8361,9.7975,9.7472,9.5809,9.546,9.488,9.3178,9.2869,9.256,9.174,9.1585,9.1438,9.1176,9.1133,9.1133,9.1133,9.0355,8.9816,8.9816,8.9183,8.8811,8.8875,8.8965,8.8965,8.8849,8.8965,8.8965,8.8849,8.8976,8.9123,8.9277,8.9238,8.9238,8.9277,8.9277,8.9277,9.3095,9.8865,10.4212,10.929,11.4214,11.7984,11.9177,12.0292,12.0716,11.8985,11.6792,11.4791,11.3407,11.2906,11.3099,11.4214,11.6292,11.7984,11.86,11.8908,11.8407,11.6292,11.3599,11.1483,11.0291,10.9406,10.9713,11.1791,11.3214,11.4291,11.4791,11.5407,11.5676,11.5676,11.5676,11.5676,11.5676,11.4291,11.3599,11.3483,11.2214,11.1511,11.1511,11.1511,11.1588,11.1906,11.1711,11.1707,11.2009,11.1819,11.1809,11.172,11.09,11.0012,10.9201,10.8313,10.7511,10.6694,10.6506,10.6395,10.6405,10.6097,10.5597,10.4992,10.4405,10.3482,10.252,10.2202,10.1212,10.0298,10.1303,10.0607,9.9738,10.0419,10.0179,9.9557,9.8436,9.8203,9.7854,9.6733,9.6033,9.5456,9.4873,9.383,9.2819,9.1915,9.1702,9.1557,9.1492,9.1477,9.1477,9.1477,9.0743,9.0241,9.0241,8.9583,8.918,8.9248,8.9372,8.9416,8.9258,8.9372,8.9411,8.9258,8.9437,8.9585,8.9667,8.9667,8.9667,8.9667,8.9667,8.9667,9.7596,10.3482,10.8906,11.3407,11.7715,12.0985,12.1908,12.2908,12.2793,11.96,11.6407,11.3791,11.2406,11.1906,11.2406,11.4484,11.7484,11.9715,12.0408,12.0485,11.9792,11.8111,11.5407,11.3099,11.1291,10.9983,10.9713,11.0521,11.1906,11.3291,11.4802,11.5918,11.6495,11.6495,11.6495,11.6495,11.6495,11.4791,11.3791,11.3483,11.2406,11.2088,11.2406,11.2099,11.1895,11.1906,11.1717,11.1693,11.1784,11.1598,11.1584,11.1599,11.0699,10.9885,10.911,10.8496,10.7798,10.7011,10.6712,10.6594,10.6594,10.6594,10.6208,10.5716,10.5408,10.4281,10.3201,10.2893,10.1813,10.0912,10.1616,10.101,10.0496,10.119,10.0709,9.9907,9.9093,9.8665,9.8236,9.7345,9.6721,9.6258,9.5946,9.4742,9.35,9.2639,9.2409,9.2161,9.1757,9.1706,9.1706,9.1706,9.1247,9.0937,9.0937,9.0545,9.0327,9.0396,9.0542,9.0546,9.0403,9.0819,9.1013,9.0871,9.1359,9.1505,9.1281,9.1281,9.1124,9.0811,9.0811,9.0811,10.1904,10.8021,11.3907,11.7215,11.9908,12.1985,12.2793,12.2985,12.1716,11.7292,11.2994,10.9713,10.8906,10.7982,10.8906,11.3214,11.7484,12.0908,12.2716,12.2908,12.2293,12.06,11.8985,11.6599,11.3291,11.1291,10.9916,10.9196,10.9811,11.1389,11.3901,11.5594,11.649,11.649,11.649,11.649,11.649,11.4912,11.3593,11.2708,11.2708,11.3093,11.3901,11.3016,11.2708,11.2603,11.1982,11.1782,11.1887,11.13,11.0982,11.0915,11.0092,10.9197,10.8497,10.8502,10.7918,10.7215,10.6994,10.6897,10.6881,10.6881,10.6881,10.6804,10.5914,10.5101,10.4211,10.3406,10.2516,10.1911,10.2087,10.2084,10.2212,10.239,10.1815,10.1005,10.0111,9.9291,9.8511,9.7653,9.7497,9.7224,9.6368,9.5512,9.4656,9.3756,9.3639,9.3206,9.2074,9.1932,9.1932,9.1932,9.1932,9.1932,9.1932,9.2051,9.2135,9.2217,9.234,9.234,9.2221,9.316,9.3669,9.3511,9.4487,9.4636,9.3906,9.3906,9.3437,9.2617,9.2617,9.2617,10.7905,11.3714,11.8715,12.0292,12.2485,12.4293,12.3909,12.3793,12.2216,11.6715,11.1214,10.7098,10.6213,10.5405,10.6713,11.2099,11.71,12.0908,12.2716,12.2908,12.2704,12.2293,12.0716,11.8792,11.6715,11.3291,11.1403,11.1885,11.1586,11.2194,11.4192,11.6007,11.6895,11.6895,11.6895,11.6895,11.6895,11.59,11.4586,11.3118,11.3118,11.2887,11.25,11.2307,11.2191,11.2209,11.2188,11.2193,11.2285,11.2183,11.1883,11.1389,11.0493,10.9592,10.8813,10.8114,10.7806,10.7604,10.7498,10.73,10.7108,10.7108,10.7108,10.7108,10.692,10.5787,10.4582,10.4394,10.3189,10.2089,10.2289,10.1903,10.1492,10.1711,10.0592,9.9522,9.9287,9.8584,9.792,9.7687,9.7648,9.7374,9.6554,9.6242,9.5578,9.4054,9.382,9.3448,9.2351,9.221,9.221,9.221,9.221,9.221,9.221,9.2305,9.2426,9.2416,9.2507,9.2508,9.2419,9.3327,9.3797,9.3747,9.4671,9.4723,9.3906,9.3906,9.3437,9.2617,9.2617,9.2617,11.1522,11.6599,12.11,12.1985,12.3485,12.4486,12.3293,12.1793,11.91,11.3214,10.7213,10.2914,10.2501,10.2713,10.4687,11.0303,11.6483,12.0911,12.1903,12.2404,12.2481,12.2096,12.0785,11.9522,11.8211,11.5907,11.4597,11.4921,11.2617,11.22,11.4409,11.619,11.7197,11.7197,11.7197,11.7088,11.6708,11.6203,11.5311,11.3985,11.3992,11.3713,11.3279,11.2898,11.2704,11.2711,11.251,11.251,11.2481,11.2315,11.1813,11.1083,11.0186,10.9286,10.8506,10.8,10.7806,10.7806,10.7806,10.7697,10.7512,10.7414,10.7416,10.7416,10.7416,10.6481,10.5511,10.5511,10.4186,10.2881,10.3112,10.2512,10.1896,10.2086,10.1089,10.0117,10.0117,9.9453,9.8828,9.8828,9.8828,9.8594,9.7734,9.7617,9.7031,9.5312,9.5039,9.4685,9.3718,9.2891,9.2422,9.2422,9.2422,9.2422,9.2422,9.2515,9.2524,9.2529,9.2572,9.2572,9.2569,9.3783,9.4447,9.4404,9.5661,9.5702,9.4453,9.4453,9.3828,9.2617,9.2617,9.2617,11.4214,11.8407,12.2305,12.2908,12.3716,12.3716,12.16,11.8419,11.4099,10.8098,10.202,9.7941,9.8311,9.9802,10.2787,10.8398,11.5618,12.0479,12.0702,12.1283,12.1515,12.0702,11.9812,11.9085,11.8715,11.8685,11.8608,11.7987,11.4197,11.2786,11.501,11.6585,11.7485,11.7485,11.7485,11.7101,11.6411,11.6406,11.5895,11.4994,11.4999,11.4799,11.4589,11.3899,11.351,11.3515,11.2879,11.2712,11.2681,11.2101,11.1511,11.0703,10.9883,10.8984,10.8203,10.8203,10.8086,10.8008,10.8008,10.8008,10.8006,10.7784,10.7702,10.7702,10.7702,10.7197,10.6495,10.6495,10.5285,10.4007,10.4007,10.3402,10.2791,10.2885,10.2187,10.1601,10.1601,10.0898,10.0312,10.0312,10.0312,10.0,9.914,9.8984,9.8437,9.6758,9.6484,9.6172,9.5312,9.3867,9.2969,9.2969,9.2969,9.2969,9.2969,9.2969,9.2969,9.2969,9.2969,9.2969,9.2969,9.4492,9.5351,9.5351,9.6914,9.6914,9.5351,9.5351,9.4531,9.2969,9.2969,9.2969,11.8908,12.1908,12.4601,12.3985,12.4486,12.3985,11.9485,11.5291,11.0521,10.3789,9.7134,9.3187,9.5431,9.6761,10.018,10.82,11.4304,11.8483,11.9914,11.9597,11.9279,11.9085,11.8314,11.8282,11.9584,12.0419,12.0798,12.0803,11.9517,11.8286,11.7401,11.7681,11.7885,11.7885,11.7885,11.7807,11.769,11.769,11.691,11.5307,11.5311,11.4609,11.3201,11.3088,11.301,11.3014,11.3006,11.2893,11.2884,11.2913,11.2419,11.1718,11.1484,11.0508,10.9101,10.9101,10.8593,10.8008,10.8008,10.8008,10.8007,10.8005,10.7886,10.7886,10.7886,10.73,10.6714,10.6714,10.5386,10.4215,10.4216,10.3514,10.289,10.289,10.2187,10.1601,10.1601,10.0898,10.0312,10.0312,10.0312,10.0,9.914,9.8984,9.8437,9.6758,9.6484,9.6172,9.5312,9.4922,9.4765,9.4765,9.4765,9.4765,9.4765,9.4765,9.4765,9.4765,9.4765,9.4765,9.4765,9.5742,9.6289,9.6289,9.7226,9.7226,9.6289,9.6289,9.5742,9.4765,9.4765,9.4765,12.0907,12.339,12.5401,12.4089,12.3384,12.1686,11.6583,11.1095,10.5618,9.9986,9.4208,9.0806,9.3052,9.5002,9.8553,10.5521,11.1715,11.5793,11.6217,11.6684,11.6801,11.6412,11.6689,11.7906,12.0097,12.1899,12.2991,12.3112,12.1893,12.05,11.8781,11.8296,11.8205,11.8205,11.8205,11.8205,11.8205,11.8205,11.7307,11.5588,11.5588,11.469,11.3089,11.3089,11.2816,11.2386,11.2401,11.2213,11.1788,11.2302,11.1992,11.1289,11.1718,11.0781,10.9297,10.9297,10.8711,10.8008,10.8008,10.8008,10.8008,10.8008,10.8008,10.8008,10.8008,10.7695,10.7383,10.7383,10.6484,10.539,10.5,10.4219,10.3515,10.3008,10.2617,10.2304,10.2304,10.1914,10.1719,10.1719,10.1719,10.1406,10.0508,10.039,9.9922,9.8672,9.8086,9.7656,9.7226,9.6797,9.6172,9.5273,9.5195,9.5195,9.5195,9.5195,9.5195,9.5195,9.5195,9.5195,9.5195,9.6054,9.6484,9.6484,9.7304,9.7304,9.6484,9.6484,9.6054,9.5195,9.5195,9.5195,12.2305,12.4486,12.5911,12.3802,12.1701,11.8711,11.3203,10.6495,10.0415,9.624,9.1489,8.8691,9.0762,9.3157,9.6701,10.2412,10.861,11.2705,11.2393,11.341,11.3995,11.3683,11.4818,11.6811,11.978,12.2592,12.4289,12.4405,12.2897,12.1302,11.9507,11.8903,11.8515,11.8281,11.8281,11.8281,11.8281,11.8281,11.75,11.5781,11.5781,11.4883,11.3203,11.3203,11.2812,11.2187,11.2187,11.1797,11.1211,11.1914,11.1797,11.1211,11.1914,11.1093,10.9609,10.9609,10.8906,10.8008,10.8008,10.8008,10.8008,10.8008,10.8008,10.8008,10.8008,10.8008,10.8008,10.8008,10.7383,10.6601,10.5898,10.5,10.3984,10.3086,10.289,10.289,10.289,10.289,10.289,10.289,10.289,10.2617,10.1797,10.1601,10.1289,10.039,9.9726,9.9219,9.9023,9.8398,9.7383,9.5898,9.5742,9.5742,9.5742,9.5742,9.5742,9.5742,9.5742,9.5742,9.5742,9.6406,9.6758,9.6758,9.7383,9.7383,9.6758,9.6758,9.6406,9.5742,9.5742,9.5742,12.4303,12.5985,12.668,12.3406,12.0115,11.6013,10.9299,10.1906,9.5374,9.1899,8.7759,8.5541,8.8148,9.0164,9.3708,10.0615,10.5612,10.91,11.0584,11.0311,11.0389,11.1912,11.2186,11.3983,11.8084,12.16,12.3592,12.3593,12.2695,12.1406,11.9687,11.9492,11.9101,11.8281,11.8281,11.8281,11.8281,11.8281,11.7383,11.5703,11.5703,11.4804,11.3203,11.3203,11.3203,11.3086,11.3086,11.3008,11.3008,11.3008,11.3008,11.3008,11.3008,11.1992,11.0508,11.0508,10.9414,10.8008,10.8008,10.8008,10.8008,10.8008,10.8008,10.8008,10.8008,10.8008,10.8008,10.8008,10.7383,10.6719,10.6601,10.539,10.3984,10.3086,10.289,10.289,10.289,10.289,10.289,10.289,10.289,10.2617,10.1797,10.1601,10.1289,10.039,10.0195,9.9883,9.9101,9.8945,9.8515,9.7578,9.7461,9.7461,9.7461,9.7461,9.7461,9.7461,9.7461,9.7461,9.7461,9.7539,9.7578,9.7578,9.7656,9.7656,9.7578,9.7578,9.7539,9.7461,9.7461,9.7461,12.2297,12.5092,12.62,12.1708,11.7997,11.3512,10.6108,9.925,9.3603,9.0729,8.7933,8.6554,8.8168,8.9503,9.1958,9.69,10.1287,10.4609,10.5781,10.6992,10.8008,10.8711,11.0195,11.2617,11.6406,11.9883,12.2383,12.3398,12.3203,12.25,12.1211,12.0195,11.9414,11.9101,11.8593,11.8281,11.8281,11.8281,11.7383,11.5781,11.5703,11.4804,11.3203,11.3203,11.289,11.2383,11.2383,11.2109,11.1718,11.2187,11.2383,11.25,11.3008,11.2109,11.0586,11.0586,10.9492,10.8008,10.8008,10.8008,10.8008,10.8008,10.8008,10.8008,10.8008,10.8008,10.8008,10.8008,10.7812,10.7383,10.6797,10.5781,10.4883,10.4492,10.4492,10.4492,10.4492,10.4492,10.4492,10.4492,10.4492,10.4219,10.3281,10.3203,10.289,10.1992,10.1406,10.1015,10.0586,10.0117,9.9648,9.9297,9.832,9.7695,9.7695,9.7695,9.7695,9.7695,9.7695,9.7695,9.7695,9.7695,9.7695,9.7695,9.7695,9.7695,9.7695,9.7695,9.7695,9.7695,9.7695,9.7695,12.0006,12.4001,12.5812,12.0381,11.6006,11.1088,10.3594,9.7036,9.1962,8.9895,8.8297,8.7487,8.8134,8.8769,9.0263,9.3513,9.6992,9.9883,10.1484,10.3711,10.539,10.5898,10.7617,11.0195,11.3906,11.8086,12.1289,12.3281,12.3515,12.3203,12.2617,12.0898,11.9883,11.9609,11.8789,11.8281,11.8281,11.8281,11.75,11.5781,11.5781,11.4804,11.3203,11.3203,11.289,11.2304,11.2304,11.1914,11.1406,11.1992,11.2304,11.2304,11.3008,11.2304,11.1015,11.1015,11.0,10.8789,10.8789,10.8789,10.8789,10.8789,10.8593,10.8398,10.8398,10.8203,10.8008,10.8008,10.8008,10.7812,10.6914,10.6289,10.5781,10.5586,10.5508,10.5508,10.5508,10.5508,10.5508,10.5508,10.5508,10.5195,10.4414,10.4219,10.3906,10.3008,10.2383,10.1914,10.1601,10.1094,10.0586,10.0312,9.9219,9.8476,9.8476,9.8476,9.8476,9.8476,9.8476,9.8476,9.8476,9.8476,9.8476,9.8476,9.8476,9.8476,9.8476,9.8476,9.8476,9.8476,9.8476,9.8476,11.8187,12.3309,12.5898,11.9804,11.4414,10.8789,10.1914,9.5,8.9804,8.8906,8.8047,8.75,8.75,8.7539,8.8359,9.0937,9.2812,9.5156,9.8554,10.0508,10.2304,10.3984,10.4219,10.5898,11.0195,11.6093,12.0703,12.3281,12.3515,12.3515,12.3515,12.1797,12.0508,11.9609,11.8789,11.8281,11.8281,11.8281,11.75,11.5781,11.5781,11.4883,11.3203,11.3203,11.3203,11.3203,11.3203,11.3203,11.3203,11.3203,11.3203,11.3203,11.3203,11.2695,11.1914,11.1914,11.1289,11.0586,11.0586,11.0586,11.0586,11.0586,11.0,10.9297,10.9297,10.8711,10.8008,10.8008,10.8008,10.7812,10.6914,10.6719,10.6484,10.5703,10.5508,10.5508,10.5508,10.5508,10.5508,10.5508,10.5508,10.5195,10.4414,10.4219,10.3906,10.3008,10.289,10.2617,10.1719,10.1601,10.1289,10.039,10.0312,10.0312,10.0312,10.0312,10.0312,10.0312,10.0312,10.0312,10.0312,10.0312,10.0312,10.0312,10.0312,10.0312,10.0312,10.0312,10.0312,10.0312,10.0312,10.0312,11.1115,11.5895,11.8203,11.3398,10.9218,10.4609,9.8242,9.2812,8.8867,8.8047,8.7695,8.75,8.75,8.75,8.7929,8.9297,9.0976,9.3125,9.6015,9.9414,10.1992,10.3203,10.6992,11.0703,11.3789,11.8008,12.1289,12.3281,12.3515,12.3203,12.2617,12.1484,12.0781,12.0508,11.9101,11.8281,11.8281,11.8281,11.75,11.5781,11.5781,11.4804,11.3203,11.3203,11.3203,11.3203,11.3203,11.3203,11.3203,11.3203,11.2812,11.2383,11.3008,11.2304,11.1093,11.1718,11.1289,11.0586,11.0586,11.0586,11.0586,11.0586,11.0,10.9297,10.9297,10.8711,10.8008,10.8008,10.8008,10.789,10.7695,10.7617,10.75,10.7304,10.7187,10.7187,10.7187,10.7187,10.7187,10.7187,10.7187,10.6914,10.6093,10.5898,10.5586,10.4804,10.4687,10.4609,10.4297,10.4297,10.3906,10.3086,10.3008,10.2187,10.0508,10.0312,10.0312,10.0312,10.0312,10.0312,10.0312,10.0312,10.0312,10.0312,10.0312,10.0312,10.0312,10.0312,10.0312,10.0312,10.0312,10.0312,10.4215,10.9296,11.1797,10.75,10.4492,10.1211,9.5508,9.1367,8.8476,8.7656,8.7226,8.6992,8.6992,8.6758,8.6797,8.7617,8.8672,9.0625,9.4219,9.8398,10.2187,10.5,10.9492,11.3203,11.5117,11.8398,12.1289,12.3281,12.3203,12.2812,12.2187,12.1093,12.039,12.039,11.8984,11.8281,11.8281,11.8281,11.75,11.5781,11.5703,11.4804,11.3203,11.3203,11.3203,11.3203,11.3203,11.3203,0.0,11.3203,11.289,11.2383,11.3008,11.25,11.1601,11.2187,11.1992,11.1601,11.1601,11.1601,11.1601,11.1601,11.0781,10.9687,10.9414,10.8711,10.8008,10.8008,10.8008,10.8008,10.8008,10.8008,10.8008,10.8008,10.8008,10.8008,10.8008,10.8008,10.8008,10.8008,10.8008,10.7695,10.6914,10.6719,10.6406,10.5586,10.5508,10.5508,10.5508,10.5508,10.5195,10.4297,10.4219,10.3398,10.1406,10.1289,10.1289,10.1289,10.1289,10.1289,10.1289,10.1289,10.1289,10.1289,10.1289,10.1289,10.1289,10.1289,10.1289,10.1289,10.1289,10.1289,0.0,10.3203,10.6289,10.2187,10.0508,9.8554,9.3554,9.0429,0.0,8.7578,8.6758,8.6172,8.6133,8.5469,8.5195,8.6054,8.6289,8.8164,9.3281,9.7969,10.3086,10.8984,11.1992,11.3789,11.4804,11.7812,12.0781,12.3203,12.2695,12.2109,12.1992,12.0508,11.9609,11.9492,11.8711,11.8281,11.8281,11.8281,11.75,11.5781,11.5703,11.4804,11.3203,11.3203,11.3203,11.3203,11.3203,11.3203,11.3203,11.3203,11.3203,11.3086,11.3203,11.3203,11.3086,11.3203,11.3203,11.3203,11.3203,11.3203,11.3203,11.3086,11.1992,11.0508,10.9609,10.8711,10.8008,10.8008,10.8008,10.8008,10.8008,10.8008,10.8008,10.8008,10.8008,10.8008,10.8008,10.8008,10.8086,10.8086,10.8086,10.789,10.7109,10.6992,10.6719,10.5898,10.5781,10.5703,10.5703,10.5703,10.5312,10.4492,10.4414,10.3984,10.3203,10.3008,10.289,10.289,10.289,10.289,10.289,10.289,10.289,10.289,10.289,10.289,10.289,10.289,10.289,10.289,10.289,10.289,8.8633,0.0,9.957,9.7265,9.6054,9.457,0.0,8.914,8.7539,8.6679,8.6328,8.6015,8.5312,8.5039,8.5195,8.6054,8.7265,8.9687,9.4258,10.1406,10.8203,11.3593,11.5312,11.6718,11.8281,12.0312,12.1797,12.25,12.2304,12.1601,12.0312,11.9804,11.9297,11.8593,11.8398,11.8281,11.8281,11.8281,11.75,11.5781,11.5703,11.4804,11.3203,11.3203,11.3203,11.3203,11.3203,11.3203,11.3203,11.3203,11.2812,11.2304,11.289,11.2812,11.2304,11.3008,11.3203,11.3203,11.3203,11.3203,11.3086,11.2383,11.1914,11.1289,10.9804,10.8711,10.8008,10.8008,10.8008,10.8008,10.8008,10.8008,10.8008,10.8008,10.8008,10.8008,10.8008,10.8515,10.8984,10.8984,10.9492,10.9883,10.9687,10.9687,10.9414,10.8515,10.8398,10.8203,10.75,10.7383,10.7109,10.6211,10.6093,10.5781,10.5,10.3711,10.289,10.289,10.289,10.289,10.289,10.289,10.289,10.289,10.289,10.289,10.289,10.289,10.289,10.289,10.289,10.289,8.5234,8.9492,9.3242,9.1992,9.1601,9.0937,8.875,8.7265,8.6172,8.5703,8.5273,8.4844,8.4375,8.3984,8.4258,8.5937,8.7929,9.2031,9.9961,10.6797,11.2617,11.6992,11.8281,11.9218,12.0117,12.1015,12.1601,12.1601,12.1211,12.0586,11.9687,11.9218,11.8789,11.8281,11.8281,11.8281,11.8281,11.789,11.7109,11.5781,11.539,11.4492,11.3203,11.3203,11.3203,11.3203,11.3203,11.3203,11.3203,11.3203,11.289,11.25,11.3008,11.289,11.2617,11.3008,11.3203,11.3203,11.3203,11.3203,11.3086,11.2617,11.2187,11.1718,11.0781,10.9883,10.8984,10.8203,10.8008,10.8008,10.8008,10.8008,10.8008,10.8008,10.8008,10.8008,10.8008,10.8711,10.9297,10.9297,11.0,11.0586,11.0586,11.0586,11.0312,10.9414,10.9297,10.8984,10.8086,10.8008,10.7695,10.6797,10.6719,10.6406,10.5586,10.4609,10.4101,10.4101,10.4101,10.4101,10.4101,10.4101,10.4101,10.4101,10.4101,10.4101,10.4101,10.4101,10.4101,10.4101,10.4101,10.4101,8.4648,8.6679,8.8398,8.7812,8.8515,8.8906,8.7344,8.6406,8.5781,8.5547,8.4687,8.3984,8.3984,8.3398,8.3789,8.6523,8.9883,9.6054,10.7187,11.2187,11.6015,11.9414,12.0312,12.0781,12.0898,12.1015,12.1015,12.0898,12.0312,11.9883,11.9609,11.8906,11.8398,11.8281,11.8281,11.8281,11.8281,11.7383,11.6484,11.5586,11.4883,11.3984,11.3203,11.3203,11.3203,11.3203,11.3203,11.3203,11.3203,11.3203,11.3203,11.3203,11.3203,11.3203,11.3203,11.3203,11.3203,11.3203,11.3203,11.3203,11.3203,11.3203,11.2695,11.2109,11.1914,11.1406,11.0508,10.8906,10.8398,10.8398,10.8398,10.8398,10.8398,10.8398,10.8398,10.8398,10.8398,10.9101,10.9687,10.9687,11.039,11.1015,11.1015,11.1015,11.0703,10.9804,10.9687,10.9414,10.8515,10.8281,10.789,10.7187,10.6992,10.6601,10.5898,10.5898,10.5898,10.6093,10.5703,10.5508,10.5508,10.5508,10.5508,10.5508,10.5508,10.5508,10.5508,10.5508,10.5508,10.5508,10.5508,10.5508,8.4453,8.625,8.7812,8.8398,9.0273,9.1758,9.0742,9.039,8.9883,8.8437,8.6875,8.5781,8.5781,8.5703,8.6679,8.9961,9.6992,10.4492,11.1406,11.4218,11.6797,12.0312,12.0195,12.0117,12.0781,12.1601,12.1718,12.1015,12.1484,12.1211,11.9687,11.9492,11.9101,11.8281,11.8281,11.8281,11.8281,11.7383,11.6211,11.4687,11.4609,11.3984,11.3203,11.3203,11.3203,11.3203,11.3203,11.3203,11.3203,11.3203,11.3203,11.3203,11.3203,11.3203,11.3203,11.3203,11.3203,11.3203,11.3203,11.3203,11.3203,11.3203,11.3086,11.289,11.2109,11.1797,11.1484,11.0508,11.0195,11.0195,11.0195,11.0195,11.0195,11.0195,11.0195,11.0195,11.0195,11.0898,11.1484,11.1484,11.2187,11.2812,11.2812,11.2812,11.25,11.1601,11.1484,11.1211,11.0312,10.9609,10.8984,10.8906,10.8203,10.7812,10.7617,10.7617,10.789,10.8711,10.6719,10.5508,10.5508,10.5508,10.5508,10.5508,10.5508,10.5508,10.5508,10.5508,10.5508,10.5508,10.5508,10.5508,8.4414,8.582,8.7226,8.8984,9.1719,9.3906,9.3515,9.3789,9.3359,9.0664,8.875,8.7539,8.7539,8.7929,9.0625,9.7812,10.3515,10.8906,11.4492,11.6289,11.789,12.0,11.9804,11.9609,11.9492,12.0312,12.0586,12.0195,12.1015,12.0898,11.9687,11.9609,11.9218,11.8281,11.8281,11.8086,11.7617,11.7187,11.6406,11.5195,11.4218,11.3593,11.3203,11.3203,11.3203,11.3203,11.3203,11.3203,11.3203,11.3203,11.3203,11.3203,11.3203,11.3203,11.3203,11.3203,11.3203,11.3203,11.3203,11.3203,11.3203,11.3203,11.3203,11.3086,11.2695,11.2617,11.25,11.2109,11.1289,11.0586,11.0586,11.0586,11.0586,11.0586,11.0586,11.0586,11.0586,11.1289,11.1914,11.1914,11.2617,11.3203,11.3203,11.3203,11.289,11.1992,11.1914,11.1601,11.0703,11.0312,10.9804,10.9414,10.8906,10.8515,10.8008,10.8398,10.8906,10.9297,10.8593,10.8008,10.7617,10.7617,10.7304,10.6914,10.7304,10.7617,10.7617,10.8008,10.8281,10.8281,10.8281,10.8281,8.4179,8.5234,8.6562,8.9297,9.2461,9.5039,9.5664,9.6601,9.664,9.3945,9.1875,9.0547,9.0547,9.1562,9.5351,10.4297,10.8086,11.1718,11.6914,11.8008,11.8711,11.9804,11.9492,11.9101,11.8593,11.9414,12.0,12.0195,12.1015,12.1015,12.0,11.9883,11.9414,11.8281,11.8281,11.8008,11.7304,11.6914,11.6289,11.5508,11.4101,11.3398,11.3203,11.3203,11.3203,11.3203,11.3203,11.3203,11.3203,11.3203,11.3203,11.3203,11.3203,11.3203,11.3203,11.3203,11.3203,11.3203,11.3203,11.3203,11.3203,11.3203,11.3203,11.3203,11.3203,11.3203,11.3203,11.3203,11.2187,11.1211,11.1211,11.1211,11.1211,11.1211,11.1211,11.1211,11.1211,11.1718,11.2187,11.2187,11.2695,11.3203,11.3203,11.3203,11.3008,11.2304,11.2187,11.1992,11.1289,11.1015,11.0586,11.0,10.9687,10.9297,10.8711,10.9414,10.9883,10.9883,11.0312,11.0312,10.9609,10.9414,10.9101,10.8593,10.9101,10.9414,10.9609,11.0312,11.0586,11.0586,11.0586,11.0586,8.3437,8.4336,8.5781,8.914,9.1992,9.4609,9.6992,9.8828,9.9961,9.9687,9.7656,9.5937,9.5937,9.7929,10.1094,10.5781,10.9492,11.3515,11.8711,11.8789,11.8906,12.0586,11.9414,11.8711,11.9414,12.0312,12.1093,12.1992,12.2812,12.2617,12.0898,12.0781,12.0,11.8398,11.8281,11.8281,11.8203,11.6601,11.539,11.4609,11.4492,11.3984,11.3203,11.3203,11.3203,11.3203,11.3203,11.3203,11.3203,11.3203,11.3203,11.3203,11.3203,11.3203,11.3203,11.3203,11.3203,11.3203,11.3203,11.3203,11.3203,11.3203,11.3203,11.3203,11.3203,11.3203,11.3203,11.3203,11.3086,11.3008,11.3008,11.3008,11.3008,11.3008,11.3008,11.3008,11.3008,11.3086,11.3086,11.3086,11.3203,11.3203,11.3203,11.3203,11.3203,11.3086,11.3086,11.3086,11.3008,11.2304,11.1797,11.1718,11.1015,11.0508,11.039,11.1211,11.1718,11.1718,11.1015,11.0586,11.0508,10.9687,10.9687,11.039,10.9687,10.9687,11.0508,11.0586,11.0586,11.0586,11.0586,11.0586,8.3359,8.3828,8.4804,8.7734,9.039,9.3515,9.8242,10.1914,10.4101,10.3594,10.3203,10.1992,9.9375,10.1015,10.3984,10.7695,11.0781,11.4297,11.8984,11.9297,11.9414,12.0,12.0,11.9804,11.9609,12.0898,12.1797,12.2187,12.3008,12.2695,12.1015,12.0898,12.0117,11.8398,11.8281,11.8008,11.75,11.6797,11.5781,11.4492,11.3984,11.3515,11.3203,11.3203,11.3203,11.3203,11.3203,11.3203,11.3203,11.3203,11.3203,11.3281,11.3789,11.3711,11.3281,11.3789,11.3711,11.3203,11.3203,11.3203,11.3203,11.3203,11.3203,11.3203,11.3203,11.3203,11.3203,11.3203,11.3203,11.3203,11.3203,11.3203,11.3203,11.3203,11.3203,11.3203,11.3203,11.3203,11.3203,11.3203,11.3203,11.3203,11.3203,11.3203,11.3203,11.3203,11.3203,11.3203,11.3203,11.289,11.25,11.1992,11.1093,11.0781,11.1406,11.1718,11.2109,11.2695,11.2383,11.1992,11.1406,11.1093,11.0781,11.0586,11.0781,11.1093,11.1406,11.1992,11.2187,11.2187,11.2187,11.2187,8.3047,8.3203,8.3828,8.6445,8.8984,9.2461,9.8515,10.3398,10.6797,10.7109,10.7109,10.6015,10.2187,10.3203,10.5586,10.8789,11.1484,11.4687,11.8984,11.9414,11.9414,11.9883,12.0312,12.0508,12.039,12.1484,12.2304,12.2617,12.3203,12.2695,12.1015,12.0898,12.0117,11.8398,11.8281,11.8008,11.7383,11.6914,11.6015,11.4883,11.3711,11.3203,11.3203,11.3203,11.3203,11.3203,11.3203,11.3203,11.3203,11.3203,11.3398,11.3711,11.4297,11.4297,11.3984,11.4414,11.4101,11.3593,11.3593,11.3593,11.3711,11.3906,11.3789,11.3593,11.3593,11.3398,11.3281,11.3515,11.3593,11.3711,11.3906,11.3593,11.3203,11.3203,11.3398,11.3593,11.3593,11.3789,11.3906,11.3711,11.3593,11.3515,11.3203,11.3203,11.3203,11.3203,11.3203,11.3203,11.3203,11.3203,11.3008,11.2383,11.1797,11.1718,11.2304,11.2304,11.2617,11.3203,11.3203,11.289,11.2304,11.1992,11.1718,11.1406,11.1718,11.1992,11.2304,11.289,11.3203,11.3203,11.3203,11.3203,8.2304,8.2304,8.2969,8.5586,8.8164,9.164,9.7656,10.3086,10.75,11.0117,10.9297,10.7304,10.4687,10.5,10.6406,10.8906,11.1484,11.4687,11.8984,11.8906,11.8984,12.0703,12.0117,12.0312,12.1992,12.2187,12.2617,12.3398,12.3515,12.2695,12.1015,12.0898,12.0117,11.8398,11.8281,11.8281,11.8281,11.6601,11.5703,11.5781,11.3984,11.3203,11.3203,11.3203,11.3203,11.3203,11.3203,11.3203,11.3203,11.3203,11.3711,11.4492,11.4492,11.5,11.5586,11.4804,11.4492,11.4492,11.4492,11.4492,11.4609,11.539,11.5195,11.4492,11.4492,11.3906,11.3398,11.4297,11.4492,11.4687,11.5586,11.4492,11.3203,11.3203,11.3906,11.4492,11.4492,11.5117,11.5508,11.4687,11.4492,11.4218,11.3398,11.3203,11.3203,11.3203,11.3203,11.3203,11.3203,11.3203,11.3203,11.3203,11.3203,11.3203,11.3203,11.3203,11.3203,11.3203,11.3203,11.3203,11.3203,11.2383,11.2304,11.3203,11.2383,11.2304,11.3203,11.3203,11.3203,11.3203,11.3203,11.3203,8.3047,8.3672,8.4883,8.8086,9.1758,9.582,10.0586,10.4804,10.9218,11.4883,11.4218,11.1797,10.9218,10.8906,10.9297,11.0117,11.2383,11.5195,11.8281,11.8984,11.9414,11.9883,12.0781,12.1601,12.2109,12.2812,12.3203,12.3515,12.3515,12.2695,12.1015,12.0898,12.0117,11.8398,11.8281,11.8008,11.7383,11.6914,11.6015,11.4883,11.4414,11.3789,11.3203,11.3203,11.3203,11.3203,11.3203,11.3203,11.3203,11.3203,11.3711,11.4609,11.5195,11.5508,11.5703,11.5508,11.539,11.5312,11.4687,11.4883,11.539,11.5586,11.5586,11.5312,11.4687,11.4687,11.5,11.4609,11.4883,11.539,11.5703,11.5312,11.5,11.5,11.5195,11.5312,11.5312,11.5508,11.5586,11.539,11.4883,11.4414,11.4218,11.3593,11.3398,11.3984,11.4101,11.4101,11.4101,11.4101,11.3906,11.3281,11.3711,11.4101,11.4101,11.4609,11.5,11.5,11.5,11.4414,11.3203,11.3008,11.289,11.3203,11.289,11.289,11.3203,11.3203,11.3203,11.3203,11.3203,11.3203,8.3672,8.5234,8.7304,9.1133,9.5859,10.1015,10.6719,10.9414,11.2109,11.7187,11.6484,11.4414,11.25,11.1914,11.1718,11.2109,11.3711,11.5781,11.8008,11.8789,11.9297,12.0,12.1015,12.1992,12.2617,12.3203,12.3515,12.3515,12.3203,12.2383,12.1015,12.0586,11.9687,11.8281,11.8281,11.8008,11.75,11.7187,11.6289,11.5,11.4687,11.3984,11.3203,11.3203,11.3203,11.3203,11.3203,11.3203,11.3203,11.3593,11.4218,11.5117,11.5898,11.6484,11.6718,11.6406,11.6289,11.6093,11.5703,11.5781,11.6289,11.6601,11.6484,11.6211,11.5703,11.5586,11.5703,11.5508,11.5781,11.6289,11.6601,11.6718,11.6601,11.5898,11.6015,11.6211,11.6211,11.6484,11.6601,11.6289,11.5781,11.5312,11.4609,11.4297,11.4297,11.4492,11.4804,11.5,11.5,11.4687,11.4414,11.4297,11.4414,11.4609,11.4883,11.539,11.5703,11.5781,11.5703,11.5312,11.4297,11.4218,11.4218,11.4218,11.4218,11.4218,11.4218,11.4218,11.4218,11.4218,11.4218,11.4218,8.4375,8.6992,9.0039,9.4531,10.0312,10.6797,11.4218,11.5312,11.539,11.7812,11.7109,11.5781,11.5,11.4218,11.3906,11.4687,11.5508,11.6484,11.8086,11.8398,11.8984,12.0586,12.0898,12.1484,12.3086,12.3281,12.3281,12.3281,12.25,12.1718,12.0781,12.0,11.9218,11.8281,11.8281,11.8281,11.8281,11.7383,11.6601,11.5703,11.4883,11.3984,11.3203,11.3203,11.3203,11.3203,11.3203,11.3203,11.3281,11.4101,11.4883,11.5781,11.6601,11.75,11.8203,11.7304,11.7109,11.7109,11.6992,11.7109,11.7187,11.8008,11.7812,11.7109,11.6992,11.6484,11.6093,11.6797,11.7109,11.7304,11.8086,11.8281,11.789,11.6289,11.6484,11.7109,11.7109,11.7695,11.8086,11.7304,11.7109,11.6484,11.5,11.5312,11.5508,11.4804,11.5508,11.6015,11.5898,11.5195,11.5,11.5703,11.5195,11.5,11.5781,11.5898,11.6015,11.6015,11.6015,11.6015,11.6015,11.5898,11.5781,11.5703,11.5703,11.5703,11.5781,11.5703,11.5703,11.5781,11.5781,11.5781,8.5859,8.8789,9.2109,9.7773,10.4804,11.1406,11.5703,11.6601,11.6797,11.8008,11.8008,11.7695,11.75,11.7304,11.7304,11.75,11.7617,11.789,11.8203,11.8906,11.9492,11.9804,12.0508,12.1015,12.1406,12.1484,12.1484,12.1484,12.1289,12.0781,11.9883,11.9687,11.9218,11.8281,11.8281,11.8281,11.8281,11.7383,11.6601,11.5703,11.4883,11.3984,11.3203,11.3203,11.3203,11.3203,11.3203,11.3203,11.3203,11.3398,11.4414,11.5781,11.5898,11.6914,11.8203,11.7304,11.7383,11.789,11.7187,11.7383,11.8086,11.8203,11.8203,11.789,11.7187,11.7304,11.7617,11.7109,11.75,11.8086,11.8281,11.8281,11.8203,11.7812,11.789,11.8008,11.8008,11.8203,11.8203,11.8086,11.75,11.6914,11.6484,11.6015,11.5898,11.6406,11.7187,11.75,11.6797,11.6601,11.6289,11.5781,11.6211,11.6484,11.6718,11.7304,11.7695,11.7812,11.7695,11.7695,11.7812,11.6406,11.5703,11.5703,11.5703,11.5703,11.5703,11.5703,11.5703,11.5703,11.5703,11.5703,8.6094,9.0273,9.539,10.4804,11.039,11.4414,11.6992,11.7617,11.7812,11.8203,11.8281,11.8281,11.8281,11.8281,11.8281,11.8281,11.8281,11.8281,11.8281,11.8711,11.9101,11.9609,12.0,12.039,12.0898,12.0898,12.0898,12.0898,12.0508,12.0117,11.9609,11.9218,11.8789,11.8281,11.8281,11.8086,11.7695,11.7187,11.6406,11.5117,11.4687,11.3984,11.3203,11.3203,11.3203,11.3203,11.3593,11.3593,11.3281,11.4101,11.4687,11.5312,11.6015,11.6914,11.7695,11.7617,11.789,11.8203,11.7812,11.789,11.8281,11.8281,11.8281,11.8203,11.7812,11.789,11.8203,11.7812,11.789,11.8281,11.8281,11.8281,11.8281,11.8281,11.8281,11.8281,11.8281,11.8281,11.8281,11.8281,11.789,11.75,11.7109,11.6601,11.6601,11.75,11.8008,11.8086,11.7695,11.7304,11.6992,11.6914,11.6992,11.7187,11.7617,11.8008,11.8281,11.8281,11.8281,11.8281,11.8281,11.7383,11.6914,11.6914,11.6914,11.6914,11.6914,11.6914,11.6914,11.6914,11.6914,11.6914,8.5859,9.2031,9.957,11.1289,11.5,11.6211,11.789,11.8281,11.8281,11.8281,11.8281,11.8281,11.8281,11.8281,11.8281,11.8281,11.8281,11.8281,11.8281,11.8281,11.8593,11.9297,11.9414,11.9687,12.039,12.0508,12.0508,12.0508,11.9804,11.9414,11.9414,11.8711,11.8281,11.8281,11.8203,11.7695,11.6992,11.6718,11.5898,11.4492,11.4297,11.3906,11.3203,11.3203,11.3203,11.3203,11.4101,11.4101,11.3515,11.5,11.5312,11.5117,11.6289,11.6992,11.7304,11.8008,11.8281,11.8281,11.8281,11.8281,11.8281,11.8281,11.8281,11.8281,11.8281,11.8281,11.8281,11.8281,11.8281,11.8281,11.8281,11.8281,11.8281,11.8281,11.8281,11.8281,11.8281,11.8281,11.8281,11.8281,11.8281,11.8086,11.7304,11.7187,11.75,11.8203,11.8281,11.8281,11.8281,11.7695,11.75,11.8203,11.7695,11.75,11.8203,11.8281,11.8281,11.8281,11.8281,11.8281,11.8281,11.8281,11.8281,11.8281,11.8281,11.8281,11.8281,11.8281,11.8281,11.8281,11.8281,11.8281,8.5859,9.5078,10.4687,11.1601,11.4609,11.6211,11.789,11.8281,11.8281,11.8281,11.8281,11.8281,11.8281,11.8281,11.8281,11.8281,11.8281,11.8281,11.8281,11.8281,11.8281,11.8515,11.8515,11.8515,11.8593,11.8593,11.8593,11.8593,11.8515,11.8515,11.8515,11.8398,11.8281,11.8281,11.7617,11.7109,11.6992,11.5586,11.4687,11.4492,11.3711,11.3281,11.3203,11.3203,11.3203,11.3203,11.4101,11.4414,11.4297,11.4609,11.5508,11.6601,11.6093,11.6797,11.8086,11.8281,11.8281,11.8281,11.8281,11.8281,11.8281,11.8281,11.8281,11.8281,11.8281,11.8281,11.8281,11.8281,11.8281,11.8281,11.8281,11.8281,11.8281,11.8281,11.8281,11.8281,11.8281,11.8281,11.8281,11.8281,11.8281,11.8281,11.8086,11.8086,11.8203,11.8281,11.8281,11.8281,11.8281,11.8203,11.8203,11.8281,11.8203,11.8203,11.8281,11.8281,11.8281,11.8281,11.8281,11.8281,11.8281,11.8281,11.8281,11.8281,11.8281,11.8281,11.8281,11.8281,11.8281,11.8281,11.8281,11.8281,8.8672,9.75,10.5781,11.2304,11.4804,11.6211,11.789,11.8281,11.8281,11.8281,11.8281,11.8281,11.8281,11.8281,11.8515,11.8906,11.8984,11.9218,11.9687,11.9804,11.9804,11.9804,11.9804,11.9804,11.9804,11.9297,11.8984,11.8984,11.8593,11.8281,11.8281,11.8281,11.8281,11.8281,11.75,11.6797,11.6289,11.5117,11.4297,11.3789,11.3398,11.3203,11.3203,11.3203,11.3203,11.3281,11.4609,11.4883,11.4609,11.5508,11.6093,11.6289,11.6406,11.6914,11.7617,11.8086,11.8281,11.8281,11.8281,11.8281,11.8281,11.8281,11.8281,11.8281,11.8281,11.8281,11.8281,11.8281,11.8281,11.8281,11.8281,11.8281,11.8281,11.8281,11.8281,11.8281,11.8281,11.8281,11.8281,11.8281,11.8281,11.8281,11.8281,11.8281,11.8281,11.8281,11.8281,11.8281,11.8281,11.8281,11.8281,11.8281,11.8281,11.8281,11.8281,11.8281,11.8281,11.8281,11.8281,11.8281,11.8281,11.8281,11.8281,11.8281,11.8281,11.8281,11.8281,11.8281,11.8281,11.8281,11.8281,11.8281,9.0,9.7304,10.3789,11.0508,11.3203,11.4609,11.6601,11.7187,11.7383,11.7617,11.7812,11.8008,11.8008,11.8281,11.8789,11.9492,11.9804,12.0195,12.0781,12.0898,12.0898,12.0898,12.0898,12.0898,12.0898,12.0312,11.9804,11.9609,11.8984,11.8515,11.8281,11.8281,11.8281,11.8281,11.7304,11.6406,11.5781,11.4687,11.3789,11.3203,11.3398,11.3515,11.3515,11.3711,11.3789,11.3906,11.5195,11.5508,11.5195,11.6484,11.6797,11.6484,11.6914,11.7109,11.7383,11.8086,11.8281,11.8281,11.8281,11.8281,11.8281,11.8281,11.8281,11.8281,11.8281,11.8281,11.8281,11.8281,11.8281,11.8281,11.8281,11.8281,11.8281,11.8281,11.8281,11.8281,11.8281,11.8281,11.8281,11.8281,11.8281,11.8281,11.8281,11.8281,11.8281,11.8281,11.8281,11.8281,11.8281,11.8281,11.8281,11.8281,11.8281,11.8281,11.8281,11.8281,11.8281,11.8281,11.8281,11.8281,11.8281,11.8281,11.8281,11.8281,11.8281,11.8281,11.8281,11.8281,11.8281,11.8281,11.8281,11.8281,8.7695,9.2851,9.8359,10.4414,10.7812,11.0312,11.289,11.4101,11.4883,11.5781,11.6484,11.7109,11.7109,11.8398,11.9492,11.9609,12.0312,12.0781,12.0898,12.0898,12.0898,12.0898,12.0898,12.0898,12.0898,12.0898,12.0508,11.9687,11.9609,11.9218,11.8281,11.8281,11.8281,11.8281,11.6718,11.5781,11.5703,11.4101,11.3203,11.3203,11.3984,11.4414,11.4492,11.5195,11.5586,11.5586,11.5703,11.6211,11.6914,11.6992,11.75,11.8086,11.7304,11.75,11.8203,11.8281,11.8281,11.8281,11.8281,11.8281,11.8281,11.8281,11.8281,11.8281,11.8281,11.8281,11.8281,11.8281,11.8281,11.8281,11.8281,11.8281,11.8281,11.8281,11.8281,11.8281,11.8281,11.8281,11.8281,11.8281,11.8281,11.8281,11.8281,11.8281,11.8281,11.8281,11.8281,11.8281,11.8281,11.8281,11.8281,11.8281,11.8281,11.8281,11.8281,11.8281,11.8281,11.8281,11.8281,11.8281,11.8281,11.8281,11.8281,11.8281,11.8281,11.8281,11.8281,11.8281,11.8281,11.8281,11.8281,11.8281,8.5547,8.9219,9.3515,9.8476,10.2109,10.5312,10.8984,11.1406,11.3398,11.539,11.6015,11.6289,11.6914,11.8008,11.9101,12.0312,12.0703,12.1289,12.2383,12.2617,12.2617,12.2617,12.2617,12.2617,12.2617,12.2109,12.1601,12.1289,12.0781,12.0312,12.0,11.9414,11.9101,11.9101,11.6914,11.5195,11.4101,11.3515,11.3203,11.3203,11.4101,11.4492,11.4492,11.5312,11.6015,11.6484,11.6601,11.6718,11.6992,11.7617,11.8008,11.8281,11.8008,11.8008,11.8281,11.8281,11.8281,11.8281,11.8281,11.8281,11.8281,11.8281,11.8281,11.8281,11.8281,11.8281,11.8281,11.8281,11.8281,11.8398,11.8984,11.8711,11.8281,11.8281,11.8281,11.8515,11.8984,11.8711,11.8281,11.8281,11.8281,11.8281,11.8281,11.8281,11.8281,11.8281,11.8281,11.8281,11.8281,11.8281,11.8281,11.8281,11.8281,11.8281,11.8281,11.8281,11.8281,11.8281,11.8281,11.8281,11.8281,11.8281,11.8281,11.8281,11.8281,11.8281,11.8281,11.8281,11.8281,11.8281,11.8281,11.8281,8.3125,8.5664,8.875,9.2539,9.6054,9.9648,10.3594,10.6797,10.9804,11.3008,11.3984,11.4883,11.6289,11.7304,11.8515,12.0586,12.1093,12.1797,12.3281,12.3515,12.3515,12.3515,12.3515,12.3398,12.3086,12.2812,12.2383,12.1797,12.1484,12.1211,12.0898,12.039,11.9609,11.8789,11.6797,11.4883,11.3203,11.3203,11.3203,11.3203,11.4414,11.4883,11.4883,11.6093,11.6914,11.7383,11.7383,11.7383,11.75,11.8086,11.8281,11.8281,11.8281,11.8281,11.8281,11.8281,11.8281,11.8281,11.8281,11.8281,11.8281,11.8281,11.8281,11.8281,11.8281,11.8281,11.8281,11.8281,11.8281,11.8515,11.9414,11.9218,11.8711,11.8398,11.8515,11.8906,11.9492,11.9101,11.8789,11.9101,11.8906,11.8789,11.9101,11.8906,11.8789,11.9101,11.9218,11.9218,11.9218,11.8906,11.8711,11.8711,11.8515,11.8398,11.8711,11.8711,11.8906,11.9218,11.8906,11.8711,11.8711,11.8515,11.8281,11.8281,11.8281,11.8281,11.8281,11.8281,11.8281,11.8281,11.8281,11.8281,0.0,0.0,0.0,8.6601,8.9804,9.3203,9.664,10.0195,10.3906,10.8281,11.0586,11.2617,11.5195,11.6406,11.7812,12.039,12.1601,12.25,12.3281,12.3515,12.3515,12.3515,12.3515,12.3203,12.2304,12.3008,12.2812,12.1093,12.1797,12.1914,12.1015,12.0898,11.9687,11.7109,11.6211,11.5,11.3281,11.3203,11.3203,11.3281,11.5,11.5781,11.5781,11.75,11.8281,11.8281,11.8281,11.8281,11.8281,11.8281,11.8281,11.8281,11.8281,11.8281,11.8281,11.8281,11.8281,11.8281,11.8281,11.8281,11.8281,11.8281,11.8281,11.8281,11.8281,11.8281,11.8281,11.8281,11.8281,11.8515,11.9414,11.9609,11.9414,11.8593,11.8984,11.9609,11.9687,11.9687,11.9883,12.0703,12.0195,11.9883,12.0703,12.0195,11.9883,12.0781,12.0898,12.0898,12.0898,12.0117,11.9609,11.9609,11.8789,11.8711,11.9492,11.9609,12.0,12.0781,12.0117,11.9609,11.9609,11.8789,11.8281,11.8281,11.8281,11.8281,11.8281,11.8281,11.8281,11.8281,11.8281,11.8281,7.8125,0.0,0.0,0.0,0.0,0.0,9.0273,9.4844,9.9844,10.539,10.8398,11.1211,11.5,11.5898,11.6992,11.9492,12.0703,12.1601,12.2383,12.3086,12.3515,12.3515,12.3515,12.3398,12.3203,12.3398,12.3281,12.2812,12.3008,12.3008,12.2812,12.1601,12.0,11.8008,11.6484,11.5195,11.4218,11.3515,11.3515,11.4218,11.5195,11.6015,11.6718,11.7812,11.8281,11.8281,11.8281,11.8281,11.8281,11.8281,11.8281,11.8281,11.8281,11.8281,11.8281,11.8281,11.8281,11.8281,11.8281,11.8281,11.8398,11.8984,11.9218,11.9218,11.9218,11.9218,11.9101,11.8515,11.8281,11.8515,11.9414,12.0117,12.0508,12.0195,12.039,12.0703,12.1289,12.1484,12.1406,12.1015,12.0195,11.9883,12.0703,12.0195,11.9883,12.0781,12.0898,12.0898,12.0898,12.0117,11.9609,11.9609,11.8789,11.8711,11.9492,11.9609,12.0,12.0781,12.0117,11.9609,11.9609,11.8789,11.8281,11.8281,11.8281,11.8281,11.8281,11.8281,11.8281,11.8281,11.8281,11.8281,7.7109,7.7187,7.7305,7.7812,0.0,0.0,8.5273,8.9765,9.4844,10.0586,10.3789,10.6914,11.1211,11.1992,11.2617,11.4492,11.6093,11.8281,12.1718,12.2617,12.3086,12.3515,12.3515,12.3398,12.3008,12.3281,12.3203,12.25,12.3086,12.3515,12.3515,12.1797,12.0312,11.8906,11.7187,11.5781,11.5,11.4492,11.4492,11.5,11.5781,11.6484,11.6992,11.789,11.8281,11.8281,11.8281,11.8281,11.8281,11.8281,11.8281,11.8281,11.8281,11.8281,11.8281,11.8281,11.8281,11.8281,11.8281,11.8281,11.8398,11.9297,11.9609,11.9609,11.9609,11.9609,11.9414,11.8515,11.8593,11.8984,11.9492,12.0195,12.0898,12.0898,12.1211,12.1601,12.2109,12.25,12.2617,12.2109,12.1015,12.039,12.1289,12.039,11.9883,12.0781,12.0898,12.0898,12.0898,12.0117,11.9609,11.9609,11.8789,11.8711,11.9492,11.9609,12.0,12.0781,12.0117,11.9609,11.9609,11.8789,11.8281,11.8281,11.8281,11.8281,11.8281,11.8281,11.8281,11.8281,11.8281,11.8281,7.6953,7.7187,7.7187,7.7187,7.832,0.0,8.1484,8.5039,8.9453,9.457,9.7656,10.0781,10.5117,10.5781,10.6093,10.6992,10.9297,11.3515,12.039,12.1601,12.2187,12.3203,12.3398,12.3086,12.2383,12.3008,12.2812,12.1211,12.25,12.3398,12.3515,12.1914,12.0586,11.9804,11.8086,11.6718,11.5898,11.5703,11.5703,11.5898,11.6601,11.7109,11.7187,11.789,11.8281,11.8281,11.8281,11.8281,11.8281,11.8281,11.8281,11.8281,11.8281,11.8281,11.8281,11.8398,11.8398,11.8515,11.8593,11.8593,11.8711,11.9492,11.9687,11.9687,11.9609,11.9609,11.9414,11.8515,11.8906,11.9492,11.9687,12.0312,12.0898,12.1093,12.1718,12.2187,12.2187,12.2695,12.3203,12.3203,12.1992,12.1211,12.1992,12.0781,11.9883,12.0781,12.0898,12.0898,12.0898,12.0117,11.9609,11.9609,11.8789,11.8711,11.9492,11.9609,12.0,12.0781,12.0117,11.9609,11.9609,11.8789,11.8281,11.8281,11.8281,11.8281,11.8281,11.8281,11.8281,11.8281,11.8281,11.8281,7.6953,7.7187,7.7187,7.7187,7.7461,0.0,7.8984,8.1484,8.4804,8.9297,9.2304,9.539,9.9726,10.0508,10.0781,10.1719,10.3984,10.8086,11.5,11.7812,11.9883,12.2187,12.25,12.2695,12.3203,12.3398,12.3086,12.1992,12.2304,12.2812,12.3515,12.25,12.1484,12.0703,11.8984,11.7617,11.6797,11.6093,11.6093,11.6718,11.6914,11.7383,11.8086,11.8203,11.8281,11.8281,11.8281,11.8281,11.8281,11.8281,11.8281,11.8281,11.8281,11.8281,11.8398,11.9101,11.9297,11.9414,12.0117,12.039,12.039,12.0586,12.0586,12.0508,11.9804,11.9609,11.9414,11.8515,11.8398,11.8906,12.0312,12.0781,12.1289,12.2695,12.2617,12.2187,12.2187,12.1797,12.1406,12.1406,12.1093,12.1211,12.1992,12.0781,11.9883,12.0781,12.0898,12.0898,12.0898,12.0117,11.9609,11.9609,11.8789,11.8711,11.9492,11.9609,12.0,12.0781,12.0117,11.9609,11.9609,11.8789,11.8281,11.8281,11.8281,11.8281,11.8281,11.8281,11.8281,11.8281,11.8281,11.8281,7.6953,7.7187,7.7187,7.7187,7.7187,0.0,0.0,7.9492,8.1875,8.4883,8.7226,8.9687,9.2695,9.3594,9.4023,9.4453,9.7422,10.1484,10.6719,11.2617,11.7695,12.1093,12.1914,12.25,12.3398,12.3515,12.3281,12.289,12.2383,12.2617,12.3515,12.2695,12.1797,12.0898,11.9609,11.8515,11.7695,11.7187,11.7187,11.7617,11.7617,11.789,11.8281,11.8281,11.8281,11.8281,11.8281,11.8281,11.8281,11.8281,11.8281,11.8281,11.8281,11.8281,11.8398,11.9297,11.9609,11.9687,12.0586,12.0898,12.0898,12.0898,12.0898,12.0703,11.9883,11.9297,11.8906,11.8398,11.8281,11.8711,12.039,12.0898,12.1289,12.3086,12.2812,12.2187,12.2187,12.1484,12.0898,12.0898,12.0508,12.039,12.0781,11.9804,11.9101,11.9492,11.9609,11.9609,11.9609,11.9218,11.8984,11.8984,11.8593,11.8515,11.8906,11.8984,11.9101,11.9609,11.9218,11.8984,11.8984,11.8515,11.8281,11.8281,11.8281,11.8281,11.8281,11.8281,11.8281,11.8281,11.8281,11.8281,7.75,7.7578,7.7461,7.7461,7.7305,7.7187,0.0,0.0,0.0,8.125,8.2695,8.414,8.5703,8.6523,8.7031,8.7187,9.0742,9.4648,9.8086,10.5898,11.3203,11.8515,12.0117,12.1093,12.2109,12.2383,12.2617,12.3008,12.1992,12.1992,12.3203,12.2617,12.1797,12.0898,12.0195,11.9414,11.8281,11.8281,11.8281,11.8281,11.8281,11.8281,11.8281,11.8281,11.8281,11.8281,11.8281,11.8281,11.8281,11.8281,11.8281,11.8281,11.8515,11.8593,11.8711,11.9687,12.0117,12.0195,12.0898,12.1211,12.1093,12.0781,12.0508,12.0312,11.9609,11.8906,11.8281,11.8281,11.8281,11.8711,12.0195,12.0586,12.1015,12.2617,12.2304,12.1718,12.1718,12.1015,12.039,12.039,11.9804,11.9414,11.9609,11.8906,11.8281,11.8281,11.8281,11.8281,11.8281,11.8281,11.8281,11.8281,11.8281,11.8281,11.8281,11.8281,11.8281,11.8281,11.8281,11.8281,11.8281,11.8281,11.8281,11.8281,11.8281,11.8281,11.8281,11.8281,11.8281,11.8281,11.8281,11.8281,7.9375,7.8906,7.8359,7.8359,7.7773,7.7187,7.7187,0.0,7.7773,7.8711,0.0,7.9492,8.0429,0.0,0.0,8.1758,8.4883,8.8437,9.1836,9.6523,10.289,11.1914,11.4414,11.6015,11.7617,11.8398,11.9492,12.1093,11.9687,11.9804,12.2187,12.2304,12.1797,12.0898,12.0781,12.0,11.8281,11.8281,11.8281,11.8281,11.8281,11.8281,11.8281,11.8281,11.8281,11.8281,11.8281,11.8281,11.8281,11.8281,11.8281,11.8398,11.9218,11.9492,11.9687,12.1289,12.1914,12.1914,12.1992,12.2109,12.1797,12.0195,11.9218,11.8593,11.8515,11.8398,11.8281,11.8281,11.8281,11.8515,11.9492,11.9687,12.0,12.1015,12.0508,11.9883,11.9883,11.9218,11.8593,11.8593,11.8515,11.8711,11.9492,11.8906,11.8281,11.8281,11.8281,11.8281,11.8281,11.8281,11.8281,11.8281,11.8281,11.8281,11.8281,11.8281,11.8281,11.8281,11.8281,11.8281,11.8281,11.8281,11.8281,11.8281,11.8281,11.8281,11.8281,11.8281,11.8281,11.8281,11.8281,11.8281,8.2734,8.2109,8.1328,8.082,7.9687,7.8515,7.8047,7.7578,7.7461,7.832,0.0,0.0,0.0,0.0,0.0,0.0,8.3515,8.6445,8.9375,9.2226,9.7148,10.5703,10.9101,11.2187,11.5898,11.75,11.8593,11.9297,11.8711,11.8984,12.0586,12.1718,12.1601,12.0195,12.0586,12.0117,11.8281,11.8281,11.8281,11.8281,11.8281,11.8281,11.8281,11.8281,11.8281,11.8281,11.8281,11.8281,11.8281,11.8281,11.8281,11.8398,11.9297,11.9297,11.8984,12.0195,12.0703,12.0781,12.1289,12.1406,12.1211,12.0,11.8984,11.8281,11.8281,11.8281,11.8281,11.8281,11.8281,11.8515,11.9414,11.9609,11.9804,12.0703,12.0195,11.9609,11.9609,11.8906,11.8281,11.8281,11.8281,11.8398,11.8789,11.8515,11.8281,11.8281,11.8281,11.8281,11.8281,11.8281,11.8281,11.8281,11.8281,11.8281,11.8281,11.8281,11.8281,11.8281,11.8281,11.8281,11.8281,11.8281,11.8281,11.8281,11.8281,11.8281,11.8281,11.8281,11.8281,11.8281,11.8281,11.8281,8.6953,8.6015,8.4804,8.3945,8.207,8.0117,7.9062,7.8359,7.8047,7.8711,7.9023,0.0,0.0,0.0,8.1015,8.1015,0.0,8.4844,8.6679,8.8437,9.2344,9.9883,10.4219,10.8281,11.2812,11.4609,11.5703,11.6211,11.5703,11.6289,11.8086,11.9609,12.0117,11.9297,12.0117,11.9804,11.8281,11.8281,11.8281,11.8281,11.8281,11.8281,11.8281,11.8281,11.8281,11.8281,11.8281,11.8281,11.8281,11.8281,11.8281,11.8398,11.8984,11.8906,11.8398,11.9492,12.0,12.0,12.039,12.039,12.0117,11.9414,11.8789,11.8281,11.8281,11.8281,11.8281,11.8281,11.8281,11.8398,11.9101,11.9218,11.9414,12.0,11.9687,11.9218,11.9218,11.8711,11.8281,11.8281,11.8281,11.8281,11.8281,11.8281,11.8281,11.8281,11.8281,11.8281,11.8281,11.8281,11.8281,11.8281,11.8281,11.8281,11.8281,11.8281,11.8281,11.8281,11.8281,11.8281,11.8281,11.8281,11.8281,11.8281,11.8281,11.8281,11.8281,11.8281,11.8281,11.8281,11.8281,11.8281,9.2109,9.0508,8.8359,8.7539,8.4765,8.1758,8.0039,7.9648,7.9648,7.9648,8.0312,8.1172,8.207,8.1562,0.0,0.0,8.1797,0.0,0.0,8.4023,8.7695,9.4609,9.9961,10.4101,10.6719,10.7812,10.8984,11.0703,10.9297,11.0195,11.4414,11.5508,11.6718,11.8281,11.9218,11.9218,11.8281,11.8281,11.8281,11.8281,11.8281,11.8281,11.8281,11.8281,11.8281,11.8281,11.8281,11.8281,11.8281,11.8281,11.8281,11.8281,11.8281,11.8281,11.8515,12.0195,12.0898,12.0703,11.9883,11.9101,11.8398,11.8398,11.8281,11.8281,11.8281,11.8281,11.8281,11.8281,11.8281,11.8281,11.8281,11.8281,11.8281,11.8398,11.8398,11.8281,11.8281,11.8281,11.8281,11.8281,11.8281,11.8281,11.8281,11.8281,11.8281,11.8281,11.8281,11.8281,11.8281,11.8281,11.8281,11.8281,11.8281,11.8281,11.8281,11.8281,11.8281,11.8281,11.8281,11.8281,11.8281,11.8281,11.8281,11.8281,11.8281,11.8281,11.8281,11.8281,11.8281,11.8281,11.8281,11.8281,9.7461,9.664,9.5195,9.3789,9.1289,8.8359,8.5508,8.3984,8.3125,8.3125,8.2929,8.3164,8.4609,8.4179,0.0,0.0,0.0,8.3164,0.0,8.414,8.6172,8.9687,9.4648,9.8828,10.1406,10.3398,10.4883,10.5508,10.5,10.6015,10.9218,11.2383,11.4609,11.5703,11.8281,11.9218,11.8281,11.8281,11.8281,11.8281,11.8281,11.8281,11.8281,11.8281,11.8281,11.8281,11.8281,11.8281,11.8281,11.8281,11.8281,11.8281,11.8281,11.8281,11.8398,11.8984,11.9218,11.9101,11.8789,11.8515,11.8281,11.8281,11.8281,11.8281,11.8281,11.8281,11.8281,11.8281,11.8281,11.8281,11.8281,11.8281,11.8281,11.8281,11.8281,11.8281,11.8281,11.8281,11.8281,11.8281,11.8281,11.8281,11.8281,11.8281,11.8281,11.8281,11.8281,11.8281,11.8281,11.8281,11.8281,11.8281,11.8281,11.8281,11.8281,11.8281,11.8281,11.8281,11.8281,11.8281,11.8281,11.8281,11.8281,11.8281,11.8281,11.8281,11.8281,11.8281,11.8281,11.8281,11.8281,11.8281,10.2695,10.2383,10.1406,10.0,9.7734,9.4922,9.1484,8.9336,8.7851,8.6914,8.6289,8.6211,8.7344,8.6601,8.5547,0.0,0.0,0.0,0.0,8.3359,8.414,8.5898,9.039,9.4258,9.6484,9.8515,9.9844,10.0117,9.9883,10.1211,10.4687,10.8711,11.1914,11.3984,11.7383,11.8906,11.8281,11.8281,11.8281,11.8281,11.8281,11.8281,11.8281,11.8281,11.8281,11.8281,11.8281,11.8281,11.8281,11.8281,11.8281,11.8281,11.8281,11.8281,11.8281,11.8281,11.8281,11.8281,11.8281,11.8281,11.8281,11.8281,11.8281,11.8281,11.8281,11.8281,11.8281,11.8281,11.8281,11.8281,11.8281,11.8281,11.8281,11.8281,11.8281,11.8281,11.8281,11.8281,11.8281,11.8281,11.8281,11.8281,11.8281,11.8281,11.8281,11.8281,11.8281,11.8281,11.8281,11.8281,11.8281,11.8281,11.8281,11.8281,11.8281,11.8281,11.8281,11.8281,11.8281,11.8281,11.8281,11.8593,11.8789,11.8789,11.9101,11.9218,11.9218,11.9218,11.9218,11.9218,11.9218,11.9218]}]]